<?xml version="1.0" encoding="UTF-8" standalone="no" ?>
<gpx xmlns="http://www.topografix.com/GPX/1/1" xmlns:xsi="http://www.w3.org/2001/XMLSchema-instance" xsi:schemaLocation="http://www.topografix.com/GPX/1/1 http://www.topografix.com/GPX/1/1/gpx.xsd" version="1.1" creator="VisuGPX - https://www.visugpx.com">
  <metadata>
    <name>Ski Rando - Pic de la Coume d\'Enfer 2730 Face Nord</name>
    <desc><![CDATA[Avec , Pierre , Manue et Norbert le 10/05/2014]]></desc>
  </metadata>
  <trk>
    <name><![CDATA[10-MAI-14 13:29:56]]></name>
    <trkseg>
      <trkpt lat="42.64963" lon="1.70355">
        <ele>1698.79</ele>
        <time>2014-05-10T05:36:04Z</time>
      </trkpt>
      <trkpt lat="42.64963" lon="1.70353">
        <ele>1699.27</ele>
        <time>2014-05-10T05:36:16Z</time>
      </trkpt>
      <trkpt lat="42.64964" lon="1.7035">
        <ele>1697.83</ele>
        <time>2014-05-10T05:36:34Z</time>
      </trkpt>
      <trkpt lat="42.64961" lon="1.70353">
        <ele>1695.42</ele>
        <time>2014-05-10T05:36:55Z</time>
      </trkpt>
      <trkpt lat="42.64963" lon="1.70351">
        <ele>1697.83</ele>
        <time>2014-05-10T05:37:05Z</time>
      </trkpt>
      <trkpt lat="42.64966" lon="1.70356">
        <ele>1697.34</ele>
        <time>2014-05-10T05:37:22Z</time>
      </trkpt>
      <trkpt lat="42.64963" lon="1.70353">
        <ele>1698.79</ele>
        <time>2014-05-10T05:37:40Z</time>
      </trkpt>
      <trkpt lat="42.64963" lon="1.70351">
        <ele>1697.83</ele>
        <time>2014-05-10T05:37:55Z</time>
      </trkpt>
      <trkpt lat="42.64964" lon="1.70352">
        <ele>1696.38</ele>
        <time>2014-05-10T05:38:06Z</time>
      </trkpt>
      <trkpt lat="42.64961" lon="1.7035">
        <ele>1699.27</ele>
        <time>2014-05-10T05:38:15Z</time>
      </trkpt>
      <trkpt lat="42.64959" lon="1.70349">
        <ele>1699.75</ele>
        <time>2014-05-10T05:38:18Z</time>
      </trkpt>
      <trkpt lat="42.64952" lon="1.70338">
        <ele>1701.19</ele>
        <time>2014-05-10T05:38:29Z</time>
      </trkpt>
      <trkpt lat="42.64948" lon="1.70337">
        <ele>1701.19</ele>
        <time>2014-05-10T05:38:33Z</time>
      </trkpt>
      <trkpt lat="42.64944" lon="1.70335">
        <ele>1700.71</ele>
        <time>2014-05-10T05:38:37Z</time>
      </trkpt>
      <trkpt lat="42.64936" lon="1.70331">
        <ele>1701.19</ele>
        <time>2014-05-10T05:38:47Z</time>
      </trkpt>
      <trkpt lat="42.64931" lon="1.7033">
        <ele>1701.67</ele>
        <time>2014-05-10T05:38:52Z</time>
      </trkpt>
      <trkpt lat="42.64919" lon="1.70333">
        <ele>1702.63</ele>
        <time>2014-05-10T05:39:04Z</time>
      </trkpt>
      <trkpt lat="42.64912" lon="1.70335">
        <ele>1703.11</ele>
        <time>2014-05-10T05:39:11Z</time>
      </trkpt>
      <trkpt lat="42.64906" lon="1.70334">
        <ele>1703.59</ele>
        <time>2014-05-10T05:39:18Z</time>
      </trkpt>
      <trkpt lat="42.64901" lon="1.70325">
        <ele>1704.07</ele>
        <time>2014-05-10T05:39:23Z</time>
      </trkpt>
      <trkpt lat="42.64899" lon="1.70319">
        <ele>1705.04</ele>
        <time>2014-05-10T05:39:31Z</time>
      </trkpt>
      <trkpt lat="42.64894" lon="1.70308">
        <ele>1706.96</ele>
        <time>2014-05-10T05:39:41Z</time>
      </trkpt>
      <trkpt lat="42.64892" lon="1.70307">
        <ele>1707.44</ele>
        <time>2014-05-10T05:39:44Z</time>
      </trkpt>
      <trkpt lat="42.64891" lon="1.70304">
        <ele>1708.4</ele>
        <time>2014-05-10T05:39:46Z</time>
      </trkpt>
      <trkpt lat="42.64887" lon="1.70302">
        <ele>1709.84</ele>
        <time>2014-05-10T05:39:58Z</time>
      </trkpt>
      <trkpt lat="42.64889" lon="1.70303">
        <ele>1706</ele>
        <time>2014-05-10T05:40:01Z</time>
      </trkpt>
      <trkpt lat="42.64878" lon="1.70311">
        <ele>1707.44</ele>
        <time>2014-05-10T05:40:12Z</time>
      </trkpt>
      <trkpt lat="42.64863" lon="1.70294">
        <ele>1710.32</ele>
        <time>2014-05-10T05:40:26Z</time>
      </trkpt>
      <trkpt lat="42.64858" lon="1.70283">
        <ele>1712.25</ele>
        <time>2014-05-10T05:40:34Z</time>
      </trkpt>
      <trkpt lat="42.6485" lon="1.70271">
        <ele>1713.69</ele>
        <time>2014-05-10T05:40:45Z</time>
      </trkpt>
      <trkpt lat="42.64842" lon="1.70247">
        <ele>1713.21</ele>
        <time>2014-05-10T05:40:58Z</time>
      </trkpt>
      <trkpt lat="42.64834" lon="1.7022">
        <ele>1713.21</ele>
        <time>2014-05-10T05:41:13Z</time>
      </trkpt>
      <trkpt lat="42.64834" lon="1.70212">
        <ele>1712.25</ele>
        <time>2014-05-10T05:41:18Z</time>
      </trkpt>
      <trkpt lat="42.64833" lon="1.70208">
        <ele>1711.28</ele>
        <time>2014-05-10T05:41:22Z</time>
      </trkpt>
      <trkpt lat="42.64832" lon="1.70207">
        <ele>1710.8</ele>
        <time>2014-05-10T05:41:24Z</time>
      </trkpt>
      <trkpt lat="42.6482" lon="1.70204">
        <ele>1711.76</ele>
        <time>2014-05-10T05:41:38Z</time>
      </trkpt>
      <trkpt lat="42.64808" lon="1.70211">
        <ele>1713.21</ele>
        <time>2014-05-10T05:41:51Z</time>
      </trkpt>
      <trkpt lat="42.64805" lon="1.70212">
        <ele>1712.73</ele>
        <time>2014-05-10T05:41:54Z</time>
      </trkpt>
      <trkpt lat="42.64803" lon="1.70209">
        <ele>1711.76</ele>
        <time>2014-05-10T05:41:56Z</time>
      </trkpt>
      <trkpt lat="42.648" lon="1.70203">
        <ele>1711.76</ele>
        <time>2014-05-10T05:42:00Z</time>
      </trkpt>
      <trkpt lat="42.64798" lon="1.70198">
        <ele>1711.76</ele>
        <time>2014-05-10T05:42:03Z</time>
      </trkpt>
      <trkpt lat="42.64789" lon="1.70185">
        <ele>1711.28</ele>
        <time>2014-05-10T05:42:14Z</time>
      </trkpt>
      <trkpt lat="42.64787" lon="1.70179">
        <ele>1710.8</ele>
        <time>2014-05-10T05:42:18Z</time>
      </trkpt>
      <trkpt lat="42.64783" lon="1.70176">
        <ele>1712.25</ele>
        <time>2014-05-10T05:42:26Z</time>
      </trkpt>
      <trkpt lat="42.64777" lon="1.70165">
        <ele>1714.17</ele>
        <time>2014-05-10T05:42:36Z</time>
      </trkpt>
      <trkpt lat="42.64774" lon="1.70167">
        <ele>1713.69</ele>
        <time>2014-05-10T05:42:39Z</time>
      </trkpt>
      <trkpt lat="42.64773" lon="1.70167">
        <ele>1714.17</ele>
        <time>2014-05-10T05:42:41Z</time>
      </trkpt>
      <trkpt lat="42.64766" lon="1.70168">
        <ele>1714.65</ele>
        <time>2014-05-10T05:42:48Z</time>
      </trkpt>
      <trkpt lat="42.64764" lon="1.70163">
        <ele>1714.65</ele>
        <time>2014-05-10T05:42:54Z</time>
      </trkpt>
      <trkpt lat="42.6476" lon="1.70158">
        <ele>1714.17</ele>
        <time>2014-05-10T05:42:58Z</time>
      </trkpt>
      <trkpt lat="42.6476" lon="1.70156">
        <ele>1714.17</ele>
        <time>2014-05-10T05:43:00Z</time>
      </trkpt>
      <trkpt lat="42.64759" lon="1.70152">
        <ele>1713.69</ele>
        <time>2014-05-10T05:43:03Z</time>
      </trkpt>
      <trkpt lat="42.64757" lon="1.70152">
        <ele>1713.21</ele>
        <time>2014-05-10T05:43:07Z</time>
      </trkpt>
      <trkpt lat="42.64746" lon="1.70147">
        <ele>1713.69</ele>
        <time>2014-05-10T05:43:20Z</time>
      </trkpt>
      <trkpt lat="42.64733" lon="1.70139">
        <ele>1712.73</ele>
        <time>2014-05-10T05:43:32Z</time>
      </trkpt>
      <trkpt lat="42.64719" lon="1.70129">
        <ele>1709.36</ele>
        <time>2014-05-10T05:43:45Z</time>
      </trkpt>
      <trkpt lat="42.64709" lon="1.70127">
        <ele>1708.88</ele>
        <time>2014-05-10T05:43:58Z</time>
      </trkpt>
      <trkpt lat="42.647" lon="1.70128">
        <ele>1711.28</ele>
        <time>2014-05-10T05:44:07Z</time>
      </trkpt>
      <trkpt lat="42.64694" lon="1.70127">
        <ele>1712.25</ele>
        <time>2014-05-10T05:44:13Z</time>
      </trkpt>
      <trkpt lat="42.64688" lon="1.70129">
        <ele>1712.25</ele>
        <time>2014-05-10T05:44:19Z</time>
      </trkpt>
      <trkpt lat="42.6468" lon="1.70128">
        <ele>1714.17</ele>
        <time>2014-05-10T05:44:26Z</time>
      </trkpt>
      <trkpt lat="42.64675" lon="1.70126">
        <ele>1714.65</ele>
        <time>2014-05-10T05:44:32Z</time>
      </trkpt>
      <trkpt lat="42.64669" lon="1.70127">
        <ele>1715.13</ele>
        <time>2014-05-10T05:44:39Z</time>
      </trkpt>
      <trkpt lat="42.64666" lon="1.70129">
        <ele>1715.13</ele>
        <time>2014-05-10T05:44:42Z</time>
      </trkpt>
      <trkpt lat="42.64664" lon="1.7013">
        <ele>1715.61</ele>
        <time>2014-05-10T05:44:46Z</time>
      </trkpt>
      <trkpt lat="42.64652" lon="1.7014">
        <ele>1715.13</ele>
        <time>2014-05-10T05:44:59Z</time>
      </trkpt>
      <trkpt lat="42.64639" lon="1.70153">
        <ele>1717.53</ele>
        <time>2014-05-10T05:45:13Z</time>
      </trkpt>
      <trkpt lat="42.64635" lon="1.70157">
        <ele>1718.01</ele>
        <time>2014-05-10T05:45:19Z</time>
      </trkpt>
      <trkpt lat="42.64629" lon="1.7016">
        <ele>1718.49</ele>
        <time>2014-05-10T05:45:23Z</time>
      </trkpt>
      <trkpt lat="42.64624" lon="1.70163">
        <ele>1718.97</ele>
        <time>2014-05-10T05:45:27Z</time>
      </trkpt>
      <trkpt lat="42.64622" lon="1.70164">
        <ele>1719.46</ele>
        <time>2014-05-10T05:45:30Z</time>
      </trkpt>
      <trkpt lat="42.64617" lon="1.70163">
        <ele>1719.46</ele>
        <time>2014-05-10T05:45:34Z</time>
      </trkpt>
      <trkpt lat="42.64613" lon="1.70165">
        <ele>1718.97</ele>
        <time>2014-05-10T05:45:37Z</time>
      </trkpt>
      <trkpt lat="42.6461" lon="1.70168">
        <ele>1719.46</ele>
        <time>2014-05-10T05:45:41Z</time>
      </trkpt>
      <trkpt lat="42.64608" lon="1.7017">
        <ele>1720.42</ele>
        <time>2014-05-10T05:45:44Z</time>
      </trkpt>
      <trkpt lat="42.64606" lon="1.70172">
        <ele>1720.42</ele>
        <time>2014-05-10T05:45:46Z</time>
      </trkpt>
      <trkpt lat="42.64601" lon="1.70178">
        <ele>1721.86</ele>
        <time>2014-05-10T05:45:54Z</time>
      </trkpt>
      <trkpt lat="42.64598" lon="1.70182">
        <ele>1721.86</ele>
        <time>2014-05-10T05:45:58Z</time>
      </trkpt>
      <trkpt lat="42.64593" lon="1.70193">
        <ele>1723.3</ele>
        <time>2014-05-10T05:46:11Z</time>
      </trkpt>
      <trkpt lat="42.6459" lon="1.70196">
        <ele>1723.78</ele>
        <time>2014-05-10T05:46:15Z</time>
      </trkpt>
      <trkpt lat="42.64579" lon="1.70203">
        <ele>1725.22</ele>
        <time>2014-05-10T05:46:26Z</time>
      </trkpt>
      <trkpt lat="42.64575" lon="1.70203">
        <ele>1724.74</ele>
        <time>2014-05-10T05:46:32Z</time>
      </trkpt>
      <trkpt lat="42.64568" lon="1.70212">
        <ele>1724.26</ele>
        <time>2014-05-10T05:46:41Z</time>
      </trkpt>
      <trkpt lat="42.64567" lon="1.70214">
        <ele>1724.26</ele>
        <time>2014-05-10T05:46:43Z</time>
      </trkpt>
      <trkpt lat="42.64557" lon="1.70226">
        <ele>1725.22</ele>
        <time>2014-05-10T05:46:55Z</time>
      </trkpt>
      <trkpt lat="42.64553" lon="1.70227">
        <ele>1725.22</ele>
        <time>2014-05-10T05:47:01Z</time>
      </trkpt>
      <trkpt lat="42.64552" lon="1.7023">
        <ele>1726.18</ele>
        <time>2014-05-10T05:47:04Z</time>
      </trkpt>
      <trkpt lat="42.64548" lon="1.70236">
        <ele>1728.11</ele>
        <time>2014-05-10T05:47:12Z</time>
      </trkpt>
      <trkpt lat="42.64543" lon="1.70238">
        <ele>1728.11</ele>
        <time>2014-05-10T05:47:16Z</time>
      </trkpt>
      <trkpt lat="42.64538" lon="1.70244">
        <ele>1728.59</ele>
        <time>2014-05-10T05:47:23Z</time>
      </trkpt>
      <trkpt lat="42.64528" lon="1.70245">
        <ele>1729.07</ele>
        <time>2014-05-10T05:47:34Z</time>
      </trkpt>
      <trkpt lat="42.6452" lon="1.70249">
        <ele>1729.55</ele>
        <time>2014-05-10T05:47:43Z</time>
      </trkpt>
      <trkpt lat="42.64518" lon="1.70249">
        <ele>1728.59</ele>
        <time>2014-05-10T05:47:45Z</time>
      </trkpt>
      <trkpt lat="42.64507" lon="1.70256">
        <ele>1726.18</ele>
        <time>2014-05-10T05:47:57Z</time>
      </trkpt>
      <trkpt lat="42.64499" lon="1.70256">
        <ele>1727.15</ele>
        <time>2014-05-10T05:48:04Z</time>
      </trkpt>
      <trkpt lat="42.64494" lon="1.70255">
        <ele>1728.11</ele>
        <time>2014-05-10T05:48:11Z</time>
      </trkpt>
      <trkpt lat="42.64493" lon="1.70257">
        <ele>1728.59</ele>
        <time>2014-05-10T05:48:13Z</time>
      </trkpt>
      <trkpt lat="42.64489" lon="1.70259">
        <ele>1730.03</ele>
        <time>2014-05-10T05:48:18Z</time>
      </trkpt>
      <trkpt lat="42.64478" lon="1.70267">
        <ele>1732.91</ele>
        <time>2014-05-10T05:48:30Z</time>
      </trkpt>
      <trkpt lat="42.64467" lon="1.70271">
        <ele>1733.39</ele>
        <time>2014-05-10T05:48:41Z</time>
      </trkpt>
      <trkpt lat="42.64464" lon="1.7027">
        <ele>1733.39</ele>
        <time>2014-05-10T05:48:44Z</time>
      </trkpt>
      <trkpt lat="42.64451" lon="1.70261">
        <ele>1732.43</ele>
        <time>2014-05-10T05:48:58Z</time>
      </trkpt>
      <trkpt lat="42.64447" lon="1.7026">
        <ele>1732.43</ele>
        <time>2014-05-10T05:49:10Z</time>
      </trkpt>
      <trkpt lat="42.64443" lon="1.7026">
        <ele>1731.47</ele>
        <time>2014-05-10T05:49:25Z</time>
      </trkpt>
      <trkpt lat="42.64438" lon="1.70268">
        <ele>1730.99</ele>
        <time>2014-05-10T05:49:31Z</time>
      </trkpt>
      <trkpt lat="42.64429" lon="1.70275">
        <ele>1730.03</ele>
        <time>2014-05-10T05:49:41Z</time>
      </trkpt>
      <trkpt lat="42.64426" lon="1.70281">
        <ele>1730.03</ele>
        <time>2014-05-10T05:49:46Z</time>
      </trkpt>
      <trkpt lat="42.64421" lon="1.70283">
        <ele>1730.99</ele>
        <time>2014-05-10T05:49:51Z</time>
      </trkpt>
      <trkpt lat="42.64418" lon="1.70285">
        <ele>1731.47</ele>
        <time>2014-05-10T05:49:54Z</time>
      </trkpt>
      <trkpt lat="42.64402" lon="1.70282">
        <ele>1732.91</ele>
        <time>2014-05-10T05:50:07Z</time>
      </trkpt>
      <trkpt lat="42.64387" lon="1.70281">
        <ele>1733.88</ele>
        <time>2014-05-10T05:50:21Z</time>
      </trkpt>
      <trkpt lat="42.64378" lon="1.70279">
        <ele>1732.91</ele>
        <time>2014-05-10T05:50:32Z</time>
      </trkpt>
      <trkpt lat="42.64369" lon="1.70269">
        <ele>1732.43</ele>
        <time>2014-05-10T05:50:44Z</time>
      </trkpt>
      <trkpt lat="42.64363" lon="1.7026">
        <ele>1731.47</ele>
        <time>2014-05-10T05:50:57Z</time>
      </trkpt>
      <trkpt lat="42.64361" lon="1.70259">
        <ele>1730.99</ele>
        <time>2014-05-10T05:50:59Z</time>
      </trkpt>
      <trkpt lat="42.64341" lon="1.70264">
        <ele>1731.47</ele>
        <time>2014-05-10T05:51:14Z</time>
      </trkpt>
      <trkpt lat="42.64338" lon="1.70264">
        <ele>1731.95</ele>
        <time>2014-05-10T05:51:17Z</time>
      </trkpt>
      <trkpt lat="42.64331" lon="1.70258">
        <ele>1732.43</ele>
        <time>2014-05-10T05:51:31Z</time>
      </trkpt>
      <trkpt lat="42.64329" lon="1.70258">
        <ele>1733.88</ele>
        <time>2014-05-10T05:51:43Z</time>
      </trkpt>
      <trkpt lat="42.64317" lon="1.70263">
        <ele>1732.91</ele>
        <time>2014-05-10T05:51:49Z</time>
      </trkpt>
      <trkpt lat="42.64307" lon="1.70261">
        <ele>1733.39</ele>
        <time>2014-05-10T05:51:58Z</time>
      </trkpt>
      <trkpt lat="42.64294" lon="1.70261">
        <ele>1734.84</ele>
        <time>2014-05-10T05:52:11Z</time>
      </trkpt>
      <trkpt lat="42.64288" lon="1.7026">
        <ele>1734.36</ele>
        <time>2014-05-10T05:52:16Z</time>
      </trkpt>
      <trkpt lat="42.64284" lon="1.70257">
        <ele>1734.84</ele>
        <time>2014-05-10T05:52:21Z</time>
      </trkpt>
      <trkpt lat="42.64281" lon="1.70257">
        <ele>1735.8</ele>
        <time>2014-05-10T05:52:24Z</time>
      </trkpt>
      <trkpt lat="42.64267" lon="1.70254">
        <ele>1734.84</ele>
        <time>2014-05-10T05:52:39Z</time>
      </trkpt>
      <trkpt lat="42.64267" lon="1.70249">
        <ele>1735.8</ele>
        <time>2014-05-10T05:52:55Z</time>
      </trkpt>
      <trkpt lat="42.64265" lon="1.70247">
        <ele>1731.95</ele>
        <time>2014-05-10T05:53:02Z</time>
      </trkpt>
      <trkpt lat="42.64264" lon="1.70246">
        <ele>1731.47</ele>
        <time>2014-05-10T05:53:04Z</time>
      </trkpt>
      <trkpt lat="42.64253" lon="1.70244">
        <ele>1731.95</ele>
        <time>2014-05-10T05:53:15Z</time>
      </trkpt>
      <trkpt lat="42.64242" lon="1.70244">
        <ele>1733.88</ele>
        <time>2014-05-10T05:53:25Z</time>
      </trkpt>
      <trkpt lat="42.6424" lon="1.70243">
        <ele>1733.88</ele>
        <time>2014-05-10T05:53:27Z</time>
      </trkpt>
      <trkpt lat="42.64237" lon="1.70243">
        <ele>1734.84</ele>
        <time>2014-05-10T05:53:30Z</time>
      </trkpt>
      <trkpt lat="42.64229" lon="1.70243">
        <ele>1735.8</ele>
        <time>2014-05-10T05:53:42Z</time>
      </trkpt>
      <trkpt lat="42.64229" lon="1.70241">
        <ele>1735.8</ele>
        <time>2014-05-10T05:53:57Z</time>
      </trkpt>
      <trkpt lat="42.64226" lon="1.70237">
        <ele>1735.32</ele>
        <time>2014-05-10T05:54:06Z</time>
      </trkpt>
      <trkpt lat="42.64224" lon="1.70234">
        <ele>1734.36</ele>
        <time>2014-05-10T05:54:14Z</time>
      </trkpt>
      <trkpt lat="42.64222" lon="1.70231">
        <ele>1733.39</ele>
        <time>2014-05-10T05:54:26Z</time>
      </trkpt>
      <trkpt lat="42.6422" lon="1.70238">
        <ele>1740.6</ele>
        <time>2014-05-10T05:54:38Z</time>
      </trkpt>
      <trkpt lat="42.64221" lon="1.7024">
        <ele>1740.6</ele>
        <time>2014-05-10T05:54:46Z</time>
      </trkpt>
      <trkpt lat="42.64221" lon="1.70244">
        <ele>1739.64</ele>
        <time>2014-05-10T05:54:53Z</time>
      </trkpt>
      <trkpt lat="42.6422" lon="1.70239">
        <ele>1739.64</ele>
        <time>2014-05-10T05:54:56Z</time>
      </trkpt>
      <trkpt lat="42.64222" lon="1.70225">
        <ele>1733.88</ele>
        <time>2014-05-10T05:55:07Z</time>
      </trkpt>
      <trkpt lat="42.64222" lon="1.70225">
        <ele>1732.43</ele>
        <time>2014-05-10T05:55:11Z</time>
      </trkpt>
      <trkpt lat="42.64225" lon="1.70223">
        <ele>1732.43</ele>
        <time>2014-05-10T05:55:15Z</time>
      </trkpt>
      <trkpt lat="42.64227" lon="1.70229">
        <ele>1733.88</ele>
        <time>2014-05-10T05:55:20Z</time>
      </trkpt>
      <trkpt lat="42.64224" lon="1.70239">
        <ele>1736.28</ele>
        <time>2014-05-10T05:55:27Z</time>
      </trkpt>
      <trkpt lat="42.64223" lon="1.70243">
        <ele>1742.05</ele>
        <time>2014-05-10T05:55:37Z</time>
      </trkpt>
      <trkpt lat="42.64223" lon="1.70244">
        <ele>1742.05</ele>
        <time>2014-05-10T05:55:39Z</time>
      </trkpt>
      <trkpt lat="42.64219" lon="1.70251">
        <ele>1741.57</ele>
        <time>2014-05-10T05:55:53Z</time>
      </trkpt>
      <trkpt lat="42.64218" lon="1.70253">
        <ele>1740.12</ele>
        <time>2014-05-10T05:56:01Z</time>
      </trkpt>
      <trkpt lat="42.64215" lon="1.70257">
        <ele>1739.64</ele>
        <time>2014-05-10T05:56:05Z</time>
      </trkpt>
      <trkpt lat="42.6421" lon="1.70268">
        <ele>1739.64</ele>
        <time>2014-05-10T05:56:15Z</time>
      </trkpt>
      <trkpt lat="42.64208" lon="1.7027">
        <ele>1739.64</ele>
        <time>2014-05-10T05:56:19Z</time>
      </trkpt>
      <trkpt lat="42.64204" lon="1.70278">
        <ele>1740.12</ele>
        <time>2014-05-10T05:56:26Z</time>
      </trkpt>
      <trkpt lat="42.64199" lon="1.70284">
        <ele>1741.57</ele>
        <time>2014-05-10T05:56:34Z</time>
      </trkpt>
      <trkpt lat="42.64199" lon="1.70287">
        <ele>1742.53</ele>
        <time>2014-05-10T05:56:37Z</time>
      </trkpt>
      <trkpt lat="42.64191" lon="1.7029">
        <ele>1743.01</ele>
        <time>2014-05-10T05:56:48Z</time>
      </trkpt>
      <trkpt lat="42.64188" lon="1.7029">
        <ele>1743.49</ele>
        <time>2014-05-10T05:56:51Z</time>
      </trkpt>
      <trkpt lat="42.64183" lon="1.70292">
        <ele>1743.97</ele>
        <time>2014-05-10T05:56:56Z</time>
      </trkpt>
      <trkpt lat="42.64174" lon="1.70295">
        <ele>1743.49</ele>
        <time>2014-05-10T05:57:08Z</time>
      </trkpt>
      <trkpt lat="42.64167" lon="1.703">
        <ele>1743.01</ele>
        <time>2014-05-10T05:57:17Z</time>
      </trkpt>
      <trkpt lat="42.64166" lon="1.70301">
        <ele>1743.01</ele>
        <time>2014-05-10T05:57:19Z</time>
      </trkpt>
      <trkpt lat="42.64161" lon="1.70302">
        <ele>1743.01</ele>
        <time>2014-05-10T05:57:24Z</time>
      </trkpt>
      <trkpt lat="42.64159" lon="1.70304">
        <ele>1743.97</ele>
        <time>2014-05-10T05:57:26Z</time>
      </trkpt>
      <trkpt lat="42.64151" lon="1.7031">
        <ele>1744.45</ele>
        <time>2014-05-10T05:57:38Z</time>
      </trkpt>
      <trkpt lat="42.64148" lon="1.70319">
        <ele>1746.37</ele>
        <time>2014-05-10T05:57:45Z</time>
      </trkpt>
      <trkpt lat="42.64143" lon="1.70329">
        <ele>1746.85</ele>
        <time>2014-05-10T05:57:57Z</time>
      </trkpt>
      <trkpt lat="42.64143" lon="1.70338">
        <ele>1748.29</ele>
        <time>2014-05-10T05:58:03Z</time>
      </trkpt>
      <trkpt lat="42.64145" lon="1.70348">
        <ele>1748.29</ele>
        <time>2014-05-10T05:58:08Z</time>
      </trkpt>
      <trkpt lat="42.64145" lon="1.7035">
        <ele>1748.78</ele>
        <time>2014-05-10T05:58:10Z</time>
      </trkpt>
      <trkpt lat="42.64147" lon="1.70351">
        <ele>1748.78</ele>
        <time>2014-05-10T05:58:12Z</time>
      </trkpt>
      <trkpt lat="42.64149" lon="1.70358">
        <ele>1750.7</ele>
        <time>2014-05-10T05:58:24Z</time>
      </trkpt>
      <trkpt lat="42.64149" lon="1.70358">
        <ele>1750.7</ele>
        <time>2014-05-10T05:58:25Z</time>
      </trkpt>
      <trkpt lat="42.6415" lon="1.70357">
        <ele>1750.7</ele>
        <time>2014-05-10T05:58:37Z</time>
      </trkpt>
      <trkpt lat="42.64153" lon="1.70351">
        <ele>1749.74</ele>
        <time>2014-05-10T05:58:41Z</time>
      </trkpt>
      <trkpt lat="42.64155" lon="1.70346">
        <ele>1749.74</ele>
        <time>2014-05-10T05:58:44Z</time>
      </trkpt>
      <trkpt lat="42.64161" lon="1.70323">
        <ele>1745.89</ele>
        <time>2014-05-10T05:58:56Z</time>
      </trkpt>
      <trkpt lat="42.64165" lon="1.70317">
        <ele>1745.41</ele>
        <time>2014-05-10T05:59:00Z</time>
      </trkpt>
      <trkpt lat="42.64168" lon="1.70314">
        <ele>1743.97</ele>
        <time>2014-05-10T05:59:03Z</time>
      </trkpt>
      <trkpt lat="42.6418" lon="1.70306">
        <ele>1743.01</ele>
        <time>2014-05-10T05:59:12Z</time>
      </trkpt>
      <trkpt lat="42.64186" lon="1.70309">
        <ele>1743.97</ele>
        <time>2014-05-10T05:59:17Z</time>
      </trkpt>
      <trkpt lat="42.64194" lon="1.703">
        <ele>1744.45</ele>
        <time>2014-05-10T05:59:27Z</time>
      </trkpt>
      <trkpt lat="42.64207" lon="1.70287">
        <ele>1745.41</ele>
        <time>2014-05-10T05:59:38Z</time>
      </trkpt>
      <trkpt lat="42.64209" lon="1.70282">
        <ele>1744.45</ele>
        <time>2014-05-10T05:59:41Z</time>
      </trkpt>
      <trkpt lat="42.64223" lon="1.70261">
        <ele>1740.12</ele>
        <time>2014-05-10T05:59:55Z</time>
      </trkpt>
      <trkpt lat="42.64233" lon="1.70256">
        <ele>1738.2</ele>
        <time>2014-05-10T06:00:02Z</time>
      </trkpt>
      <trkpt lat="42.64237" lon="1.70254">
        <ele>1737.72</ele>
        <time>2014-05-10T06:00:05Z</time>
      </trkpt>
      <trkpt lat="42.64241" lon="1.7025">
        <ele>1737.24</ele>
        <time>2014-05-10T06:00:09Z</time>
      </trkpt>
      <trkpt lat="42.64246" lon="1.70251">
        <ele>1737.24</ele>
        <time>2014-05-10T06:00:13Z</time>
      </trkpt>
      <trkpt lat="42.64258" lon="1.70251">
        <ele>1735.8</ele>
        <time>2014-05-10T06:00:20Z</time>
      </trkpt>
      <trkpt lat="42.64267" lon="1.70256">
        <ele>1734.36</ele>
        <time>2014-05-10T06:00:27Z</time>
      </trkpt>
      <trkpt lat="42.64273" lon="1.70255">
        <ele>1733.88</ele>
        <time>2014-05-10T06:00:32Z</time>
      </trkpt>
      <trkpt lat="42.64281" lon="1.70256">
        <ele>1733.88</ele>
        <time>2014-05-10T06:00:37Z</time>
      </trkpt>
      <trkpt lat="42.64284" lon="1.70258">
        <ele>1734.36</ele>
        <time>2014-05-10T06:00:39Z</time>
      </trkpt>
      <trkpt lat="42.64289" lon="1.7026">
        <ele>1734.36</ele>
        <time>2014-05-10T06:00:43Z</time>
      </trkpt>
      <trkpt lat="42.64291" lon="1.7026">
        <ele>1734.84</ele>
        <time>2014-05-10T06:00:45Z</time>
      </trkpt>
      <trkpt lat="42.64296" lon="1.7026">
        <ele>1734.36</ele>
        <time>2014-05-10T06:00:49Z</time>
      </trkpt>
      <trkpt lat="42.64297" lon="1.70256">
        <ele>1734.36</ele>
        <time>2014-05-10T06:00:53Z</time>
      </trkpt>
      <trkpt lat="42.64296" lon="1.70253">
        <ele>1734.36</ele>
        <time>2014-05-10T06:00:56Z</time>
      </trkpt>
      <trkpt lat="42.64298" lon="1.70253">
        <ele>1734.36</ele>
        <time>2014-05-10T06:01:01Z</time>
      </trkpt>
      <trkpt lat="42.64307" lon="1.70255">
        <ele>1733.39</ele>
        <time>2014-05-10T06:01:08Z</time>
      </trkpt>
      <trkpt lat="42.64326" lon="1.70249">
        <ele>1736.76</ele>
        <time>2014-05-10T06:01:23Z</time>
      </trkpt>
      <trkpt lat="42.64326" lon="1.70248">
        <ele>1736.28</ele>
        <time>2014-05-10T06:01:24Z</time>
      </trkpt>
      <trkpt lat="42.64339" lon="1.70248">
        <ele>1735.8</ele>
        <time>2014-05-10T06:01:34Z</time>
      </trkpt>
      <trkpt lat="42.64354" lon="1.70248">
        <ele>1735.32</ele>
        <time>2014-05-10T06:01:45Z</time>
      </trkpt>
      <trkpt lat="42.6436" lon="1.70248">
        <ele>1734.84</ele>
        <time>2014-05-10T06:01:50Z</time>
      </trkpt>
      <trkpt lat="42.64363" lon="1.70247">
        <ele>1735.32</ele>
        <time>2014-05-10T06:01:53Z</time>
      </trkpt>
      <trkpt lat="42.64377" lon="1.70243">
        <ele>1734.84</ele>
        <time>2014-05-10T06:02:07Z</time>
      </trkpt>
      <trkpt lat="42.64378" lon="1.70243">
        <ele>1734.84</ele>
        <time>2014-05-10T06:02:08Z</time>
      </trkpt>
      <trkpt lat="42.64382" lon="1.7025">
        <ele>1733.88</ele>
        <time>2014-05-10T06:02:19Z</time>
      </trkpt>
      <trkpt lat="42.64392" lon="1.70257">
        <ele>1731.95</ele>
        <time>2014-05-10T06:02:29Z</time>
      </trkpt>
      <trkpt lat="42.64396" lon="1.70259">
        <ele>1731.95</ele>
        <time>2014-05-10T06:02:32Z</time>
      </trkpt>
      <trkpt lat="42.64405" lon="1.70262">
        <ele>1731.47</ele>
        <time>2014-05-10T06:02:38Z</time>
      </trkpt>
      <trkpt lat="42.6441" lon="1.70263">
        <ele>1730.99</ele>
        <time>2014-05-10T06:02:44Z</time>
      </trkpt>
      <trkpt lat="42.64416" lon="1.70267">
        <ele>1730.03</ele>
        <time>2014-05-10T06:02:51Z</time>
      </trkpt>
      <trkpt lat="42.64424" lon="1.70264">
        <ele>1730.99</ele>
        <time>2014-05-10T06:03:02Z</time>
      </trkpt>
      <trkpt lat="42.64425" lon="1.70264">
        <ele>1731.47</ele>
        <time>2014-05-10T06:03:10Z</time>
      </trkpt>
      <trkpt lat="42.64431" lon="1.70259">
        <ele>1731.47</ele>
        <time>2014-05-10T06:03:16Z</time>
      </trkpt>
      <trkpt lat="42.64432" lon="1.70257">
        <ele>1731.47</ele>
        <time>2014-05-10T06:03:17Z</time>
      </trkpt>
      <trkpt lat="42.64433" lon="1.70256">
        <ele>1731.47</ele>
        <time>2014-05-10T06:03:18Z</time>
      </trkpt>
      <trkpt lat="42.64434" lon="1.70255">
        <ele>1731.47</ele>
        <time>2014-05-10T06:03:19Z</time>
      </trkpt>
      <trkpt lat="42.64435" lon="1.70254">
        <ele>1730.99</ele>
        <time>2014-05-10T06:03:20Z</time>
      </trkpt>
      <trkpt lat="42.64436" lon="1.70253">
        <ele>1730.99</ele>
        <time>2014-05-10T06:03:21Z</time>
      </trkpt>
      <trkpt lat="42.64437" lon="1.70253">
        <ele>1730.99</ele>
        <time>2014-05-10T06:03:22Z</time>
      </trkpt>
      <trkpt lat="42.64439" lon="1.70251">
        <ele>1730.51</ele>
        <time>2014-05-10T06:03:23Z</time>
      </trkpt>
      <trkpt lat="42.6444" lon="1.70249">
        <ele>1730.51</ele>
        <time>2014-05-10T06:03:24Z</time>
      </trkpt>
      <trkpt lat="42.6444" lon="1.70248">
        <ele>1730.51</ele>
        <time>2014-05-10T06:03:25Z</time>
      </trkpt>
      <trkpt lat="42.64442" lon="1.70247">
        <ele>1730.03</ele>
        <time>2014-05-10T06:03:26Z</time>
      </trkpt>
      <trkpt lat="42.64442" lon="1.70246">
        <ele>1730.03</ele>
        <time>2014-05-10T06:03:27Z</time>
      </trkpt>
      <trkpt lat="42.64444" lon="1.70244">
        <ele>1730.03</ele>
        <time>2014-05-10T06:03:28Z</time>
      </trkpt>
      <trkpt lat="42.64445" lon="1.70243">
        <ele>1730.03</ele>
        <time>2014-05-10T06:03:29Z</time>
      </trkpt>
      <trkpt lat="42.64449" lon="1.70238">
        <ele>1730.03</ele>
        <time>2014-05-10T06:03:32Z</time>
      </trkpt>
      <trkpt lat="42.64451" lon="1.70236">
        <ele>1729.55</ele>
        <time>2014-05-10T06:03:34Z</time>
      </trkpt>
      <trkpt lat="42.64467" lon="1.70235">
        <ele>1729.55</ele>
        <time>2014-05-10T06:03:45Z</time>
      </trkpt>
      <trkpt lat="42.6447" lon="1.7024">
        <ele>1729.55</ele>
        <time>2014-05-10T06:03:48Z</time>
      </trkpt>
      <trkpt lat="42.64474" lon="1.70242">
        <ele>1729.07</ele>
        <time>2014-05-10T06:03:52Z</time>
      </trkpt>
      <trkpt lat="42.64481" lon="1.70243">
        <ele>1727.63</ele>
        <time>2014-05-10T06:03:58Z</time>
      </trkpt>
      <trkpt lat="42.64491" lon="1.70234">
        <ele>1729.07</ele>
        <time>2014-05-10T06:04:10Z</time>
      </trkpt>
      <trkpt lat="42.64494" lon="1.70229">
        <ele>1729.55</ele>
        <time>2014-05-10T06:04:14Z</time>
      </trkpt>
      <trkpt lat="42.64504" lon="1.70229">
        <ele>1725.7</ele>
        <time>2014-05-10T06:04:21Z</time>
      </trkpt>
      <trkpt lat="42.64514" lon="1.70229">
        <ele>1727.15</ele>
        <time>2014-05-10T06:04:28Z</time>
      </trkpt>
      <trkpt lat="42.6452" lon="1.70227">
        <ele>1727.15</ele>
        <time>2014-05-10T06:04:33Z</time>
      </trkpt>
      <trkpt lat="42.64537" lon="1.70226">
        <ele>1723.78</ele>
        <time>2014-05-10T06:04:45Z</time>
      </trkpt>
      <trkpt lat="42.64543" lon="1.70226">
        <ele>1723.3</ele>
        <time>2014-05-10T06:04:51Z</time>
      </trkpt>
      <trkpt lat="42.64546" lon="1.70228">
        <ele>1722.82</ele>
        <time>2014-05-10T06:04:55Z</time>
      </trkpt>
      <trkpt lat="42.6455" lon="1.70223">
        <ele>1723.3</ele>
        <time>2014-05-10T06:05:01Z</time>
      </trkpt>
      <trkpt lat="42.64549" lon="1.70222">
        <ele>1720.42</ele>
        <time>2014-05-10T06:05:03Z</time>
      </trkpt>
      <trkpt lat="42.64552" lon="1.70222">
        <ele>1718.97</ele>
        <time>2014-05-10T06:05:08Z</time>
      </trkpt>
      <trkpt lat="42.64554" lon="1.70221">
        <ele>1718.01</ele>
        <time>2014-05-10T06:05:11Z</time>
      </trkpt>
      <trkpt lat="42.64557" lon="1.70212">
        <ele>1718.01</ele>
        <time>2014-05-10T06:05:16Z</time>
      </trkpt>
      <trkpt lat="42.64563" lon="1.702">
        <ele>1714.65</ele>
        <time>2014-05-10T06:05:23Z</time>
      </trkpt>
      <trkpt lat="42.64572" lon="1.7019">
        <ele>1712.25</ele>
        <time>2014-05-10T06:05:31Z</time>
      </trkpt>
      <trkpt lat="42.64579" lon="1.70185">
        <ele>1711.28</ele>
        <time>2014-05-10T06:05:38Z</time>
      </trkpt>
      <trkpt lat="42.64581" lon="1.70185">
        <ele>1710.8</ele>
        <time>2014-05-10T06:05:41Z</time>
      </trkpt>
      <trkpt lat="42.6459" lon="1.7018">
        <ele>1711.28</ele>
        <time>2014-05-10T06:05:50Z</time>
      </trkpt>
      <trkpt lat="42.64594" lon="1.7018">
        <ele>1709.84</ele>
        <time>2014-05-10T06:05:54Z</time>
      </trkpt>
      <trkpt lat="42.64596" lon="1.70176">
        <ele>1708.88</ele>
        <time>2014-05-10T06:05:58Z</time>
      </trkpt>
      <trkpt lat="42.64601" lon="1.70168">
        <ele>1710.32</ele>
        <time>2014-05-10T06:06:06Z</time>
      </trkpt>
      <trkpt lat="42.64611" lon="1.70153">
        <ele>1707.44</ele>
        <time>2014-05-10T06:06:17Z</time>
      </trkpt>
      <trkpt lat="42.64623" lon="1.70144">
        <ele>1708.4</ele>
        <time>2014-05-10T06:06:27Z</time>
      </trkpt>
      <trkpt lat="42.64625" lon="1.70143">
        <ele>1707.92</ele>
        <time>2014-05-10T06:06:29Z</time>
      </trkpt>
      <trkpt lat="42.64641" lon="1.70131">
        <ele>1710.32</ele>
        <time>2014-05-10T06:06:42Z</time>
      </trkpt>
      <trkpt lat="42.64655" lon="1.70121">
        <ele>1708.4</ele>
        <time>2014-05-10T06:06:53Z</time>
      </trkpt>
      <trkpt lat="42.64662" lon="1.70123">
        <ele>1707.44</ele>
        <time>2014-05-10T06:06:58Z</time>
      </trkpt>
      <trkpt lat="42.64667" lon="1.7012">
        <ele>1707.92</ele>
        <time>2014-05-10T06:07:02Z</time>
      </trkpt>
      <trkpt lat="42.64676" lon="1.70117">
        <ele>1707.44</ele>
        <time>2014-05-10T06:07:08Z</time>
      </trkpt>
      <trkpt lat="42.64695" lon="1.70109">
        <ele>1709.84</ele>
        <time>2014-05-10T06:07:23Z</time>
      </trkpt>
      <trkpt lat="42.64698" lon="1.70107">
        <ele>1708.88</ele>
        <time>2014-05-10T06:07:25Z</time>
      </trkpt>
      <trkpt lat="42.64701" lon="1.70101">
        <ele>1708.4</ele>
        <time>2014-05-10T06:07:29Z</time>
      </trkpt>
      <trkpt lat="42.64718" lon="1.70108">
        <ele>1709.84</ele>
        <time>2014-05-10T06:07:41Z</time>
      </trkpt>
      <trkpt lat="42.6473" lon="1.70117">
        <ele>1709.36</ele>
        <time>2014-05-10T06:07:51Z</time>
      </trkpt>
      <trkpt lat="42.64746" lon="1.70138">
        <ele>1709.36</ele>
        <time>2014-05-10T06:08:06Z</time>
      </trkpt>
      <trkpt lat="42.64756" lon="1.70153">
        <ele>1706.48</ele>
        <time>2014-05-10T06:08:15Z</time>
      </trkpt>
      <trkpt lat="42.64769" lon="1.70162">
        <ele>1703.11</ele>
        <time>2014-05-10T06:08:25Z</time>
      </trkpt>
      <trkpt lat="42.64783" lon="1.70164">
        <ele>1702.15</ele>
        <time>2014-05-10T06:08:35Z</time>
      </trkpt>
      <trkpt lat="42.64798" lon="1.70176">
        <ele>1704.07</ele>
        <time>2014-05-10T06:08:48Z</time>
      </trkpt>
      <trkpt lat="42.64802" lon="1.70179">
        <ele>1704.07</ele>
        <time>2014-05-10T06:08:51Z</time>
      </trkpt>
      <trkpt lat="42.64806" lon="1.70185">
        <ele>1703.59</ele>
        <time>2014-05-10T06:08:55Z</time>
      </trkpt>
      <trkpt lat="42.64811" lon="1.70192">
        <ele>1704.07</ele>
        <time>2014-05-10T06:09:04Z</time>
      </trkpt>
      <trkpt lat="42.64812" lon="1.70193">
        <ele>1703.59</ele>
        <time>2014-05-10T06:09:05Z</time>
      </trkpt>
      <trkpt lat="42.64816" lon="1.70203">
        <ele>1703.11</ele>
        <time>2014-05-10T06:09:19Z</time>
      </trkpt>
      <trkpt lat="42.64821" lon="1.7021">
        <ele>1704.55</ele>
        <time>2014-05-10T06:09:28Z</time>
      </trkpt>
      <trkpt lat="42.64837" lon="1.7021">
        <ele>1701.19</ele>
        <time>2014-05-10T06:09:40Z</time>
      </trkpt>
      <trkpt lat="42.6484" lon="1.7022">
        <ele>1698.31</ele>
        <time>2014-05-10T06:09:45Z</time>
      </trkpt>
      <trkpt lat="42.64841" lon="1.7023">
        <ele>1698.31</ele>
        <time>2014-05-10T06:09:51Z</time>
      </trkpt>
      <trkpt lat="42.64848" lon="1.70255">
        <ele>1699.75</ele>
        <time>2014-05-10T06:10:06Z</time>
      </trkpt>
      <trkpt lat="42.64856" lon="1.7027">
        <ele>1699.75</ele>
        <time>2014-05-10T06:10:17Z</time>
      </trkpt>
      <trkpt lat="42.64865" lon="1.70283">
        <ele>1700.23</ele>
        <time>2014-05-10T06:10:28Z</time>
      </trkpt>
      <trkpt lat="42.64879" lon="1.7029">
        <ele>1701.19</ele>
        <time>2014-05-10T06:10:40Z</time>
      </trkpt>
      <trkpt lat="42.64893" lon="1.70292">
        <ele>1702.15</ele>
        <time>2014-05-10T06:10:52Z</time>
      </trkpt>
      <trkpt lat="42.64897" lon="1.70293">
        <ele>1701.67</ele>
        <time>2014-05-10T06:10:56Z</time>
      </trkpt>
      <trkpt lat="42.64911" lon="1.70295">
        <ele>1701.19</ele>
        <time>2014-05-10T06:11:06Z</time>
      </trkpt>
      <trkpt lat="42.64926" lon="1.70305">
        <ele>1698.31</ele>
        <time>2014-05-10T06:11:18Z</time>
      </trkpt>
      <trkpt lat="42.64926" lon="1.70308">
        <ele>1698.31</ele>
        <time>2014-05-10T06:11:20Z</time>
      </trkpt>
      <trkpt lat="42.64933" lon="1.70312">
        <ele>1699.27</ele>
        <time>2014-05-10T06:11:32Z</time>
      </trkpt>
      <trkpt lat="42.64934" lon="1.70311">
        <ele>1700.23</ele>
        <time>2014-05-10T06:11:33Z</time>
      </trkpt>
      <trkpt lat="42.64938" lon="1.70312">
        <ele>1700.23</ele>
        <time>2014-05-10T06:11:37Z</time>
      </trkpt>
      <trkpt lat="42.64948" lon="1.70313">
        <ele>1698.31</ele>
        <time>2014-05-10T06:11:45Z</time>
      </trkpt>
      <trkpt lat="42.64951" lon="1.70311">
        <ele>1698.79</ele>
        <time>2014-05-10T06:11:47Z</time>
      </trkpt>
      <trkpt lat="42.64954" lon="1.70305">
        <ele>1698.79</ele>
        <time>2014-05-10T06:11:51Z</time>
      </trkpt>
      <trkpt lat="42.64957" lon="1.70296">
        <ele>1698.31</ele>
        <time>2014-05-10T06:11:56Z</time>
      </trkpt>
      <trkpt lat="42.64949" lon="1.70294">
        <ele>1697.34</ele>
        <time>2014-05-10T06:12:06Z</time>
      </trkpt>
      <trkpt lat="42.64946" lon="1.70294">
        <ele>1697.83</ele>
        <time>2014-05-10T06:12:09Z</time>
      </trkpt>
      <trkpt lat="42.64941" lon="1.70282">
        <ele>1699.27</ele>
        <time>2014-05-10T06:12:17Z</time>
      </trkpt>
      <trkpt lat="42.64939" lon="1.70273">
        <ele>1698.31</ele>
        <time>2014-05-10T06:12:22Z</time>
      </trkpt>
      <trkpt lat="42.64935" lon="1.70273">
        <ele>1698.79</ele>
        <time>2014-05-10T06:12:25Z</time>
      </trkpt>
      <trkpt lat="42.64933" lon="1.70266">
        <ele>1699.27</ele>
        <time>2014-05-10T06:12:30Z</time>
      </trkpt>
      <trkpt lat="42.64933" lon="1.70262">
        <ele>1699.27</ele>
        <time>2014-05-10T06:12:32Z</time>
      </trkpt>
      <trkpt lat="42.6493" lon="1.70259">
        <ele>1700.71</ele>
        <time>2014-05-10T06:12:35Z</time>
      </trkpt>
      <trkpt lat="42.6493" lon="1.7025">
        <ele>1701.67</ele>
        <time>2014-05-10T06:12:42Z</time>
      </trkpt>
      <trkpt lat="42.64927" lon="1.70247">
        <ele>1700.23</ele>
        <time>2014-05-10T06:12:45Z</time>
      </trkpt>
      <trkpt lat="42.64926" lon="1.70245">
        <ele>1698.79</ele>
        <time>2014-05-10T06:12:48Z</time>
      </trkpt>
      <trkpt lat="42.64916" lon="1.70225">
        <ele>1700.23</ele>
        <time>2014-05-10T06:13:02Z</time>
      </trkpt>
      <trkpt lat="42.64914" lon="1.70216">
        <ele>1701.19</ele>
        <time>2014-05-10T06:13:07Z</time>
      </trkpt>
      <trkpt lat="42.64912" lon="1.70212">
        <ele>1701.19</ele>
        <time>2014-05-10T06:13:10Z</time>
      </trkpt>
      <trkpt lat="42.649" lon="1.70192">
        <ele>1703.11</ele>
        <time>2014-05-10T06:13:25Z</time>
      </trkpt>
      <trkpt lat="42.64894" lon="1.70184">
        <ele>1703.59</ele>
        <time>2014-05-10T06:13:31Z</time>
      </trkpt>
      <trkpt lat="42.64885" lon="1.70176">
        <ele>1703.59</ele>
        <time>2014-05-10T06:13:40Z</time>
      </trkpt>
      <trkpt lat="42.64885" lon="1.70167">
        <ele>1703.59</ele>
        <time>2014-05-10T06:13:45Z</time>
      </trkpt>
      <trkpt lat="42.64884" lon="1.70163">
        <ele>1705.52</ele>
        <time>2014-05-10T06:13:49Z</time>
      </trkpt>
      <trkpt lat="42.64877" lon="1.70152">
        <ele>1706.48</ele>
        <time>2014-05-10T06:13:57Z</time>
      </trkpt>
      <trkpt lat="42.64872" lon="1.70146">
        <ele>1708.4</ele>
        <time>2014-05-10T06:14:03Z</time>
      </trkpt>
      <trkpt lat="42.64869" lon="1.7014">
        <ele>1709.84</ele>
        <time>2014-05-10T06:14:08Z</time>
      </trkpt>
      <trkpt lat="42.64865" lon="1.70128">
        <ele>1709.36</ele>
        <time>2014-05-10T06:14:16Z</time>
      </trkpt>
      <trkpt lat="42.64865" lon="1.70122">
        <ele>1707.92</ele>
        <time>2014-05-10T06:14:20Z</time>
      </trkpt>
      <trkpt lat="42.64857" lon="1.7012">
        <ele>1707.44</ele>
        <time>2014-05-10T06:14:25Z</time>
      </trkpt>
      <trkpt lat="42.64853" lon="1.70113">
        <ele>1707.44</ele>
        <time>2014-05-10T06:14:30Z</time>
      </trkpt>
      <trkpt lat="42.64851" lon="1.70109">
        <ele>1707.92</ele>
        <time>2014-05-10T06:14:33Z</time>
      </trkpt>
      <trkpt lat="42.64845" lon="1.70102">
        <ele>1707.44</ele>
        <time>2014-05-10T06:14:44Z</time>
      </trkpt>
      <trkpt lat="42.6484" lon="1.70097">
        <ele>1706.96</ele>
        <time>2014-05-10T06:14:54Z</time>
      </trkpt>
      <trkpt lat="42.64838" lon="1.70094">
        <ele>1706</ele>
        <time>2014-05-10T06:14:57Z</time>
      </trkpt>
      <trkpt lat="42.64832" lon="1.70092">
        <ele>1706</ele>
        <time>2014-05-10T06:15:04Z</time>
      </trkpt>
      <trkpt lat="42.64829" lon="1.70084">
        <ele>1705.04</ele>
        <time>2014-05-10T06:15:13Z</time>
      </trkpt>
      <trkpt lat="42.64829" lon="1.70078">
        <ele>1705.04</ele>
        <time>2014-05-10T06:15:19Z</time>
      </trkpt>
      <trkpt lat="42.64821" lon="1.70073">
        <ele>1706</ele>
        <time>2014-05-10T06:15:32Z</time>
      </trkpt>
      <trkpt lat="42.64817" lon="1.70072">
        <ele>1706.48</ele>
        <time>2014-05-10T06:15:38Z</time>
      </trkpt>
      <trkpt lat="42.64813" lon="1.7007">
        <ele>1707.92</ele>
        <time>2014-05-10T06:15:44Z</time>
      </trkpt>
      <trkpt lat="42.64804" lon="1.7007">
        <ele>1708.4</ele>
        <time>2014-05-10T06:15:56Z</time>
      </trkpt>
      <trkpt lat="42.64793" lon="1.70062">
        <ele>1708.4</ele>
        <time>2014-05-10T06:16:08Z</time>
      </trkpt>
      <trkpt lat="42.6479" lon="1.70059">
        <ele>1708.88</ele>
        <time>2014-05-10T06:16:12Z</time>
      </trkpt>
      <trkpt lat="42.64789" lon="1.70057">
        <ele>1708.88</ele>
        <time>2014-05-10T06:16:14Z</time>
      </trkpt>
      <trkpt lat="42.64787" lon="1.70058">
        <ele>1708.88</ele>
        <time>2014-05-10T06:16:17Z</time>
      </trkpt>
      <trkpt lat="42.64783" lon="1.70054">
        <ele>1708.88</ele>
        <time>2014-05-10T06:16:21Z</time>
      </trkpt>
      <trkpt lat="42.64781" lon="1.70056">
        <ele>1709.84</ele>
        <time>2014-05-10T06:16:24Z</time>
      </trkpt>
      <trkpt lat="42.6477" lon="1.70054">
        <ele>1712.73</ele>
        <time>2014-05-10T06:16:37Z</time>
      </trkpt>
      <trkpt lat="42.6476" lon="1.70053">
        <ele>1714.17</ele>
        <time>2014-05-10T06:16:48Z</time>
      </trkpt>
      <trkpt lat="42.64755" lon="1.70053">
        <ele>1715.13</ele>
        <time>2014-05-10T06:16:52Z</time>
      </trkpt>
      <trkpt lat="42.64748" lon="1.70052">
        <ele>1715.13</ele>
        <time>2014-05-10T06:16:58Z</time>
      </trkpt>
      <trkpt lat="42.64737" lon="1.70052">
        <ele>1715.13</ele>
        <time>2014-05-10T06:17:08Z</time>
      </trkpt>
      <trkpt lat="42.64717" lon="1.70054">
        <ele>1714.65</ele>
        <time>2014-05-10T06:17:24Z</time>
      </trkpt>
      <trkpt lat="42.64707" lon="1.70054">
        <ele>1713.21</ele>
        <time>2014-05-10T06:17:32Z</time>
      </trkpt>
      <trkpt lat="42.64702" lon="1.70052">
        <ele>1712.25</ele>
        <time>2014-05-10T06:17:36Z</time>
      </trkpt>
      <trkpt lat="42.64689" lon="1.70045">
        <ele>1711.76</ele>
        <time>2014-05-10T06:17:47Z</time>
      </trkpt>
      <trkpt lat="42.64682" lon="1.70046">
        <ele>1713.21</ele>
        <time>2014-05-10T06:17:54Z</time>
      </trkpt>
      <trkpt lat="42.64663" lon="1.70044">
        <ele>1712.25</ele>
        <time>2014-05-10T06:18:09Z</time>
      </trkpt>
      <trkpt lat="42.64649" lon="1.70036">
        <ele>1712.25</ele>
        <time>2014-05-10T06:18:22Z</time>
      </trkpt>
      <trkpt lat="42.64643" lon="1.70037">
        <ele>1711.76</ele>
        <time>2014-05-10T06:18:34Z</time>
      </trkpt>
      <trkpt lat="42.64639" lon="1.70037">
        <ele>1710.8</ele>
        <time>2014-05-10T06:18:39Z</time>
      </trkpt>
      <trkpt lat="42.64637" lon="1.70042">
        <ele>1711.28</ele>
        <time>2014-05-10T06:18:44Z</time>
      </trkpt>
      <trkpt lat="42.64632" lon="1.70043">
        <ele>1711.28</ele>
        <time>2014-05-10T06:18:49Z</time>
      </trkpt>
      <trkpt lat="42.64629" lon="1.70041">
        <ele>1711.28</ele>
        <time>2014-05-10T06:18:52Z</time>
      </trkpt>
      <trkpt lat="42.64624" lon="1.70043">
        <ele>1712.25</ele>
        <time>2014-05-10T06:18:58Z</time>
      </trkpt>
      <trkpt lat="42.64624" lon="1.70047">
        <ele>1711.76</ele>
        <time>2014-05-10T06:19:01Z</time>
      </trkpt>
      <trkpt lat="42.64621" lon="1.70052">
        <ele>1711.76</ele>
        <time>2014-05-10T06:19:07Z</time>
      </trkpt>
      <trkpt lat="42.64619" lon="1.7005">
        <ele>1710.8</ele>
        <time>2014-05-10T06:19:22Z</time>
      </trkpt>
      <trkpt lat="42.6462" lon="1.70053">
        <ele>1711.76</ele>
        <time>2014-05-10T06:19:34Z</time>
      </trkpt>
      <trkpt lat="42.64615" lon="1.70056">
        <ele>1709.84</ele>
        <time>2014-05-10T06:19:43Z</time>
      </trkpt>
      <trkpt lat="42.64602" lon="1.70058">
        <ele>1712.73</ele>
        <time>2014-05-10T06:19:55Z</time>
      </trkpt>
      <trkpt lat="42.64595" lon="1.70055">
        <ele>1713.69</ele>
        <time>2014-05-10T06:20:07Z</time>
      </trkpt>
      <trkpt lat="42.64585" lon="1.70056">
        <ele>1717.53</ele>
        <time>2014-05-10T06:20:16Z</time>
      </trkpt>
      <trkpt lat="42.64577" lon="1.70057">
        <ele>1717.53</ele>
        <time>2014-05-10T06:20:22Z</time>
      </trkpt>
      <trkpt lat="42.64571" lon="1.70059">
        <ele>1718.49</ele>
        <time>2014-05-10T06:20:27Z</time>
      </trkpt>
      <trkpt lat="42.64556" lon="1.7006">
        <ele>1718.97</ele>
        <time>2014-05-10T06:20:41Z</time>
      </trkpt>
      <trkpt lat="42.64556" lon="1.70058">
        <ele>1719.46</ele>
        <time>2014-05-10T06:20:47Z</time>
      </trkpt>
      <trkpt lat="42.64536" lon="1.70055">
        <ele>1720.42</ele>
        <time>2014-05-10T06:21:02Z</time>
      </trkpt>
      <trkpt lat="42.64533" lon="1.70054">
        <ele>1720.9</ele>
        <time>2014-05-10T06:21:05Z</time>
      </trkpt>
      <trkpt lat="42.64527" lon="1.70055">
        <ele>1721.38</ele>
        <time>2014-05-10T06:21:11Z</time>
      </trkpt>
      <trkpt lat="42.64523" lon="1.70052">
        <ele>1720.9</ele>
        <time>2014-05-10T06:21:15Z</time>
      </trkpt>
      <trkpt lat="42.64514" lon="1.70048">
        <ele>1719.94</ele>
        <time>2014-05-10T06:21:23Z</time>
      </trkpt>
      <trkpt lat="42.64513" lon="1.70048">
        <ele>1720.9</ele>
        <time>2014-05-10T06:21:25Z</time>
      </trkpt>
      <trkpt lat="42.64507" lon="1.70042">
        <ele>1721.38</ele>
        <time>2014-05-10T06:21:31Z</time>
      </trkpt>
      <trkpt lat="42.64504" lon="1.70042">
        <ele>1720.9</ele>
        <time>2014-05-10T06:21:34Z</time>
      </trkpt>
      <trkpt lat="42.64495" lon="1.70037">
        <ele>1720.9</ele>
        <time>2014-05-10T06:21:44Z</time>
      </trkpt>
      <trkpt lat="42.64487" lon="1.70034">
        <ele>1720.9</ele>
        <time>2014-05-10T06:21:51Z</time>
      </trkpt>
      <trkpt lat="42.64477" lon="1.70038">
        <ele>1721.38</ele>
        <time>2014-05-10T06:22:00Z</time>
      </trkpt>
      <trkpt lat="42.64466" lon="1.70035">
        <ele>1722.82</ele>
        <time>2014-05-10T06:22:12Z</time>
      </trkpt>
      <trkpt lat="42.64455" lon="1.7003">
        <ele>1723.3</ele>
        <time>2014-05-10T06:22:22Z</time>
      </trkpt>
      <trkpt lat="42.64454" lon="1.70029">
        <ele>1723.3</ele>
        <time>2014-05-10T06:22:24Z</time>
      </trkpt>
      <trkpt lat="42.64443" lon="1.70032">
        <ele>1723.3</ele>
        <time>2014-05-10T06:22:34Z</time>
      </trkpt>
      <trkpt lat="42.64437" lon="1.70028">
        <ele>1723.78</ele>
        <time>2014-05-10T06:22:39Z</time>
      </trkpt>
      <trkpt lat="42.64425" lon="1.70024">
        <ele>1724.74</ele>
        <time>2014-05-10T06:22:50Z</time>
      </trkpt>
      <trkpt lat="42.64413" lon="1.7002">
        <ele>1725.22</ele>
        <time>2014-05-10T06:23:00Z</time>
      </trkpt>
      <trkpt lat="42.64395" lon="1.70014">
        <ele>1725.7</ele>
        <time>2014-05-10T06:23:14Z</time>
      </trkpt>
      <trkpt lat="42.64388" lon="1.70004">
        <ele>1725.7</ele>
        <time>2014-05-10T06:23:27Z</time>
      </trkpt>
      <trkpt lat="42.64388" lon="1.70003">
        <ele>1725.7</ele>
        <time>2014-05-10T06:23:28Z</time>
      </trkpt>
      <trkpt lat="42.64385" lon="1.70003">
        <ele>1726.18</ele>
        <time>2014-05-10T06:23:31Z</time>
      </trkpt>
      <trkpt lat="42.6438" lon="1.70001">
        <ele>1727.63</ele>
        <time>2014-05-10T06:23:37Z</time>
      </trkpt>
      <trkpt lat="42.64375" lon="1.7">
        <ele>1728.59</ele>
        <time>2014-05-10T06:23:43Z</time>
      </trkpt>
      <trkpt lat="42.64373" lon="1.7">
        <ele>1728.59</ele>
        <time>2014-05-10T06:23:45Z</time>
      </trkpt>
      <trkpt lat="42.64367" lon="1.69995">
        <ele>1730.03</ele>
        <time>2014-05-10T06:23:53Z</time>
      </trkpt>
      <trkpt lat="42.64357" lon="1.69992">
        <ele>1731.47</ele>
        <time>2014-05-10T06:24:05Z</time>
      </trkpt>
      <trkpt lat="42.64348" lon="1.69987">
        <ele>1731.47</ele>
        <time>2014-05-10T06:24:17Z</time>
      </trkpt>
      <trkpt lat="42.64347" lon="1.69986">
        <ele>1731.47</ele>
        <time>2014-05-10T06:24:19Z</time>
      </trkpt>
      <trkpt lat="42.64336" lon="1.69983">
        <ele>1733.39</ele>
        <time>2014-05-10T06:24:31Z</time>
      </trkpt>
      <trkpt lat="42.64322" lon="1.69976">
        <ele>1734.36</ele>
        <time>2014-05-10T06:24:45Z</time>
      </trkpt>
      <trkpt lat="42.64314" lon="1.69971">
        <ele>1732.43</ele>
        <time>2014-05-10T06:24:54Z</time>
      </trkpt>
      <trkpt lat="42.64307" lon="1.69965">
        <ele>1733.88</ele>
        <time>2014-05-10T06:25:02Z</time>
      </trkpt>
      <trkpt lat="42.64299" lon="1.69961">
        <ele>1736.28</ele>
        <time>2014-05-10T06:25:12Z</time>
      </trkpt>
      <trkpt lat="42.6429" lon="1.6996">
        <ele>1735.8</ele>
        <time>2014-05-10T06:25:22Z</time>
      </trkpt>
      <trkpt lat="42.64281" lon="1.69961">
        <ele>1735.32</ele>
        <time>2014-05-10T06:25:29Z</time>
      </trkpt>
      <trkpt lat="42.64276" lon="1.6996">
        <ele>1736.28</ele>
        <time>2014-05-10T06:25:35Z</time>
      </trkpt>
      <trkpt lat="42.6427" lon="1.69959">
        <ele>1734.36</ele>
        <time>2014-05-10T06:25:45Z</time>
      </trkpt>
      <trkpt lat="42.64263" lon="1.69958">
        <ele>1732.91</ele>
        <time>2014-05-10T06:25:52Z</time>
      </trkpt>
      <trkpt lat="42.64258" lon="1.69952">
        <ele>1732.43</ele>
        <time>2014-05-10T06:26:03Z</time>
      </trkpt>
      <trkpt lat="42.64251" lon="1.6995">
        <ele>1732.91</ele>
        <time>2014-05-10T06:26:15Z</time>
      </trkpt>
      <trkpt lat="42.64252" lon="1.69946">
        <ele>1732.43</ele>
        <time>2014-05-10T06:26:17Z</time>
      </trkpt>
      <trkpt lat="42.64249" lon="1.69941">
        <ele>1733.88</ele>
        <time>2014-05-10T06:26:23Z</time>
      </trkpt>
      <trkpt lat="42.64247" lon="1.69938">
        <ele>1733.88</ele>
        <time>2014-05-10T06:26:28Z</time>
      </trkpt>
      <trkpt lat="42.64246" lon="1.6993">
        <ele>1734.84</ele>
        <time>2014-05-10T06:26:37Z</time>
      </trkpt>
      <trkpt lat="42.64244" lon="1.69929">
        <ele>1735.8</ele>
        <time>2014-05-10T06:26:39Z</time>
      </trkpt>
      <trkpt lat="42.64242" lon="1.69918">
        <ele>1736.76</ele>
        <time>2014-05-10T06:26:50Z</time>
      </trkpt>
      <trkpt lat="42.64239" lon="1.69915">
        <ele>1738.68</ele>
        <time>2014-05-10T06:26:56Z</time>
      </trkpt>
      <trkpt lat="42.64234" lon="1.69908">
        <ele>1740.6</ele>
        <time>2014-05-10T06:27:07Z</time>
      </trkpt>
      <trkpt lat="42.64229" lon="1.69896">
        <ele>1738.2</ele>
        <time>2014-05-10T06:27:20Z</time>
      </trkpt>
      <trkpt lat="42.6422" lon="1.69891">
        <ele>1741.08</ele>
        <time>2014-05-10T06:27:31Z</time>
      </trkpt>
      <trkpt lat="42.64208" lon="1.69886">
        <ele>1743.49</ele>
        <time>2014-05-10T06:27:43Z</time>
      </trkpt>
      <trkpt lat="42.64207" lon="1.69884">
        <ele>1745.89</ele>
        <time>2014-05-10T06:27:47Z</time>
      </trkpt>
      <trkpt lat="42.64206" lon="1.69882">
        <ele>1745.89</ele>
        <time>2014-05-10T06:27:50Z</time>
      </trkpt>
      <trkpt lat="42.64202" lon="1.6988">
        <ele>1748.29</ele>
        <time>2014-05-10T06:27:54Z</time>
      </trkpt>
      <trkpt lat="42.64197" lon="1.69873">
        <ele>1749.74</ele>
        <time>2014-05-10T06:28:01Z</time>
      </trkpt>
      <trkpt lat="42.64185" lon="1.69862">
        <ele>1752.14</ele>
        <time>2014-05-10T06:28:14Z</time>
      </trkpt>
      <trkpt lat="42.64183" lon="1.69861">
        <ele>1754.06</ele>
        <time>2014-05-10T06:28:17Z</time>
      </trkpt>
      <trkpt lat="42.64182" lon="1.69851">
        <ele>1751.18</ele>
        <time>2014-05-10T06:28:28Z</time>
      </trkpt>
      <trkpt lat="42.64179" lon="1.69847">
        <ele>1749.26</ele>
        <time>2014-05-10T06:28:32Z</time>
      </trkpt>
      <trkpt lat="42.64171" lon="1.69841">
        <ele>1751.66</ele>
        <time>2014-05-10T06:28:45Z</time>
      </trkpt>
      <trkpt lat="42.6417" lon="1.69841">
        <ele>1752.14</ele>
        <time>2014-05-10T06:28:46Z</time>
      </trkpt>
      <trkpt lat="42.64164" lon="1.69832">
        <ele>1749.74</ele>
        <time>2014-05-10T06:28:59Z</time>
      </trkpt>
      <trkpt lat="42.64163" lon="1.69832">
        <ele>1750.7</ele>
        <time>2014-05-10T06:29:00Z</time>
      </trkpt>
      <trkpt lat="42.64158" lon="1.69827">
        <ele>1754.06</ele>
        <time>2014-05-10T06:29:09Z</time>
      </trkpt>
      <trkpt lat="42.64151" lon="1.69819">
        <ele>1755.02</ele>
        <time>2014-05-10T06:29:21Z</time>
      </trkpt>
      <trkpt lat="42.64142" lon="1.69811">
        <ele>1757.43</ele>
        <time>2014-05-10T06:29:32Z</time>
      </trkpt>
      <trkpt lat="42.64128" lon="1.69805">
        <ele>1764.16</ele>
        <time>2014-05-10T06:29:45Z</time>
      </trkpt>
      <trkpt lat="42.64123" lon="1.69796">
        <ele>1762.71</ele>
        <time>2014-05-10T06:29:56Z</time>
      </trkpt>
      <trkpt lat="42.64114" lon="1.69789">
        <ele>1767.04</ele>
        <time>2014-05-10T06:30:09Z</time>
      </trkpt>
      <trkpt lat="42.6411" lon="1.69786">
        <ele>1769.44</ele>
        <time>2014-05-10T06:30:15Z</time>
      </trkpt>
      <trkpt lat="42.64101" lon="1.69781">
        <ele>1772.33</ele>
        <time>2014-05-10T06:30:29Z</time>
      </trkpt>
      <trkpt lat="42.64096" lon="1.69777">
        <ele>1773.29</ele>
        <time>2014-05-10T06:30:34Z</time>
      </trkpt>
      <trkpt lat="42.64095" lon="1.69776">
        <ele>1772.81</ele>
        <time>2014-05-10T06:30:36Z</time>
      </trkpt>
      <trkpt lat="42.64095" lon="1.69765">
        <ele>1768.48</ele>
        <time>2014-05-10T06:30:42Z</time>
      </trkpt>
      <trkpt lat="42.6409" lon="1.69753">
        <ele>1769.92</ele>
        <time>2014-05-10T06:30:55Z</time>
      </trkpt>
      <trkpt lat="42.64087" lon="1.69743">
        <ele>1773.29</ele>
        <time>2014-05-10T06:31:07Z</time>
      </trkpt>
      <trkpt lat="42.64084" lon="1.69734">
        <ele>1774.73</ele>
        <time>2014-05-10T06:31:17Z</time>
      </trkpt>
      <trkpt lat="42.64081" lon="1.69728">
        <ele>1778.1</ele>
        <time>2014-05-10T06:31:27Z</time>
      </trkpt>
      <trkpt lat="42.6408" lon="1.69726">
        <ele>1778.58</ele>
        <time>2014-05-10T06:31:29Z</time>
      </trkpt>
      <trkpt lat="42.64072" lon="1.69718">
        <ele>1782.9</ele>
        <time>2014-05-10T06:31:40Z</time>
      </trkpt>
      <trkpt lat="42.6407" lon="1.69716">
        <ele>1789.63</ele>
        <time>2014-05-10T06:31:59Z</time>
      </trkpt>
      <trkpt lat="42.64065" lon="1.69713">
        <ele>1791.07</ele>
        <time>2014-05-10T06:32:10Z</time>
      </trkpt>
      <trkpt lat="42.64063" lon="1.69714">
        <ele>1793.96</ele>
        <time>2014-05-10T06:32:21Z</time>
      </trkpt>
      <trkpt lat="42.64061" lon="1.6971">
        <ele>1791.07</ele>
        <time>2014-05-10T06:32:34Z</time>
      </trkpt>
      <trkpt lat="42.64062" lon="1.69713">
        <ele>1787.71</ele>
        <time>2014-05-10T06:33:07Z</time>
      </trkpt>
      <trkpt lat="42.64062" lon="1.69711">
        <ele>1792.03</ele>
        <time>2014-05-10T06:33:41Z</time>
      </trkpt>
      <trkpt lat="42.6406" lon="1.69714">
        <ele>1788.67</ele>
        <time>2014-05-10T06:34:16Z</time>
      </trkpt>
      <trkpt lat="42.64062" lon="1.69709">
        <ele>1787.23</ele>
        <time>2014-05-10T06:34:51Z</time>
      </trkpt>
      <trkpt lat="42.64061" lon="1.6971">
        <ele>1786.75</ele>
        <time>2014-05-10T06:35:04Z</time>
      </trkpt>
      <trkpt lat="42.64063" lon="1.6971">
        <ele>1784.82</ele>
        <time>2014-05-10T06:35:15Z</time>
      </trkpt>
      <trkpt lat="42.64063" lon="1.69706">
        <ele>1783.38</ele>
        <time>2014-05-10T06:35:33Z</time>
      </trkpt>
      <trkpt lat="42.64065" lon="1.69706">
        <ele>1781.94</ele>
        <time>2014-05-10T06:35:43Z</time>
      </trkpt>
      <trkpt lat="42.64064" lon="1.69699">
        <ele>1786.27</ele>
        <time>2014-05-10T06:35:55Z</time>
      </trkpt>
      <trkpt lat="42.64064" lon="1.69702">
        <ele>1790.11</ele>
        <time>2014-05-10T06:36:14Z</time>
      </trkpt>
      <trkpt lat="42.64064" lon="1.697">
        <ele>1791.07</ele>
        <time>2014-05-10T06:36:29Z</time>
      </trkpt>
      <trkpt lat="42.64064" lon="1.69696">
        <ele>1791.07</ele>
        <time>2014-05-10T06:36:31Z</time>
      </trkpt>
      <trkpt lat="42.64058" lon="1.69684">
        <ele>1795.4</ele>
        <time>2014-05-10T06:36:45Z</time>
      </trkpt>
      <trkpt lat="42.64058" lon="1.69681">
        <ele>1795.88</ele>
        <time>2014-05-10T06:36:47Z</time>
      </trkpt>
      <trkpt lat="42.64056" lon="1.69681">
        <ele>1796.36</ele>
        <time>2014-05-10T06:36:49Z</time>
      </trkpt>
      <trkpt lat="42.64054" lon="1.69674">
        <ele>1795.4</ele>
        <time>2014-05-10T06:36:54Z</time>
      </trkpt>
      <trkpt lat="42.64052" lon="1.69667">
        <ele>1802.61</ele>
        <time>2014-05-10T06:37:09Z</time>
      </trkpt>
      <trkpt lat="42.64051" lon="1.69662">
        <ele>1804.05</ele>
        <time>2014-05-10T06:37:14Z</time>
      </trkpt>
      <trkpt lat="42.64051" lon="1.69659">
        <ele>1803.57</ele>
        <time>2014-05-10T06:37:16Z</time>
      </trkpt>
      <trkpt lat="42.64051" lon="1.69656">
        <ele>1803.57</ele>
        <time>2014-05-10T06:37:18Z</time>
      </trkpt>
      <trkpt lat="42.64051" lon="1.69653">
        <ele>1804.53</ele>
        <time>2014-05-10T06:37:20Z</time>
      </trkpt>
      <trkpt lat="42.6405" lon="1.69651">
        <ele>1805.01</ele>
        <time>2014-05-10T06:37:22Z</time>
      </trkpt>
      <trkpt lat="42.64046" lon="1.69642">
        <ele>1806.94</ele>
        <time>2014-05-10T06:37:29Z</time>
      </trkpt>
      <trkpt lat="42.64047" lon="1.69637">
        <ele>1806.45</ele>
        <time>2014-05-10T06:37:31Z</time>
      </trkpt>
      <trkpt lat="42.64045" lon="1.69635">
        <ele>1806.94</ele>
        <time>2014-05-10T06:37:33Z</time>
      </trkpt>
      <trkpt lat="42.64041" lon="1.69622">
        <ele>1804.53</ele>
        <time>2014-05-10T06:37:45Z</time>
      </trkpt>
      <trkpt lat="42.6404" lon="1.69621">
        <ele>1806.94</ele>
        <time>2014-05-10T06:37:58Z</time>
      </trkpt>
      <trkpt lat="42.64037" lon="1.69625">
        <ele>1807.42</ele>
        <time>2014-05-10T06:38:11Z</time>
      </trkpt>
      <trkpt lat="42.64038" lon="1.69621">
        <ele>1806.45</ele>
        <time>2014-05-10T06:38:24Z</time>
      </trkpt>
      <trkpt lat="42.64036" lon="1.69607">
        <ele>1804.05</ele>
        <time>2014-05-10T06:38:37Z</time>
      </trkpt>
      <trkpt lat="42.64026" lon="1.69595">
        <ele>1807.42</ele>
        <time>2014-05-10T06:38:49Z</time>
      </trkpt>
      <trkpt lat="42.64023" lon="1.69591">
        <ele>1808.38</ele>
        <time>2014-05-10T06:38:56Z</time>
      </trkpt>
      <trkpt lat="42.64021" lon="1.69584">
        <ele>1808.38</ele>
        <time>2014-05-10T06:39:00Z</time>
      </trkpt>
      <trkpt lat="42.64018" lon="1.6958">
        <ele>1811.74</ele>
        <time>2014-05-10T06:39:07Z</time>
      </trkpt>
      <trkpt lat="42.64016" lon="1.69566">
        <ele>1811.74</ele>
        <time>2014-05-10T06:39:18Z</time>
      </trkpt>
      <trkpt lat="42.64014" lon="1.69558">
        <ele>1809.82</ele>
        <time>2014-05-10T06:39:28Z</time>
      </trkpt>
      <trkpt lat="42.64013" lon="1.69552">
        <ele>1807.9</ele>
        <time>2014-05-10T06:39:38Z</time>
      </trkpt>
      <trkpt lat="42.64011" lon="1.6955">
        <ele>1809.82</ele>
        <time>2014-05-10T06:39:41Z</time>
      </trkpt>
      <trkpt lat="42.6401" lon="1.69536">
        <ele>1807.42</ele>
        <time>2014-05-10T06:39:54Z</time>
      </trkpt>
      <trkpt lat="42.64009" lon="1.69532">
        <ele>1806.45</ele>
        <time>2014-05-10T06:39:58Z</time>
      </trkpt>
      <trkpt lat="42.64006" lon="1.69519">
        <ele>1806.94</ele>
        <time>2014-05-10T06:40:09Z</time>
      </trkpt>
      <trkpt lat="42.64005" lon="1.69519">
        <ele>1807.42</ele>
        <time>2014-05-10T06:40:10Z</time>
      </trkpt>
      <trkpt lat="42.64005" lon="1.69517">
        <ele>1807.9</ele>
        <time>2014-05-10T06:40:12Z</time>
      </trkpt>
      <trkpt lat="42.64003" lon="1.69507">
        <ele>1809.82</ele>
        <time>2014-05-10T06:40:23Z</time>
      </trkpt>
      <trkpt lat="42.64003" lon="1.69506">
        <ele>1809.82</ele>
        <time>2014-05-10T06:40:24Z</time>
      </trkpt>
      <trkpt lat="42.64002" lon="1.69506">
        <ele>1809.82</ele>
        <time>2014-05-10T06:40:26Z</time>
      </trkpt>
      <trkpt lat="42.64001" lon="1.69498">
        <ele>1808.38</ele>
        <time>2014-05-10T06:40:37Z</time>
      </trkpt>
      <trkpt lat="42.64001" lon="1.69497">
        <ele>1809.82</ele>
        <time>2014-05-10T06:40:39Z</time>
      </trkpt>
      <trkpt lat="42.63996" lon="1.69498">
        <ele>1812.7</ele>
        <time>2014-05-10T06:40:45Z</time>
      </trkpt>
      <trkpt lat="42.63994" lon="1.69498">
        <ele>1813.66</ele>
        <time>2014-05-10T06:40:48Z</time>
      </trkpt>
      <trkpt lat="42.63987" lon="1.69494">
        <ele>1818.47</ele>
        <time>2014-05-10T06:40:59Z</time>
      </trkpt>
      <trkpt lat="42.63983" lon="1.69491">
        <ele>1819.91</ele>
        <time>2014-05-10T06:41:04Z</time>
      </trkpt>
      <trkpt lat="42.63983" lon="1.69483">
        <ele>1819.91</ele>
        <time>2014-05-10T06:41:09Z</time>
      </trkpt>
      <trkpt lat="42.63979" lon="1.69478">
        <ele>1821.84</ele>
        <time>2014-05-10T06:41:14Z</time>
      </trkpt>
      <trkpt lat="42.63965" lon="1.69467">
        <ele>1823.76</ele>
        <time>2014-05-10T06:41:28Z</time>
      </trkpt>
      <trkpt lat="42.63962" lon="1.69465">
        <ele>1825.2</ele>
        <time>2014-05-10T06:41:32Z</time>
      </trkpt>
      <trkpt lat="42.63959" lon="1.69457">
        <ele>1824.72</ele>
        <time>2014-05-10T06:41:39Z</time>
      </trkpt>
      <trkpt lat="42.63955" lon="1.69451">
        <ele>1828.08</ele>
        <time>2014-05-10T06:41:50Z</time>
      </trkpt>
      <trkpt lat="42.63954" lon="1.6945">
        <ele>1828.08</ele>
        <time>2014-05-10T06:41:52Z</time>
      </trkpt>
      <trkpt lat="42.63954" lon="1.69447">
        <ele>1827.6</ele>
        <time>2014-05-10T06:41:55Z</time>
      </trkpt>
      <trkpt lat="42.63954" lon="1.69442">
        <ele>1827.6</ele>
        <time>2014-05-10T06:41:57Z</time>
      </trkpt>
      <trkpt lat="42.6395" lon="1.69437">
        <ele>1828.08</ele>
        <time>2014-05-10T06:42:04Z</time>
      </trkpt>
      <trkpt lat="42.63946" lon="1.69422">
        <ele>1828.56</ele>
        <time>2014-05-10T06:42:16Z</time>
      </trkpt>
      <trkpt lat="42.63945" lon="1.69412">
        <ele>1829.05</ele>
        <time>2014-05-10T06:42:24Z</time>
      </trkpt>
      <trkpt lat="42.63946" lon="1.69409">
        <ele>1828.08</ele>
        <time>2014-05-10T06:42:26Z</time>
      </trkpt>
      <trkpt lat="42.63944" lon="1.69404">
        <ele>1828.08</ele>
        <time>2014-05-10T06:42:30Z</time>
      </trkpt>
      <trkpt lat="42.63945" lon="1.694">
        <ele>1828.08</ele>
        <time>2014-05-10T06:42:32Z</time>
      </trkpt>
      <trkpt lat="42.63942" lon="1.69391">
        <ele>1828.08</ele>
        <time>2014-05-10T06:42:38Z</time>
      </trkpt>
      <trkpt lat="42.63935" lon="1.69377">
        <ele>1829.53</ele>
        <time>2014-05-10T06:42:52Z</time>
      </trkpt>
      <trkpt lat="42.63934" lon="1.69375">
        <ele>1830.01</ele>
        <time>2014-05-10T06:42:55Z</time>
      </trkpt>
      <trkpt lat="42.63927" lon="1.69362">
        <ele>1832.41</ele>
        <time>2014-05-10T06:43:06Z</time>
      </trkpt>
      <trkpt lat="42.63924" lon="1.69357">
        <ele>1833.37</ele>
        <time>2014-05-10T06:43:10Z</time>
      </trkpt>
      <trkpt lat="42.63923" lon="1.69355">
        <ele>1833.85</ele>
        <time>2014-05-10T06:43:13Z</time>
      </trkpt>
      <trkpt lat="42.6392" lon="1.69352">
        <ele>1834.81</ele>
        <time>2014-05-10T06:43:18Z</time>
      </trkpt>
      <trkpt lat="42.6392" lon="1.6935">
        <ele>1834.81</ele>
        <time>2014-05-10T06:43:20Z</time>
      </trkpt>
      <trkpt lat="42.63917" lon="1.69334">
        <ele>1832.41</ele>
        <time>2014-05-10T06:43:33Z</time>
      </trkpt>
      <trkpt lat="42.63917" lon="1.6933">
        <ele>1830.97</ele>
        <time>2014-05-10T06:43:36Z</time>
      </trkpt>
      <trkpt lat="42.63916" lon="1.69327">
        <ele>1831.45</ele>
        <time>2014-05-10T06:43:39Z</time>
      </trkpt>
      <trkpt lat="42.63909" lon="1.69313">
        <ele>1833.37</ele>
        <time>2014-05-10T06:43:51Z</time>
      </trkpt>
      <trkpt lat="42.63905" lon="1.69306">
        <ele>1834.81</ele>
        <time>2014-05-10T06:43:57Z</time>
      </trkpt>
      <trkpt lat="42.63905" lon="1.69304">
        <ele>1832.89</ele>
        <time>2014-05-10T06:43:59Z</time>
      </trkpt>
      <trkpt lat="42.639" lon="1.69294">
        <ele>1832.41</ele>
        <time>2014-05-10T06:44:06Z</time>
      </trkpt>
      <trkpt lat="42.639" lon="1.69289">
        <ele>1831.93</ele>
        <time>2014-05-10T06:44:10Z</time>
      </trkpt>
      <trkpt lat="42.63895" lon="1.69284">
        <ele>1832.41</ele>
        <time>2014-05-10T06:44:17Z</time>
      </trkpt>
      <trkpt lat="42.63892" lon="1.6928">
        <ele>1832.89</ele>
        <time>2014-05-10T06:44:20Z</time>
      </trkpt>
      <trkpt lat="42.63884" lon="1.6926">
        <ele>1832.41</ele>
        <time>2014-05-10T06:44:34Z</time>
      </trkpt>
      <trkpt lat="42.63882" lon="1.69259">
        <ele>1833.37</ele>
        <time>2014-05-10T06:44:36Z</time>
      </trkpt>
      <trkpt lat="42.63879" lon="1.69252">
        <ele>1834.33</ele>
        <time>2014-05-10T06:44:42Z</time>
      </trkpt>
      <trkpt lat="42.63878" lon="1.69248">
        <ele>1831.93</ele>
        <time>2014-05-10T06:44:45Z</time>
      </trkpt>
      <trkpt lat="42.63877" lon="1.69246">
        <ele>1831.45</ele>
        <time>2014-05-10T06:44:47Z</time>
      </trkpt>
      <trkpt lat="42.63874" lon="1.69242">
        <ele>1835.29</ele>
        <time>2014-05-10T06:44:52Z</time>
      </trkpt>
      <trkpt lat="42.63868" lon="1.69241">
        <ele>1840.1</ele>
        <time>2014-05-10T06:44:57Z</time>
      </trkpt>
      <trkpt lat="42.63859" lon="1.69235">
        <ele>1842.98</ele>
        <time>2014-05-10T06:45:07Z</time>
      </trkpt>
      <trkpt lat="42.63849" lon="1.69232">
        <ele>1846.35</ele>
        <time>2014-05-10T06:45:20Z</time>
      </trkpt>
      <trkpt lat="42.63844" lon="1.69229">
        <ele>1846.83</ele>
        <time>2014-05-10T06:45:24Z</time>
      </trkpt>
      <trkpt lat="42.63842" lon="1.69228">
        <ele>1846.83</ele>
        <time>2014-05-10T06:45:26Z</time>
      </trkpt>
      <trkpt lat="42.63828" lon="1.69224">
        <ele>1851.16</ele>
        <time>2014-05-10T06:45:41Z</time>
      </trkpt>
      <trkpt lat="42.63816" lon="1.69222">
        <ele>1853.56</ele>
        <time>2014-05-10T06:45:54Z</time>
      </trkpt>
      <trkpt lat="42.63807" lon="1.69219">
        <ele>1853.08</ele>
        <time>2014-05-10T06:46:07Z</time>
      </trkpt>
      <trkpt lat="42.638" lon="1.69225">
        <ele>1855.96</ele>
        <time>2014-05-10T06:46:18Z</time>
      </trkpt>
      <trkpt lat="42.6379" lon="1.69224">
        <ele>1856.92</ele>
        <time>2014-05-10T06:46:31Z</time>
      </trkpt>
      <trkpt lat="42.6378" lon="1.69218">
        <ele>1860.29</ele>
        <time>2014-05-10T06:46:43Z</time>
      </trkpt>
      <trkpt lat="42.63776" lon="1.69211">
        <ele>1859.81</ele>
        <time>2014-05-10T06:46:51Z</time>
      </trkpt>
      <trkpt lat="42.63768" lon="1.69196">
        <ele>1859.33</ele>
        <time>2014-05-10T06:47:06Z</time>
      </trkpt>
      <trkpt lat="42.63763" lon="1.69192">
        <ele>1860.29</ele>
        <time>2014-05-10T06:47:15Z</time>
      </trkpt>
      <trkpt lat="42.63759" lon="1.69191">
        <ele>1860.29</ele>
        <time>2014-05-10T06:47:24Z</time>
      </trkpt>
      <trkpt lat="42.6375" lon="1.69194">
        <ele>1863.65</ele>
        <time>2014-05-10T06:47:33Z</time>
      </trkpt>
      <trkpt lat="42.63746" lon="1.69192">
        <ele>1863.65</ele>
        <time>2014-05-10T06:47:45Z</time>
      </trkpt>
      <trkpt lat="42.63746" lon="1.6919">
        <ele>1861.25</ele>
        <time>2014-05-10T06:48:05Z</time>
      </trkpt>
      <trkpt lat="42.63745" lon="1.69188">
        <ele>1862.69</ele>
        <time>2014-05-10T06:48:19Z</time>
      </trkpt>
      <trkpt lat="42.63746" lon="1.69195">
        <ele>1861.25</ele>
        <time>2014-05-10T06:48:31Z</time>
      </trkpt>
      <trkpt lat="42.63745" lon="1.69194">
        <ele>1860.77</ele>
        <time>2014-05-10T06:48:39Z</time>
      </trkpt>
      <trkpt lat="42.63746" lon="1.69191">
        <ele>1860.29</ele>
        <time>2014-05-10T06:48:42Z</time>
      </trkpt>
      <trkpt lat="42.63741" lon="1.69191">
        <ele>1861.25</ele>
        <time>2014-05-10T06:48:47Z</time>
      </trkpt>
      <trkpt lat="42.63739" lon="1.69187">
        <ele>1862.21</ele>
        <time>2014-05-10T06:48:53Z</time>
      </trkpt>
      <trkpt lat="42.63736" lon="1.6918">
        <ele>1863.65</ele>
        <time>2014-05-10T06:49:03Z</time>
      </trkpt>
      <trkpt lat="42.63736" lon="1.69179">
        <ele>1865.58</ele>
        <time>2014-05-10T06:49:25Z</time>
      </trkpt>
      <trkpt lat="42.63737" lon="1.69178">
        <ele>1864.13</ele>
        <time>2014-05-10T06:49:37Z</time>
      </trkpt>
      <trkpt lat="42.63738" lon="1.69167">
        <ele>1864.61</ele>
        <time>2014-05-10T06:49:43Z</time>
      </trkpt>
      <trkpt lat="42.63737" lon="1.69161">
        <ele>1865.09</ele>
        <time>2014-05-10T06:49:47Z</time>
      </trkpt>
      <trkpt lat="42.63737" lon="1.69152">
        <ele>1865.58</ele>
        <time>2014-05-10T06:50:00Z</time>
      </trkpt>
      <trkpt lat="42.63736" lon="1.69147">
        <ele>1867.02</ele>
        <time>2014-05-10T06:50:05Z</time>
      </trkpt>
      <trkpt lat="42.63735" lon="1.69138">
        <ele>1868.46</ele>
        <time>2014-05-10T06:50:16Z</time>
      </trkpt>
      <trkpt lat="42.63731" lon="1.69125">
        <ele>1869.9</ele>
        <time>2014-05-10T06:50:30Z</time>
      </trkpt>
      <trkpt lat="42.63727" lon="1.69112">
        <ele>1872.3</ele>
        <time>2014-05-10T06:50:43Z</time>
      </trkpt>
      <trkpt lat="42.63723" lon="1.69101">
        <ele>1873.27</ele>
        <time>2014-05-10T06:50:58Z</time>
      </trkpt>
      <trkpt lat="42.63717" lon="1.69095">
        <ele>1873.75</ele>
        <time>2014-05-10T06:51:09Z</time>
      </trkpt>
      <trkpt lat="42.6371" lon="1.69086">
        <ele>1877.59</ele>
        <time>2014-05-10T06:51:23Z</time>
      </trkpt>
      <trkpt lat="42.63704" lon="1.69081">
        <ele>1880</ele>
        <time>2014-05-10T06:51:34Z</time>
      </trkpt>
      <trkpt lat="42.63697" lon="1.69076">
        <ele>1883.36</ele>
        <time>2014-05-10T06:51:47Z</time>
      </trkpt>
      <trkpt lat="42.63695" lon="1.69071">
        <ele>1882.88</ele>
        <time>2014-05-10T06:51:58Z</time>
      </trkpt>
      <trkpt lat="42.63692" lon="1.69064">
        <ele>1884.8</ele>
        <time>2014-05-10T06:52:05Z</time>
      </trkpt>
      <trkpt lat="42.6369" lon="1.69062">
        <ele>1885.76</ele>
        <time>2014-05-10T06:52:07Z</time>
      </trkpt>
      <trkpt lat="42.63688" lon="1.69059">
        <ele>1885.76</ele>
        <time>2014-05-10T06:52:09Z</time>
      </trkpt>
      <trkpt lat="42.63686" lon="1.69056">
        <ele>1885.28</ele>
        <time>2014-05-10T06:52:13Z</time>
      </trkpt>
      <trkpt lat="42.63683" lon="1.69045">
        <ele>1885.28</ele>
        <time>2014-05-10T06:52:23Z</time>
      </trkpt>
      <trkpt lat="42.63673" lon="1.69039">
        <ele>1887.69</ele>
        <time>2014-05-10T06:52:36Z</time>
      </trkpt>
      <trkpt lat="42.63668" lon="1.69035">
        <ele>1889.61</ele>
        <time>2014-05-10T06:52:46Z</time>
      </trkpt>
      <trkpt lat="42.63666" lon="1.69024">
        <ele>1890.57</ele>
        <time>2014-05-10T06:52:58Z</time>
      </trkpt>
      <trkpt lat="42.63663" lon="1.69017">
        <ele>1890.57</ele>
        <time>2014-05-10T06:53:03Z</time>
      </trkpt>
      <trkpt lat="42.63661" lon="1.69007">
        <ele>1890.09</ele>
        <time>2014-05-10T06:53:12Z</time>
      </trkpt>
      <trkpt lat="42.63655" lon="1.68991">
        <ele>1889.61</ele>
        <time>2014-05-10T06:53:25Z</time>
      </trkpt>
      <trkpt lat="42.63651" lon="1.68977">
        <ele>1888.65</ele>
        <time>2014-05-10T06:53:38Z</time>
      </trkpt>
      <trkpt lat="42.63647" lon="1.6896">
        <ele>1889.61</ele>
        <time>2014-05-10T06:53:53Z</time>
      </trkpt>
      <trkpt lat="42.63645" lon="1.68948">
        <ele>1892.01</ele>
        <time>2014-05-10T06:54:05Z</time>
      </trkpt>
      <trkpt lat="42.63645" lon="1.68945">
        <ele>1892.01</ele>
        <time>2014-05-10T06:54:09Z</time>
      </trkpt>
      <trkpt lat="42.63643" lon="1.68945">
        <ele>1893.93</ele>
        <time>2014-05-10T06:54:12Z</time>
      </trkpt>
      <trkpt lat="42.63642" lon="1.68942">
        <ele>1893.93</ele>
        <time>2014-05-10T06:54:15Z</time>
      </trkpt>
      <trkpt lat="42.63637" lon="1.68933">
        <ele>1894.42</ele>
        <time>2014-05-10T06:54:27Z</time>
      </trkpt>
      <trkpt lat="42.6363" lon="1.68922">
        <ele>1898.74</ele>
        <time>2014-05-10T06:54:39Z</time>
      </trkpt>
      <trkpt lat="42.63625" lon="1.68913">
        <ele>1901.14</ele>
        <time>2014-05-10T06:54:52Z</time>
      </trkpt>
      <trkpt lat="42.63622" lon="1.68909">
        <ele>1901.63</ele>
        <time>2014-05-10T06:55:06Z</time>
      </trkpt>
      <trkpt lat="42.6362" lon="1.68908">
        <ele>1902.59</ele>
        <time>2014-05-10T06:55:20Z</time>
      </trkpt>
      <trkpt lat="42.63619" lon="1.68908">
        <ele>1901.63</ele>
        <time>2014-05-10T06:55:36Z</time>
      </trkpt>
      <trkpt lat="42.63617" lon="1.6891">
        <ele>1897.3</ele>
        <time>2014-05-10T06:55:58Z</time>
      </trkpt>
      <trkpt lat="42.63616" lon="1.68909">
        <ele>1898.26</ele>
        <time>2014-05-10T06:56:41Z</time>
      </trkpt>
      <trkpt lat="42.63617" lon="1.68909">
        <ele>1897.78</ele>
        <time>2014-05-10T06:57:19Z</time>
      </trkpt>
      <trkpt lat="42.63617" lon="1.68908">
        <ele>1897.3</ele>
        <time>2014-05-10T06:57:57Z</time>
      </trkpt>
      <trkpt lat="42.63617" lon="1.68908">
        <ele>1899.22</ele>
        <time>2014-05-10T06:58:07Z</time>
      </trkpt>
      <trkpt lat="42.6362" lon="1.68909">
        <ele>1904.99</ele>
        <time>2014-05-10T06:58:21Z</time>
      </trkpt>
      <trkpt lat="42.63618" lon="1.68909">
        <ele>1900.66</ele>
        <time>2014-05-10T06:58:42Z</time>
      </trkpt>
      <trkpt lat="42.63613" lon="1.68897">
        <ele>1902.11</ele>
        <time>2014-05-10T06:58:56Z</time>
      </trkpt>
      <trkpt lat="42.63607" lon="1.68882">
        <ele>1903.55</ele>
        <time>2014-05-10T06:59:09Z</time>
      </trkpt>
      <trkpt lat="42.63603" lon="1.6886">
        <ele>1903.55</ele>
        <time>2014-05-10T06:59:26Z</time>
      </trkpt>
      <trkpt lat="42.636" lon="1.68847">
        <ele>1904.51</ele>
        <time>2014-05-10T06:59:38Z</time>
      </trkpt>
      <trkpt lat="42.63596" lon="1.68833">
        <ele>1906.91</ele>
        <time>2014-05-10T06:59:52Z</time>
      </trkpt>
      <trkpt lat="42.63591" lon="1.68823">
        <ele>1908.83</ele>
        <time>2014-05-10T07:00:01Z</time>
      </trkpt>
      <trkpt lat="42.63585" lon="1.68808">
        <ele>1909.32</ele>
        <time>2014-05-10T07:00:15Z</time>
      </trkpt>
      <trkpt lat="42.6358" lon="1.68801">
        <ele>1910.28</ele>
        <time>2014-05-10T07:00:25Z</time>
      </trkpt>
      <trkpt lat="42.6357" lon="1.68794">
        <ele>1910.76</ele>
        <time>2014-05-10T07:00:37Z</time>
      </trkpt>
      <trkpt lat="42.63562" lon="1.6878">
        <ele>1913.16</ele>
        <time>2014-05-10T07:00:52Z</time>
      </trkpt>
      <trkpt lat="42.63557" lon="1.6877">
        <ele>1917.49</ele>
        <time>2014-05-10T07:01:05Z</time>
      </trkpt>
      <trkpt lat="42.6355" lon="1.6876">
        <ele>1918.45</ele>
        <time>2014-05-10T07:01:20Z</time>
      </trkpt>
      <trkpt lat="42.63547" lon="1.68757">
        <ele>1917.01</ele>
        <time>2014-05-10T07:01:33Z</time>
      </trkpt>
      <trkpt lat="42.63545" lon="1.68749">
        <ele>1917.97</ele>
        <time>2014-05-10T07:01:45Z</time>
      </trkpt>
      <trkpt lat="42.63541" lon="1.68736">
        <ele>1921.81</ele>
        <time>2014-05-10T07:02:00Z</time>
      </trkpt>
      <trkpt lat="42.63541" lon="1.68735">
        <ele>1921.81</ele>
        <time>2014-05-10T07:02:03Z</time>
      </trkpt>
      <trkpt lat="42.63539" lon="1.68737">
        <ele>1923.25</ele>
        <time>2014-05-10T07:02:12Z</time>
      </trkpt>
      <trkpt lat="42.63533" lon="1.68744">
        <ele>1925.66</ele>
        <time>2014-05-10T07:02:24Z</time>
      </trkpt>
      <trkpt lat="42.6353" lon="1.68741">
        <ele>1928.54</ele>
        <time>2014-05-10T07:02:35Z</time>
      </trkpt>
      <trkpt lat="42.63529" lon="1.68739">
        <ele>1929.02</ele>
        <time>2014-05-10T07:02:37Z</time>
      </trkpt>
      <trkpt lat="42.63526" lon="1.68729">
        <ele>1931.43</ele>
        <time>2014-05-10T07:02:51Z</time>
      </trkpt>
      <trkpt lat="42.63523" lon="1.68715">
        <ele>1935.27</ele>
        <time>2014-05-10T07:03:07Z</time>
      </trkpt>
      <trkpt lat="42.63521" lon="1.68705">
        <ele>1937.67</ele>
        <time>2014-05-10T07:03:21Z</time>
      </trkpt>
      <trkpt lat="42.63518" lon="1.68696">
        <ele>1941.04</ele>
        <time>2014-05-10T07:03:36Z</time>
      </trkpt>
      <trkpt lat="42.63515" lon="1.68686">
        <ele>1943.92</ele>
        <time>2014-05-10T07:03:50Z</time>
      </trkpt>
      <trkpt lat="42.63512" lon="1.68676">
        <ele>1946.33</ele>
        <time>2014-05-10T07:04:06Z</time>
      </trkpt>
      <trkpt lat="42.63509" lon="1.68669">
        <ele>1950.17</ele>
        <time>2014-05-10T07:04:19Z</time>
      </trkpt>
      <trkpt lat="42.63505" lon="1.68654">
        <ele>1954.5</ele>
        <time>2014-05-10T07:04:37Z</time>
      </trkpt>
      <trkpt lat="42.63504" lon="1.68647">
        <ele>1955.94</ele>
        <time>2014-05-10T07:04:48Z</time>
      </trkpt>
      <trkpt lat="42.63501" lon="1.68657">
        <ele>1957.38</ele>
        <time>2014-05-10T07:05:01Z</time>
      </trkpt>
      <trkpt lat="42.63496" lon="1.68657">
        <ele>1957.86</ele>
        <time>2014-05-10T07:05:13Z</time>
      </trkpt>
      <trkpt lat="42.63493" lon="1.68646">
        <ele>1960.27</ele>
        <time>2014-05-10T07:05:27Z</time>
      </trkpt>
      <trkpt lat="42.6349" lon="1.68635">
        <ele>1961.23</ele>
        <time>2014-05-10T07:05:43Z</time>
      </trkpt>
      <trkpt lat="42.63487" lon="1.68622">
        <ele>1964.59</ele>
        <time>2014-05-10T07:05:58Z</time>
      </trkpt>
      <trkpt lat="42.63484" lon="1.6861">
        <ele>1966.51</ele>
        <time>2014-05-10T07:06:14Z</time>
      </trkpt>
      <trkpt lat="42.63481" lon="1.686">
        <ele>1970.36</ele>
        <time>2014-05-10T07:06:30Z</time>
      </trkpt>
      <trkpt lat="42.63478" lon="1.68586">
        <ele>1970.84</ele>
        <time>2014-05-10T07:06:45Z</time>
      </trkpt>
      <trkpt lat="42.63476" lon="1.68577">
        <ele>1973.72</ele>
        <time>2014-05-10T07:06:59Z</time>
      </trkpt>
      <trkpt lat="42.63473" lon="1.68567">
        <ele>1978.05</ele>
        <time>2014-05-10T07:07:12Z</time>
      </trkpt>
      <trkpt lat="42.63471" lon="1.68559">
        <ele>1980.93</ele>
        <time>2014-05-10T07:07:26Z</time>
      </trkpt>
      <trkpt lat="42.63467" lon="1.6855">
        <ele>1982.86</ele>
        <time>2014-05-10T07:07:40Z</time>
      </trkpt>
      <trkpt lat="42.63465" lon="1.6854">
        <ele>1985.74</ele>
        <time>2014-05-10T07:07:54Z</time>
      </trkpt>
      <trkpt lat="42.63462" lon="1.68533">
        <ele>1987.18</ele>
        <time>2014-05-10T07:08:09Z</time>
      </trkpt>
      <trkpt lat="42.63458" lon="1.68522">
        <ele>1990.55</ele>
        <time>2014-05-10T07:08:21Z</time>
      </trkpt>
      <trkpt lat="42.63454" lon="1.68515">
        <ele>1993.91</ele>
        <time>2014-05-10T07:08:38Z</time>
      </trkpt>
      <trkpt lat="42.63453" lon="1.68513">
        <ele>1994.87</ele>
        <time>2014-05-10T07:08:51Z</time>
      </trkpt>
      <trkpt lat="42.63448" lon="1.68499">
        <ele>1998.24</ele>
        <time>2014-05-10T07:09:11Z</time>
      </trkpt>
      <trkpt lat="42.63448" lon="1.68503">
        <ele>1998.24</ele>
        <time>2014-05-10T07:09:20Z</time>
      </trkpt>
      <trkpt lat="42.63447" lon="1.68507">
        <ele>2000.64</ele>
        <time>2014-05-10T07:09:32Z</time>
      </trkpt>
      <trkpt lat="42.63448" lon="1.68509">
        <ele>2001.6</ele>
        <time>2014-05-10T07:09:42Z</time>
      </trkpt>
      <trkpt lat="42.63446" lon="1.68509">
        <ele>2000.64</ele>
        <time>2014-05-10T07:09:51Z</time>
      </trkpt>
      <trkpt lat="42.63445" lon="1.68512">
        <ele>2000.64</ele>
        <time>2014-05-10T07:10:01Z</time>
      </trkpt>
      <trkpt lat="42.63441" lon="1.68523">
        <ele>2002.08</ele>
        <time>2014-05-10T07:10:15Z</time>
      </trkpt>
      <trkpt lat="42.63439" lon="1.68527">
        <ele>2003.04</ele>
        <time>2014-05-10T07:10:25Z</time>
      </trkpt>
      <trkpt lat="42.63435" lon="1.68539">
        <ele>2004.49</ele>
        <time>2014-05-10T07:10:41Z</time>
      </trkpt>
      <trkpt lat="42.63434" lon="1.68539">
        <ele>2006.89</ele>
        <time>2014-05-10T07:10:54Z</time>
      </trkpt>
      <trkpt lat="42.63427" lon="1.68524">
        <ele>2009.77</ele>
        <time>2014-05-10T07:11:14Z</time>
      </trkpt>
      <trkpt lat="42.63426" lon="1.6852">
        <ele>2012.18</ele>
        <time>2014-05-10T07:11:26Z</time>
      </trkpt>
      <trkpt lat="42.6342" lon="1.6851">
        <ele>2015.06</ele>
        <time>2014-05-10T07:11:41Z</time>
      </trkpt>
      <trkpt lat="42.63418" lon="1.68498">
        <ele>2018.43</ele>
        <time>2014-05-10T07:11:55Z</time>
      </trkpt>
      <trkpt lat="42.63417" lon="1.68491">
        <ele>2020.35</ele>
        <time>2014-05-10T07:12:08Z</time>
      </trkpt>
      <trkpt lat="42.63413" lon="1.68481">
        <ele>2020.83</ele>
        <time>2014-05-10T07:12:24Z</time>
      </trkpt>
      <trkpt lat="42.63411" lon="1.68472">
        <ele>2022.75</ele>
        <time>2014-05-10T07:12:36Z</time>
      </trkpt>
      <trkpt lat="42.63409" lon="1.68462">
        <ele>2026.6</ele>
        <time>2014-05-10T07:12:51Z</time>
      </trkpt>
      <trkpt lat="42.63406" lon="1.6845">
        <ele>2028.52</ele>
        <time>2014-05-10T07:13:06Z</time>
      </trkpt>
      <trkpt lat="42.63403" lon="1.68439">
        <ele>2031.4</ele>
        <time>2014-05-10T07:13:20Z</time>
      </trkpt>
      <trkpt lat="42.63404" lon="1.68438">
        <ele>2029.48</ele>
        <time>2014-05-10T07:13:29Z</time>
      </trkpt>
      <trkpt lat="42.63398" lon="1.68428">
        <ele>2034.77</ele>
        <time>2014-05-10T07:13:46Z</time>
      </trkpt>
      <trkpt lat="42.63392" lon="1.68417">
        <ele>2035.25</ele>
        <time>2014-05-10T07:14:01Z</time>
      </trkpt>
      <trkpt lat="42.63386" lon="1.68411">
        <ele>2038.13</ele>
        <time>2014-05-10T07:14:14Z</time>
      </trkpt>
      <trkpt lat="42.63387" lon="1.68412">
        <ele>2037.65</ele>
        <time>2014-05-10T07:14:30Z</time>
      </trkpt>
      <trkpt lat="42.63388" lon="1.68412">
        <ele>2039.09</ele>
        <time>2014-05-10T07:14:52Z</time>
      </trkpt>
      <trkpt lat="42.63388" lon="1.68416">
        <ele>2040.05</ele>
        <time>2014-05-10T07:15:13Z</time>
      </trkpt>
      <trkpt lat="42.63389" lon="1.68411">
        <ele>2041.5</ele>
        <time>2014-05-10T07:15:41Z</time>
      </trkpt>
      <trkpt lat="42.6339" lon="1.68411">
        <ele>2041.02</ele>
        <time>2014-05-10T07:15:54Z</time>
      </trkpt>
      <trkpt lat="42.63391" lon="1.68411">
        <ele>2040.54</ele>
        <time>2014-05-10T07:16:18Z</time>
      </trkpt>
      <trkpt lat="42.63389" lon="1.68413">
        <ele>2040.54</ele>
        <time>2014-05-10T07:16:46Z</time>
      </trkpt>
      <trkpt lat="42.63385" lon="1.68408">
        <ele>2041.5</ele>
        <time>2014-05-10T07:17:04Z</time>
      </trkpt>
      <trkpt lat="42.63377" lon="1.68401">
        <ele>2041.5</ele>
        <time>2014-05-10T07:17:18Z</time>
      </trkpt>
      <trkpt lat="42.63368" lon="1.68395">
        <ele>2042.46</ele>
        <time>2014-05-10T07:17:32Z</time>
      </trkpt>
      <trkpt lat="42.63361" lon="1.68391">
        <ele>2044.86</ele>
        <time>2014-05-10T07:17:47Z</time>
      </trkpt>
      <trkpt lat="42.63353" lon="1.68383">
        <ele>2048.23</ele>
        <time>2014-05-10T07:18:02Z</time>
      </trkpt>
      <trkpt lat="42.63345" lon="1.68377">
        <ele>2050.63</ele>
        <time>2014-05-10T07:18:16Z</time>
      </trkpt>
      <trkpt lat="42.63337" lon="1.68372">
        <ele>2051.59</ele>
        <time>2014-05-10T07:18:31Z</time>
      </trkpt>
      <trkpt lat="42.63328" lon="1.68365">
        <ele>2054.96</ele>
        <time>2014-05-10T07:18:48Z</time>
      </trkpt>
      <trkpt lat="42.6332" lon="1.68358">
        <ele>2057.36</ele>
        <time>2014-05-10T07:19:05Z</time>
      </trkpt>
      <trkpt lat="42.63314" lon="1.68354">
        <ele>2060.72</ele>
        <time>2014-05-10T07:19:19Z</time>
      </trkpt>
      <trkpt lat="42.63304" lon="1.68347">
        <ele>2062.17</ele>
        <time>2014-05-10T07:19:35Z</time>
      </trkpt>
      <trkpt lat="42.63299" lon="1.68343">
        <ele>2063.61</ele>
        <time>2014-05-10T07:19:48Z</time>
      </trkpt>
      <trkpt lat="42.63292" lon="1.68338">
        <ele>2066.01</ele>
        <time>2014-05-10T07:20:02Z</time>
      </trkpt>
      <trkpt lat="42.63284" lon="1.68333">
        <ele>2068.89</ele>
        <time>2014-05-10T07:20:18Z</time>
      </trkpt>
      <trkpt lat="42.63278" lon="1.68328">
        <ele>2071.78</ele>
        <time>2014-05-10T07:20:32Z</time>
      </trkpt>
      <trkpt lat="42.63271" lon="1.68323">
        <ele>2074.66</ele>
        <time>2014-05-10T07:20:47Z</time>
      </trkpt>
      <trkpt lat="42.63264" lon="1.68317">
        <ele>2075.14</ele>
        <time>2014-05-10T07:21:02Z</time>
      </trkpt>
      <trkpt lat="42.63259" lon="1.68312">
        <ele>2078.99</ele>
        <time>2014-05-10T07:21:17Z</time>
      </trkpt>
      <trkpt lat="42.63256" lon="1.68313">
        <ele>2078.99</ele>
        <time>2014-05-10T07:21:30Z</time>
      </trkpt>
      <trkpt lat="42.63255" lon="1.68318">
        <ele>2079.47</ele>
        <time>2014-05-10T07:21:42Z</time>
      </trkpt>
      <trkpt lat="42.6325" lon="1.6833">
        <ele>2081.87</ele>
        <time>2014-05-10T07:21:57Z</time>
      </trkpt>
      <trkpt lat="42.63246" lon="1.68339">
        <ele>2085.72</ele>
        <time>2014-05-10T07:22:11Z</time>
      </trkpt>
      <trkpt lat="42.63243" lon="1.68351">
        <ele>2088.12</ele>
        <time>2014-05-10T07:22:29Z</time>
      </trkpt>
      <trkpt lat="42.63239" lon="1.68362">
        <ele>2089.56</ele>
        <time>2014-05-10T07:22:44Z</time>
      </trkpt>
      <trkpt lat="42.63236" lon="1.68372">
        <ele>2092.93</ele>
        <time>2014-05-10T07:22:58Z</time>
      </trkpt>
      <trkpt lat="42.63231" lon="1.68386">
        <ele>2094.37</ele>
        <time>2014-05-10T07:23:16Z</time>
      </trkpt>
      <trkpt lat="42.63228" lon="1.68394">
        <ele>2098.21</ele>
        <time>2014-05-10T07:23:29Z</time>
      </trkpt>
      <trkpt lat="42.63227" lon="1.68404">
        <ele>2100.14</ele>
        <time>2014-05-10T07:23:44Z</time>
      </trkpt>
      <trkpt lat="42.63224" lon="1.68414">
        <ele>2102.06</ele>
        <time>2014-05-10T07:23:58Z</time>
      </trkpt>
      <trkpt lat="42.63223" lon="1.68425">
        <ele>2104.94</ele>
        <time>2014-05-10T07:24:13Z</time>
      </trkpt>
      <trkpt lat="42.63223" lon="1.68436">
        <ele>2107.83</ele>
        <time>2014-05-10T07:24:28Z</time>
      </trkpt>
      <trkpt lat="42.63221" lon="1.68447">
        <ele>2110.23</ele>
        <time>2014-05-10T07:24:43Z</time>
      </trkpt>
      <trkpt lat="42.63221" lon="1.68458">
        <ele>2113.12</ele>
        <time>2014-05-10T07:24:58Z</time>
      </trkpt>
      <trkpt lat="42.63222" lon="1.68467">
        <ele>2115.52</ele>
        <time>2014-05-10T07:25:14Z</time>
      </trkpt>
      <trkpt lat="42.63221" lon="1.68476">
        <ele>2117.92</ele>
        <time>2014-05-10T07:25:25Z</time>
      </trkpt>
      <trkpt lat="42.6322" lon="1.68483">
        <ele>2119.36</ele>
        <time>2014-05-10T07:25:39Z</time>
      </trkpt>
      <trkpt lat="42.63216" lon="1.68493">
        <ele>2120.81</ele>
        <time>2014-05-10T07:25:51Z</time>
      </trkpt>
      <trkpt lat="42.63213" lon="1.68503">
        <ele>2124.17</ele>
        <time>2014-05-10T07:26:06Z</time>
      </trkpt>
      <trkpt lat="42.63209" lon="1.68513">
        <ele>2125.13</ele>
        <time>2014-05-10T07:26:20Z</time>
      </trkpt>
      <trkpt lat="42.63206" lon="1.68521">
        <ele>2129.46</ele>
        <time>2014-05-10T07:26:32Z</time>
      </trkpt>
      <trkpt lat="42.63205" lon="1.68526">
        <ele>2131.38</ele>
        <time>2014-05-10T07:26:45Z</time>
      </trkpt>
      <trkpt lat="42.63201" lon="1.68527">
        <ele>2132.82</ele>
        <time>2014-05-10T07:26:58Z</time>
      </trkpt>
      <trkpt lat="42.63197" lon="1.68523">
        <ele>2135.71</ele>
        <time>2014-05-10T07:27:11Z</time>
      </trkpt>
      <trkpt lat="42.63191" lon="1.68516">
        <ele>2139.07</ele>
        <time>2014-05-10T07:27:26Z</time>
      </trkpt>
      <trkpt lat="42.63185" lon="1.68509">
        <ele>2140.99</ele>
        <time>2014-05-10T07:27:41Z</time>
      </trkpt>
      <trkpt lat="42.63184" lon="1.68506">
        <ele>2142.92</ele>
        <time>2014-05-10T07:27:57Z</time>
      </trkpt>
      <trkpt lat="42.6318" lon="1.68502">
        <ele>2143.88</ele>
        <time>2014-05-10T07:28:17Z</time>
      </trkpt>
      <trkpt lat="42.63173" lon="1.68491">
        <ele>2145.8</ele>
        <time>2014-05-10T07:28:34Z</time>
      </trkpt>
      <trkpt lat="42.6317" lon="1.68486">
        <ele>2147.72</ele>
        <time>2014-05-10T07:28:46Z</time>
      </trkpt>
      <trkpt lat="42.6317" lon="1.68488">
        <ele>2147.72</ele>
        <time>2014-05-10T07:28:58Z</time>
      </trkpt>
      <trkpt lat="42.63168" lon="1.68497">
        <ele>2148.2</ele>
        <time>2014-05-10T07:29:11Z</time>
      </trkpt>
      <trkpt lat="42.63166" lon="1.68503">
        <ele>2151.57</ele>
        <time>2014-05-10T07:29:23Z</time>
      </trkpt>
      <trkpt lat="42.63165" lon="1.68512">
        <ele>2153.49</ele>
        <time>2014-05-10T07:29:38Z</time>
      </trkpt>
      <trkpt lat="42.63159" lon="1.68506">
        <ele>2154.93</ele>
        <time>2014-05-10T07:29:51Z</time>
      </trkpt>
      <trkpt lat="42.63157" lon="1.68501">
        <ele>2154.45</ele>
        <time>2014-05-10T07:29:58Z</time>
      </trkpt>
      <trkpt lat="42.63152" lon="1.68491">
        <ele>2156.86</ele>
        <time>2014-05-10T07:30:13Z</time>
      </trkpt>
      <trkpt lat="42.63149" lon="1.68479">
        <ele>2158.78</ele>
        <time>2014-05-10T07:30:28Z</time>
      </trkpt>
      <trkpt lat="42.63147" lon="1.68467">
        <ele>2159.74</ele>
        <time>2014-05-10T07:30:43Z</time>
      </trkpt>
      <trkpt lat="42.63144" lon="1.68457">
        <ele>2162.62</ele>
        <time>2014-05-10T07:30:58Z</time>
      </trkpt>
      <trkpt lat="42.63138" lon="1.68446">
        <ele>2166.95</ele>
        <time>2014-05-10T07:31:14Z</time>
      </trkpt>
      <trkpt lat="42.63132" lon="1.68435">
        <ele>2168.39</ele>
        <time>2014-05-10T07:31:27Z</time>
      </trkpt>
      <trkpt lat="42.63124" lon="1.68425">
        <ele>2169.35</ele>
        <time>2014-05-10T07:31:41Z</time>
      </trkpt>
      <trkpt lat="42.63115" lon="1.68413">
        <ele>2171.27</ele>
        <time>2014-05-10T07:31:59Z</time>
      </trkpt>
      <trkpt lat="42.63111" lon="1.68404">
        <ele>2172.72</ele>
        <time>2014-05-10T07:32:11Z</time>
      </trkpt>
      <trkpt lat="42.63107" lon="1.68394">
        <ele>2175.6</ele>
        <time>2014-05-10T07:32:24Z</time>
      </trkpt>
      <trkpt lat="42.63104" lon="1.68383">
        <ele>2177.52</ele>
        <time>2014-05-10T07:32:40Z</time>
      </trkpt>
      <trkpt lat="42.63101" lon="1.68373">
        <ele>2179.45</ele>
        <time>2014-05-10T07:32:55Z</time>
      </trkpt>
      <trkpt lat="42.63097" lon="1.68362">
        <ele>2180.89</ele>
        <time>2014-05-10T07:33:10Z</time>
      </trkpt>
      <trkpt lat="42.63095" lon="1.68352">
        <ele>2183.77</ele>
        <time>2014-05-10T07:33:24Z</time>
      </trkpt>
      <trkpt lat="42.63091" lon="1.68341">
        <ele>2184.73</ele>
        <time>2014-05-10T07:33:40Z</time>
      </trkpt>
      <trkpt lat="42.63088" lon="1.68329">
        <ele>2186.18</ele>
        <time>2014-05-10T07:33:55Z</time>
      </trkpt>
      <trkpt lat="42.63087" lon="1.68321">
        <ele>2187.14</ele>
        <time>2014-05-10T07:34:08Z</time>
      </trkpt>
      <trkpt lat="42.63085" lon="1.68311">
        <ele>2191.46</ele>
        <time>2014-05-10T07:34:22Z</time>
      </trkpt>
      <trkpt lat="42.63084" lon="1.683">
        <ele>2195.31</ele>
        <time>2014-05-10T07:34:38Z</time>
      </trkpt>
      <trkpt lat="42.63082" lon="1.68288">
        <ele>2198.67</ele>
        <time>2014-05-10T07:34:52Z</time>
      </trkpt>
      <trkpt lat="42.6308" lon="1.68277">
        <ele>2202.52</ele>
        <time>2014-05-10T07:35:07Z</time>
      </trkpt>
      <trkpt lat="42.63076" lon="1.68265">
        <ele>2205.4</ele>
        <time>2014-05-10T07:35:23Z</time>
      </trkpt>
      <trkpt lat="42.63074" lon="1.68255">
        <ele>2207.81</ele>
        <time>2014-05-10T07:35:37Z</time>
      </trkpt>
      <trkpt lat="42.63072" lon="1.68247">
        <ele>2209.73</ele>
        <time>2014-05-10T07:35:51Z</time>
      </trkpt>
      <trkpt lat="42.6307" lon="1.68238">
        <ele>2211.65</ele>
        <time>2014-05-10T07:36:04Z</time>
      </trkpt>
      <trkpt lat="42.63066" lon="1.68229">
        <ele>2213.57</ele>
        <time>2014-05-10T07:36:18Z</time>
      </trkpt>
      <trkpt lat="42.63064" lon="1.6822">
        <ele>2215.98</ele>
        <time>2014-05-10T07:36:32Z</time>
      </trkpt>
      <trkpt lat="42.63062" lon="1.6821">
        <ele>2221.74</ele>
        <time>2014-05-10T07:36:46Z</time>
      </trkpt>
      <trkpt lat="42.6306" lon="1.682">
        <ele>2224.15</ele>
        <time>2014-05-10T07:37:02Z</time>
      </trkpt>
      <trkpt lat="42.63058" lon="1.68199">
        <ele>2227.51</ele>
        <time>2014-05-10T07:37:13Z</time>
      </trkpt>
      <trkpt lat="42.63055" lon="1.68204">
        <ele>2229.92</ele>
        <time>2014-05-10T07:37:24Z</time>
      </trkpt>
      <trkpt lat="42.63051" lon="1.6821">
        <ele>2234.24</ele>
        <time>2014-05-10T07:37:37Z</time>
      </trkpt>
      <trkpt lat="42.63048" lon="1.68215">
        <ele>2235.68</ele>
        <time>2014-05-10T07:37:53Z</time>
      </trkpt>
      <trkpt lat="42.63043" lon="1.68221">
        <ele>2238.09</ele>
        <time>2014-05-10T07:38:08Z</time>
      </trkpt>
      <trkpt lat="42.63039" lon="1.68214">
        <ele>2239.05</ele>
        <time>2014-05-10T07:38:21Z</time>
      </trkpt>
      <trkpt lat="42.63036" lon="1.68208">
        <ele>2238.09</ele>
        <time>2014-05-10T07:38:33Z</time>
      </trkpt>
      <trkpt lat="42.6303" lon="1.68197">
        <ele>2240.49</ele>
        <time>2014-05-10T07:38:50Z</time>
      </trkpt>
      <trkpt lat="42.63027" lon="1.68187">
        <ele>2243.85</ele>
        <time>2014-05-10T07:39:06Z</time>
      </trkpt>
      <trkpt lat="42.63023" lon="1.68177">
        <ele>2245.3</ele>
        <time>2014-05-10T07:39:21Z</time>
      </trkpt>
      <trkpt lat="42.63022" lon="1.68167">
        <ele>2249.14</ele>
        <time>2014-05-10T07:39:37Z</time>
      </trkpt>
      <trkpt lat="42.63017" lon="1.68157">
        <ele>2250.1</ele>
        <time>2014-05-10T07:39:52Z</time>
      </trkpt>
      <trkpt lat="42.63014" lon="1.68146">
        <ele>2251.54</ele>
        <time>2014-05-10T07:40:09Z</time>
      </trkpt>
      <trkpt lat="42.63011" lon="1.68135">
        <ele>2254.91</ele>
        <time>2014-05-10T07:40:25Z</time>
      </trkpt>
      <trkpt lat="42.63008" lon="1.68126">
        <ele>2258.27</ele>
        <time>2014-05-10T07:40:41Z</time>
      </trkpt>
      <trkpt lat="42.63004" lon="1.68116">
        <ele>2262.12</ele>
        <time>2014-05-10T07:40:57Z</time>
      </trkpt>
      <trkpt lat="42.62999" lon="1.68107">
        <ele>2263.56</ele>
        <time>2014-05-10T07:41:13Z</time>
      </trkpt>
      <trkpt lat="42.62998" lon="1.68097">
        <ele>2267.41</ele>
        <time>2014-05-10T07:41:27Z</time>
      </trkpt>
      <trkpt lat="42.62996" lon="1.68092">
        <ele>2268.85</ele>
        <time>2014-05-10T07:41:34Z</time>
      </trkpt>
      <trkpt lat="42.62992" lon="1.68083">
        <ele>2269.81</ele>
        <time>2014-05-10T07:41:49Z</time>
      </trkpt>
      <trkpt lat="42.62988" lon="1.68076">
        <ele>2271.25</ele>
        <time>2014-05-10T07:42:03Z</time>
      </trkpt>
      <trkpt lat="42.62988" lon="1.6807">
        <ele>2274.14</ele>
        <time>2014-05-10T07:42:18Z</time>
      </trkpt>
      <trkpt lat="42.62984" lon="1.68057">
        <ele>2277.5</ele>
        <time>2014-05-10T07:42:37Z</time>
      </trkpt>
      <trkpt lat="42.62981" lon="1.6805">
        <ele>2278.94</ele>
        <time>2014-05-10T07:42:48Z</time>
      </trkpt>
      <trkpt lat="42.62978" lon="1.68044">
        <ele>2281.83</ele>
        <time>2014-05-10T07:43:01Z</time>
      </trkpt>
      <trkpt lat="42.62975" lon="1.68033">
        <ele>2285.19</ele>
        <time>2014-05-10T07:43:16Z</time>
      </trkpt>
      <trkpt lat="42.62972" lon="1.68024">
        <ele>2289.52</ele>
        <time>2014-05-10T07:43:33Z</time>
      </trkpt>
      <trkpt lat="42.62968" lon="1.68019">
        <ele>2291.92</ele>
        <time>2014-05-10T07:43:47Z</time>
      </trkpt>
      <trkpt lat="42.62967" lon="1.68012">
        <ele>2293.36</ele>
        <time>2014-05-10T07:44:02Z</time>
      </trkpt>
      <trkpt lat="42.62967" lon="1.68015">
        <ele>2294.32</ele>
        <time>2014-05-10T07:44:12Z</time>
      </trkpt>
      <trkpt lat="42.62965" lon="1.6802">
        <ele>2295.77</ele>
        <time>2014-05-10T07:44:25Z</time>
      </trkpt>
      <trkpt lat="42.62965" lon="1.6802">
        <ele>2297.69</ele>
        <time>2014-05-10T07:44:41Z</time>
      </trkpt>
      <trkpt lat="42.62963" lon="1.68026">
        <ele>2300.57</ele>
        <time>2014-05-10T07:44:53Z</time>
      </trkpt>
      <trkpt lat="42.6296" lon="1.68032">
        <ele>2302.98</ele>
        <time>2014-05-10T07:45:05Z</time>
      </trkpt>
      <trkpt lat="42.62957" lon="1.68039">
        <ele>2305.38</ele>
        <time>2014-05-10T07:45:18Z</time>
      </trkpt>
      <trkpt lat="42.62954" lon="1.68046">
        <ele>2307.78</ele>
        <time>2014-05-10T07:45:29Z</time>
      </trkpt>
      <trkpt lat="42.62947" lon="1.68057">
        <ele>2307.3</ele>
        <time>2014-05-10T07:45:48Z</time>
      </trkpt>
      <trkpt lat="42.62944" lon="1.68062">
        <ele>2308.74</ele>
        <time>2014-05-10T07:45:58Z</time>
      </trkpt>
      <trkpt lat="42.62941" lon="1.68066">
        <ele>2310.67</ele>
        <time>2014-05-10T07:46:10Z</time>
      </trkpt>
      <trkpt lat="42.62937" lon="1.68074">
        <ele>2312.59</ele>
        <time>2014-05-10T07:46:25Z</time>
      </trkpt>
      <trkpt lat="42.62935" lon="1.68076">
        <ele>2314.03</ele>
        <time>2014-05-10T07:46:35Z</time>
      </trkpt>
      <trkpt lat="42.62932" lon="1.68067">
        <ele>2314.99</ele>
        <time>2014-05-10T07:46:51Z</time>
      </trkpt>
      <trkpt lat="42.62929" lon="1.68058">
        <ele>2315.95</ele>
        <time>2014-05-10T07:47:06Z</time>
      </trkpt>
      <trkpt lat="42.62927" lon="1.68051">
        <ele>2318.36</ele>
        <time>2014-05-10T07:47:19Z</time>
      </trkpt>
      <trkpt lat="42.62925" lon="1.68041">
        <ele>2320.28</ele>
        <time>2014-05-10T07:47:33Z</time>
      </trkpt>
      <trkpt lat="42.62923" lon="1.68033">
        <ele>2323.16</ele>
        <time>2014-05-10T07:47:48Z</time>
      </trkpt>
      <trkpt lat="42.6292" lon="1.68025">
        <ele>2325.57</ele>
        <time>2014-05-10T07:48:03Z</time>
      </trkpt>
      <trkpt lat="42.62918" lon="1.68021">
        <ele>2327.49</ele>
        <time>2014-05-10T07:48:14Z</time>
      </trkpt>
      <trkpt lat="42.62916" lon="1.68012">
        <ele>2331.33</ele>
        <time>2014-05-10T07:48:30Z</time>
      </trkpt>
      <trkpt lat="42.62916" lon="1.68015">
        <ele>2331.81</ele>
        <time>2014-05-10T07:48:40Z</time>
      </trkpt>
      <trkpt lat="42.62914" lon="1.68021">
        <ele>2334.7</ele>
        <time>2014-05-10T07:48:55Z</time>
      </trkpt>
      <trkpt lat="42.62913" lon="1.68025">
        <ele>2336.14</ele>
        <time>2014-05-10T07:49:09Z</time>
      </trkpt>
      <trkpt lat="42.62912" lon="1.68028">
        <ele>2337.58</ele>
        <time>2014-05-10T07:49:23Z</time>
      </trkpt>
      <trkpt lat="42.6291" lon="1.68033">
        <ele>2337.58</ele>
        <time>2014-05-10T07:49:36Z</time>
      </trkpt>
      <trkpt lat="42.62907" lon="1.68037">
        <ele>2339.51</ele>
        <time>2014-05-10T07:49:47Z</time>
      </trkpt>
      <trkpt lat="42.62905" lon="1.6804">
        <ele>2338.54</ele>
        <time>2014-05-10T07:50:04Z</time>
      </trkpt>
      <trkpt lat="42.62903" lon="1.68044">
        <ele>2339.51</ele>
        <time>2014-05-10T07:50:17Z</time>
      </trkpt>
      <trkpt lat="42.62904" lon="1.68042">
        <ele>2339.51</ele>
        <time>2014-05-10T07:50:32Z</time>
      </trkpt>
      <trkpt lat="42.62904" lon="1.68042">
        <ele>2339.51</ele>
        <time>2014-05-10T07:50:45Z</time>
      </trkpt>
      <trkpt lat="42.62904" lon="1.68045">
        <ele>2339.02</ele>
        <time>2014-05-10T07:50:57Z</time>
      </trkpt>
      <trkpt lat="42.62903" lon="1.68045">
        <ele>2338.06</ele>
        <time>2014-05-10T07:51:09Z</time>
      </trkpt>
      <trkpt lat="42.62902" lon="1.68045">
        <ele>2337.1</ele>
        <time>2014-05-10T07:51:24Z</time>
      </trkpt>
      <trkpt lat="42.62899" lon="1.68045">
        <ele>2336.14</ele>
        <time>2014-05-10T07:51:39Z</time>
      </trkpt>
      <trkpt lat="42.62903" lon="1.68042">
        <ele>2339.02</ele>
        <time>2014-05-10T07:52:01Z</time>
      </trkpt>
      <trkpt lat="42.62902" lon="1.68044">
        <ele>2339.99</ele>
        <time>2014-05-10T07:52:21Z</time>
      </trkpt>
      <trkpt lat="42.62904" lon="1.68042">
        <ele>2342.39</ele>
        <time>2014-05-10T07:52:53Z</time>
      </trkpt>
      <trkpt lat="42.62903" lon="1.68044">
        <ele>2337.1</ele>
        <time>2014-05-10T07:53:25Z</time>
      </trkpt>
      <trkpt lat="42.62903" lon="1.68043">
        <ele>2337.1</ele>
        <time>2014-05-10T07:53:51Z</time>
      </trkpt>
      <trkpt lat="42.62901" lon="1.68043">
        <ele>2336.14</ele>
        <time>2014-05-10T07:54:22Z</time>
      </trkpt>
      <trkpt lat="42.62898" lon="1.68044">
        <ele>2332.78</ele>
        <time>2014-05-10T07:55:01Z</time>
      </trkpt>
      <trkpt lat="42.62895" lon="1.68044">
        <ele>2333.74</ele>
        <time>2014-05-10T07:55:30Z</time>
      </trkpt>
      <trkpt lat="42.62899" lon="1.68044">
        <ele>2335.18</ele>
        <time>2014-05-10T07:56:03Z</time>
      </trkpt>
      <trkpt lat="42.62902" lon="1.68042">
        <ele>2337.1</ele>
        <time>2014-05-10T07:56:33Z</time>
      </trkpt>
      <trkpt lat="42.62908" lon="1.68041">
        <ele>2337.58</ele>
        <time>2014-05-10T07:57:10Z</time>
      </trkpt>
      <trkpt lat="42.62904" lon="1.68042">
        <ele>2337.1</ele>
        <time>2014-05-10T07:57:42Z</time>
      </trkpt>
      <trkpt lat="42.62903" lon="1.68043">
        <ele>2338.54</ele>
        <time>2014-05-10T07:58:00Z</time>
      </trkpt>
      <trkpt lat="42.62901" lon="1.68043">
        <ele>2336.62</ele>
        <time>2014-05-10T07:58:17Z</time>
      </trkpt>
      <trkpt lat="42.62902" lon="1.68042">
        <ele>2337.58</ele>
        <time>2014-05-10T07:58:37Z</time>
      </trkpt>
      <trkpt lat="42.629" lon="1.68042">
        <ele>2337.1</ele>
        <time>2014-05-10T07:59:04Z</time>
      </trkpt>
      <trkpt lat="42.62903" lon="1.68039">
        <ele>2340.47</ele>
        <time>2014-05-10T07:59:28Z</time>
      </trkpt>
      <trkpt lat="42.62901" lon="1.6804">
        <ele>2339.02</ele>
        <time>2014-05-10T07:59:55Z</time>
      </trkpt>
      <trkpt lat="42.629" lon="1.68039">
        <ele>2339.51</ele>
        <time>2014-05-10T08:00:22Z</time>
      </trkpt>
      <trkpt lat="42.62901" lon="1.68041">
        <ele>2337.1</ele>
        <time>2014-05-10T08:00:38Z</time>
      </trkpt>
      <trkpt lat="42.62902" lon="1.68042">
        <ele>2335.18</ele>
        <time>2014-05-10T08:00:59Z</time>
      </trkpt>
      <trkpt lat="42.62901" lon="1.6804">
        <ele>2336.14</ele>
        <time>2014-05-10T08:01:13Z</time>
      </trkpt>
      <trkpt lat="42.62899" lon="1.68041">
        <ele>2338.06</ele>
        <time>2014-05-10T08:01:47Z</time>
      </trkpt>
      <trkpt lat="42.62901" lon="1.68039">
        <ele>2341.43</ele>
        <time>2014-05-10T08:02:17Z</time>
      </trkpt>
      <trkpt lat="42.62902" lon="1.6804">
        <ele>2342.87</ele>
        <time>2014-05-10T08:02:43Z</time>
      </trkpt>
      <trkpt lat="42.62904" lon="1.68042">
        <ele>2340.47</ele>
        <time>2014-05-10T08:02:58Z</time>
      </trkpt>
      <trkpt lat="42.62903" lon="1.68044">
        <ele>2341.43</ele>
        <time>2014-05-10T08:03:23Z</time>
      </trkpt>
      <trkpt lat="42.62903" lon="1.68043">
        <ele>2340.47</ele>
        <time>2014-05-10T08:03:48Z</time>
      </trkpt>
      <trkpt lat="42.62904" lon="1.68043">
        <ele>2339.02</ele>
        <time>2014-05-10T08:04:15Z</time>
      </trkpt>
      <trkpt lat="42.62904" lon="1.68043">
        <ele>2339.99</ele>
        <time>2014-05-10T08:04:35Z</time>
      </trkpt>
      <trkpt lat="42.62904" lon="1.68043">
        <ele>2340.95</ele>
        <time>2014-05-10T08:04:46Z</time>
      </trkpt>
      <trkpt lat="42.62902" lon="1.68046">
        <ele>2340.47</ele>
        <time>2014-05-10T08:05:04Z</time>
      </trkpt>
      <trkpt lat="42.629" lon="1.68046">
        <ele>2342.39</ele>
        <time>2014-05-10T08:05:18Z</time>
      </trkpt>
      <trkpt lat="42.62899" lon="1.68046">
        <ele>2342.39</ele>
        <time>2014-05-10T08:05:32Z</time>
      </trkpt>
      <trkpt lat="42.62897" lon="1.68046">
        <ele>2344.31</ele>
        <time>2014-05-10T08:05:43Z</time>
      </trkpt>
      <trkpt lat="42.62894" lon="1.68044">
        <ele>2345.75</ele>
        <time>2014-05-10T08:05:57Z</time>
      </trkpt>
      <trkpt lat="42.62892" lon="1.68043">
        <ele>2349.12</ele>
        <time>2014-05-10T08:06:10Z</time>
      </trkpt>
      <trkpt lat="42.6289" lon="1.68044">
        <ele>2348.64</ele>
        <time>2014-05-10T08:06:32Z</time>
      </trkpt>
      <trkpt lat="42.62886" lon="1.68043">
        <ele>2349.6</ele>
        <time>2014-05-10T08:06:45Z</time>
      </trkpt>
      <trkpt lat="42.62884" lon="1.68042">
        <ele>2352</ele>
        <time>2014-05-10T08:06:59Z</time>
      </trkpt>
      <trkpt lat="42.62881" lon="1.68041">
        <ele>2355.37</ele>
        <time>2014-05-10T08:07:13Z</time>
      </trkpt>
      <trkpt lat="42.62879" lon="1.68039">
        <ele>2359.21</ele>
        <time>2014-05-10T08:07:27Z</time>
      </trkpt>
      <trkpt lat="42.62877" lon="1.68039">
        <ele>2362.1</ele>
        <time>2014-05-10T08:07:39Z</time>
      </trkpt>
      <trkpt lat="42.62875" lon="1.68039">
        <ele>2363.54</ele>
        <time>2014-05-10T08:07:52Z</time>
      </trkpt>
      <trkpt lat="42.62872" lon="1.68037">
        <ele>2365.94</ele>
        <time>2014-05-10T08:08:09Z</time>
      </trkpt>
      <trkpt lat="42.62871" lon="1.68036">
        <ele>2368.83</ele>
        <time>2014-05-10T08:08:21Z</time>
      </trkpt>
      <trkpt lat="42.62869" lon="1.68035">
        <ele>2371.71</ele>
        <time>2014-05-10T08:08:34Z</time>
      </trkpt>
      <trkpt lat="42.62868" lon="1.68033">
        <ele>2373.15</ele>
        <time>2014-05-10T08:08:46Z</time>
      </trkpt>
      <trkpt lat="42.62866" lon="1.68033">
        <ele>2374.59</ele>
        <time>2014-05-10T08:08:57Z</time>
      </trkpt>
      <trkpt lat="42.62864" lon="1.68031">
        <ele>2376.52</ele>
        <time>2014-05-10T08:09:09Z</time>
      </trkpt>
      <trkpt lat="42.62861" lon="1.68032">
        <ele>2377.48</ele>
        <time>2014-05-10T08:09:21Z</time>
      </trkpt>
      <trkpt lat="42.62858" lon="1.68031">
        <ele>2378.92</ele>
        <time>2014-05-10T08:09:34Z</time>
      </trkpt>
      <trkpt lat="42.62856" lon="1.6803">
        <ele>2381.8</ele>
        <time>2014-05-10T08:09:45Z</time>
      </trkpt>
      <trkpt lat="42.62854" lon="1.68029">
        <ele>2382.28</ele>
        <time>2014-05-10T08:09:58Z</time>
      </trkpt>
      <trkpt lat="42.62854" lon="1.68028">
        <ele>2383.25</ele>
        <time>2014-05-10T08:10:09Z</time>
      </trkpt>
      <trkpt lat="42.62852" lon="1.68028">
        <ele>2384.21</ele>
        <time>2014-05-10T08:10:22Z</time>
      </trkpt>
      <trkpt lat="42.62849" lon="1.68026">
        <ele>2386.13</ele>
        <time>2014-05-10T08:10:37Z</time>
      </trkpt>
      <trkpt lat="42.62847" lon="1.68024">
        <ele>2386.13</ele>
        <time>2014-05-10T08:10:49Z</time>
      </trkpt>
      <trkpt lat="42.62846" lon="1.68023">
        <ele>2388.05</ele>
        <time>2014-05-10T08:11:00Z</time>
      </trkpt>
      <trkpt lat="42.62843" lon="1.68022">
        <ele>2389.01</ele>
        <time>2014-05-10T08:11:13Z</time>
      </trkpt>
      <trkpt lat="42.62841" lon="1.68021">
        <ele>2392.86</ele>
        <time>2014-05-10T08:11:25Z</time>
      </trkpt>
      <trkpt lat="42.62839" lon="1.68022">
        <ele>2394.3</ele>
        <time>2014-05-10T08:11:40Z</time>
      </trkpt>
      <trkpt lat="42.62837" lon="1.6802">
        <ele>2394.78</ele>
        <time>2014-05-10T08:11:58Z</time>
      </trkpt>
      <trkpt lat="42.62834" lon="1.68021">
        <ele>2396.22</ele>
        <time>2014-05-10T08:12:11Z</time>
      </trkpt>
      <trkpt lat="42.62832" lon="1.68021">
        <ele>2397.18</ele>
        <time>2014-05-10T08:12:25Z</time>
      </trkpt>
      <trkpt lat="42.62831" lon="1.6802">
        <ele>2399.11</ele>
        <time>2014-05-10T08:12:35Z</time>
      </trkpt>
      <trkpt lat="42.62829" lon="1.68019">
        <ele>2401.99</ele>
        <time>2014-05-10T08:12:47Z</time>
      </trkpt>
      <trkpt lat="42.62829" lon="1.68019">
        <ele>2406.8</ele>
        <time>2014-05-10T08:12:59Z</time>
      </trkpt>
      <trkpt lat="42.62826" lon="1.68018">
        <ele>2407.76</ele>
        <time>2014-05-10T08:13:10Z</time>
      </trkpt>
      <trkpt lat="42.62824" lon="1.68019">
        <ele>2409.2</ele>
        <time>2014-05-10T08:13:24Z</time>
      </trkpt>
      <trkpt lat="42.62822" lon="1.68018">
        <ele>2410.64</ele>
        <time>2014-05-10T08:13:37Z</time>
      </trkpt>
      <trkpt lat="42.62823" lon="1.6802">
        <ele>2413.53</ele>
        <time>2014-05-10T08:13:48Z</time>
      </trkpt>
      <trkpt lat="42.6282" lon="1.68018">
        <ele>2414.97</ele>
        <time>2014-05-10T08:14:01Z</time>
      </trkpt>
      <trkpt lat="42.62817" lon="1.68017">
        <ele>2416.89</ele>
        <time>2014-05-10T08:14:13Z</time>
      </trkpt>
      <trkpt lat="42.62814" lon="1.68017">
        <ele>2420.26</ele>
        <time>2014-05-10T08:14:27Z</time>
      </trkpt>
      <trkpt lat="42.62813" lon="1.68019">
        <ele>2420.74</ele>
        <time>2014-05-10T08:14:39Z</time>
      </trkpt>
      <trkpt lat="42.62813" lon="1.68019">
        <ele>2422.66</ele>
        <time>2014-05-10T08:14:57Z</time>
      </trkpt>
      <trkpt lat="42.6281" lon="1.68017">
        <ele>2423.62</ele>
        <time>2014-05-10T08:15:10Z</time>
      </trkpt>
      <trkpt lat="42.62807" lon="1.68015">
        <ele>2425.06</ele>
        <time>2014-05-10T08:15:21Z</time>
      </trkpt>
      <trkpt lat="42.62806" lon="1.68015">
        <ele>2427.47</ele>
        <time>2014-05-10T08:15:31Z</time>
      </trkpt>
      <trkpt lat="42.62803" lon="1.68016">
        <ele>2428.91</ele>
        <time>2014-05-10T08:15:45Z</time>
      </trkpt>
      <trkpt lat="42.62802" lon="1.68014">
        <ele>2431.79</ele>
        <time>2014-05-10T08:15:58Z</time>
      </trkpt>
      <trkpt lat="42.628" lon="1.68015">
        <ele>2433.23</ele>
        <time>2014-05-10T08:16:10Z</time>
      </trkpt>
      <trkpt lat="42.62799" lon="1.68015">
        <ele>2433.23</ele>
        <time>2014-05-10T08:16:21Z</time>
      </trkpt>
      <trkpt lat="42.62797" lon="1.68014">
        <ele>2436.12</ele>
        <time>2014-05-10T08:16:33Z</time>
      </trkpt>
      <trkpt lat="42.62795" lon="1.68013">
        <ele>2437.08</ele>
        <time>2014-05-10T08:16:47Z</time>
      </trkpt>
      <trkpt lat="42.62793" lon="1.68014">
        <ele>2438.52</ele>
        <time>2014-05-10T08:17:01Z</time>
      </trkpt>
      <trkpt lat="42.62791" lon="1.68013">
        <ele>2441.41</ele>
        <time>2014-05-10T08:17:13Z</time>
      </trkpt>
      <trkpt lat="42.6279" lon="1.68012">
        <ele>2443.81</ele>
        <time>2014-05-10T08:17:26Z</time>
      </trkpt>
      <trkpt lat="42.62787" lon="1.68013">
        <ele>2445.25</ele>
        <time>2014-05-10T08:17:37Z</time>
      </trkpt>
      <trkpt lat="42.62786" lon="1.68013">
        <ele>2445.25</ele>
        <time>2014-05-10T08:17:48Z</time>
      </trkpt>
      <trkpt lat="42.62784" lon="1.68014">
        <ele>2447.17</ele>
        <time>2014-05-10T08:18:01Z</time>
      </trkpt>
      <trkpt lat="42.62782" lon="1.68015">
        <ele>2448.62</ele>
        <time>2014-05-10T08:18:15Z</time>
      </trkpt>
      <trkpt lat="42.62782" lon="1.68016">
        <ele>2451.02</ele>
        <time>2014-05-10T08:18:28Z</time>
      </trkpt>
      <trkpt lat="42.62781" lon="1.68015">
        <ele>2450.54</ele>
        <time>2014-05-10T08:18:40Z</time>
      </trkpt>
      <trkpt lat="42.6278" lon="1.68016">
        <ele>2451.98</ele>
        <time>2014-05-10T08:18:51Z</time>
      </trkpt>
      <trkpt lat="42.62778" lon="1.68015">
        <ele>2452.46</ele>
        <time>2014-05-10T08:19:03Z</time>
      </trkpt>
      <trkpt lat="42.62776" lon="1.68016">
        <ele>2453.42</ele>
        <time>2014-05-10T08:19:14Z</time>
      </trkpt>
      <trkpt lat="42.62773" lon="1.68014">
        <ele>2453.9</ele>
        <time>2014-05-10T08:19:27Z</time>
      </trkpt>
      <trkpt lat="42.62772" lon="1.68017">
        <ele>2454.38</ele>
        <time>2014-05-10T08:19:41Z</time>
      </trkpt>
      <trkpt lat="42.62769" lon="1.68015">
        <ele>2457.27</ele>
        <time>2014-05-10T08:19:54Z</time>
      </trkpt>
      <trkpt lat="42.62767" lon="1.68015">
        <ele>2460.15</ele>
        <time>2014-05-10T08:20:06Z</time>
      </trkpt>
      <trkpt lat="42.62766" lon="1.68014">
        <ele>2462.07</ele>
        <time>2014-05-10T08:20:17Z</time>
      </trkpt>
      <trkpt lat="42.62764" lon="1.68013">
        <ele>2464.48</ele>
        <time>2014-05-10T08:20:30Z</time>
      </trkpt>
      <trkpt lat="42.62761" lon="1.68013">
        <ele>2466.88</ele>
        <time>2014-05-10T08:20:45Z</time>
      </trkpt>
      <trkpt lat="42.62759" lon="1.68013">
        <ele>2467.84</ele>
        <time>2014-05-10T08:20:57Z</time>
      </trkpt>
      <trkpt lat="42.62757" lon="1.68013">
        <ele>2467.84</ele>
        <time>2014-05-10T08:21:08Z</time>
      </trkpt>
      <trkpt lat="42.62756" lon="1.68013">
        <ele>2470.73</ele>
        <time>2014-05-10T08:21:21Z</time>
      </trkpt>
      <trkpt lat="42.62755" lon="1.68012">
        <ele>2473.13</ele>
        <time>2014-05-10T08:21:34Z</time>
      </trkpt>
      <trkpt lat="42.62755" lon="1.68013">
        <ele>2472.65</ele>
        <time>2014-05-10T08:21:46Z</time>
      </trkpt>
      <trkpt lat="42.62754" lon="1.68013">
        <ele>2472.65</ele>
        <time>2014-05-10T08:21:57Z</time>
      </trkpt>
      <trkpt lat="42.62752" lon="1.68013">
        <ele>2473.61</ele>
        <time>2014-05-10T08:22:10Z</time>
      </trkpt>
      <trkpt lat="42.6275" lon="1.68012">
        <ele>2474.57</ele>
        <time>2014-05-10T08:22:21Z</time>
      </trkpt>
      <trkpt lat="42.62749" lon="1.68011">
        <ele>2476.49</ele>
        <time>2014-05-10T08:22:32Z</time>
      </trkpt>
      <trkpt lat="42.62746" lon="1.6801">
        <ele>2477.94</ele>
        <time>2014-05-10T08:22:45Z</time>
      </trkpt>
      <trkpt lat="42.62745" lon="1.68009">
        <ele>2481.3</ele>
        <time>2014-05-10T08:22:57Z</time>
      </trkpt>
      <trkpt lat="42.62744" lon="1.68009">
        <ele>2482.26</ele>
        <time>2014-05-10T08:23:08Z</time>
      </trkpt>
      <trkpt lat="42.62742" lon="1.68008">
        <ele>2483.22</ele>
        <time>2014-05-10T08:23:18Z</time>
      </trkpt>
      <trkpt lat="42.62742" lon="1.68007">
        <ele>2485.63</ele>
        <time>2014-05-10T08:23:28Z</time>
      </trkpt>
      <trkpt lat="42.62741" lon="1.68006">
        <ele>2487.07</ele>
        <time>2014-05-10T08:23:40Z</time>
      </trkpt>
      <trkpt lat="42.62739" lon="1.68004">
        <ele>2489.47</ele>
        <time>2014-05-10T08:23:51Z</time>
      </trkpt>
      <trkpt lat="42.62737" lon="1.68004">
        <ele>2489.95</ele>
        <time>2014-05-10T08:24:04Z</time>
      </trkpt>
      <trkpt lat="42.62735" lon="1.68003">
        <ele>2492.36</ele>
        <time>2014-05-10T08:24:16Z</time>
      </trkpt>
      <trkpt lat="42.62734" lon="1.68003">
        <ele>2493.32</ele>
        <time>2014-05-10T08:24:28Z</time>
      </trkpt>
      <trkpt lat="42.62732" lon="1.68001">
        <ele>2496.2</ele>
        <time>2014-05-10T08:24:41Z</time>
      </trkpt>
      <trkpt lat="42.62732" lon="1.68001">
        <ele>2497.64</ele>
        <time>2014-05-10T08:24:55Z</time>
      </trkpt>
      <trkpt lat="42.62729" lon="1.68">
        <ele>2498.12</ele>
        <time>2014-05-10T08:25:06Z</time>
      </trkpt>
      <trkpt lat="42.62729" lon="1.67999">
        <ele>2498.6</ele>
        <time>2014-05-10T08:25:17Z</time>
      </trkpt>
      <trkpt lat="42.62727" lon="1.67999">
        <ele>2500.53</ele>
        <time>2014-05-10T08:25:32Z</time>
      </trkpt>
      <trkpt lat="42.62726" lon="1.68">
        <ele>2504.37</ele>
        <time>2014-05-10T08:25:43Z</time>
      </trkpt>
      <trkpt lat="42.62724" lon="1.68">
        <ele>2505.33</ele>
        <time>2014-05-10T08:25:59Z</time>
      </trkpt>
      <trkpt lat="42.62722" lon="1.67999">
        <ele>2506.77</ele>
        <time>2014-05-10T08:26:10Z</time>
      </trkpt>
      <trkpt lat="42.62721" lon="1.67997">
        <ele>2507.74</ele>
        <time>2014-05-10T08:26:22Z</time>
      </trkpt>
      <trkpt lat="42.62721" lon="1.67997">
        <ele>2509.66</ele>
        <time>2014-05-10T08:26:33Z</time>
      </trkpt>
      <trkpt lat="42.62719" lon="1.67995">
        <ele>2511.58</ele>
        <time>2014-05-10T08:26:42Z</time>
      </trkpt>
      <trkpt lat="42.62718" lon="1.67996">
        <ele>2512.54</ele>
        <time>2014-05-10T08:26:52Z</time>
      </trkpt>
      <trkpt lat="42.62717" lon="1.67996">
        <ele>2513.98</ele>
        <time>2014-05-10T08:27:03Z</time>
      </trkpt>
      <trkpt lat="42.62716" lon="1.67995">
        <ele>2514.47</ele>
        <time>2014-05-10T08:27:16Z</time>
      </trkpt>
      <trkpt lat="42.62715" lon="1.67995">
        <ele>2513.98</ele>
        <time>2014-05-10T08:27:29Z</time>
      </trkpt>
      <trkpt lat="42.62714" lon="1.67993">
        <ele>2514.95</ele>
        <time>2014-05-10T08:27:40Z</time>
      </trkpt>
      <trkpt lat="42.62714" lon="1.67992">
        <ele>2515.91</ele>
        <time>2014-05-10T08:27:55Z</time>
      </trkpt>
      <trkpt lat="42.62714" lon="1.6799">
        <ele>2516.39</ele>
        <time>2014-05-10T08:28:07Z</time>
      </trkpt>
      <trkpt lat="42.62713" lon="1.67989">
        <ele>2517.83</ele>
        <time>2014-05-10T08:28:22Z</time>
      </trkpt>
      <trkpt lat="42.62712" lon="1.67989">
        <ele>2517.35</ele>
        <time>2014-05-10T08:28:43Z</time>
      </trkpt>
      <trkpt lat="42.62709" lon="1.67991">
        <ele>2520.71</ele>
        <time>2014-05-10T08:29:03Z</time>
      </trkpt>
      <trkpt lat="42.62712" lon="1.67989">
        <ele>2518.79</ele>
        <time>2014-05-10T08:29:20Z</time>
      </trkpt>
      <trkpt lat="42.62715" lon="1.67991">
        <ele>2520.23</ele>
        <time>2014-05-10T08:29:38Z</time>
      </trkpt>
      <trkpt lat="42.62715" lon="1.67987">
        <ele>2520.23</ele>
        <time>2014-05-10T08:29:53Z</time>
      </trkpt>
      <trkpt lat="42.62713" lon="1.67987">
        <ele>2520.71</ele>
        <time>2014-05-10T08:30:05Z</time>
      </trkpt>
      <trkpt lat="42.62712" lon="1.67986">
        <ele>2521.68</ele>
        <time>2014-05-10T08:30:16Z</time>
      </trkpt>
      <trkpt lat="42.6271" lon="1.67985">
        <ele>2525.04</ele>
        <time>2014-05-10T08:30:28Z</time>
      </trkpt>
      <trkpt lat="42.62707" lon="1.67984">
        <ele>2527.44</ele>
        <time>2014-05-10T08:30:39Z</time>
      </trkpt>
      <trkpt lat="42.62706" lon="1.67984">
        <ele>2529.37</ele>
        <time>2014-05-10T08:30:50Z</time>
      </trkpt>
      <trkpt lat="42.62706" lon="1.67983">
        <ele>2530.81</ele>
        <time>2014-05-10T08:31:01Z</time>
      </trkpt>
      <trkpt lat="42.62704" lon="1.67984">
        <ele>2531.29</ele>
        <time>2014-05-10T08:31:16Z</time>
      </trkpt>
      <trkpt lat="42.62701" lon="1.67984">
        <ele>2530.81</ele>
        <time>2014-05-10T08:31:30Z</time>
      </trkpt>
      <trkpt lat="42.62701" lon="1.67984">
        <ele>2533.21</ele>
        <time>2014-05-10T08:31:41Z</time>
      </trkpt>
      <trkpt lat="42.627" lon="1.67984">
        <ele>2534.65</ele>
        <time>2014-05-10T08:31:52Z</time>
      </trkpt>
      <trkpt lat="42.62698" lon="1.67983">
        <ele>2536.1</ele>
        <time>2014-05-10T08:32:02Z</time>
      </trkpt>
      <trkpt lat="42.62697" lon="1.67982">
        <ele>2538.02</ele>
        <time>2014-05-10T08:32:13Z</time>
      </trkpt>
      <trkpt lat="42.62697" lon="1.67982">
        <ele>2540.42</ele>
        <time>2014-05-10T08:32:25Z</time>
      </trkpt>
      <trkpt lat="42.62695" lon="1.67981">
        <ele>2540.9</ele>
        <time>2014-05-10T08:32:37Z</time>
      </trkpt>
      <trkpt lat="42.62694" lon="1.67981">
        <ele>2542.34</ele>
        <time>2014-05-10T08:32:48Z</time>
      </trkpt>
      <trkpt lat="42.62694" lon="1.67981">
        <ele>2544.27</ele>
        <time>2014-05-10T08:32:59Z</time>
      </trkpt>
      <trkpt lat="42.62694" lon="1.67981">
        <ele>2543.79</ele>
        <time>2014-05-10T08:33:15Z</time>
      </trkpt>
      <trkpt lat="42.62691" lon="1.6798">
        <ele>2544.75</ele>
        <time>2014-05-10T08:33:28Z</time>
      </trkpt>
      <trkpt lat="42.62689" lon="1.67979">
        <ele>2546.19</ele>
        <time>2014-05-10T08:33:39Z</time>
      </trkpt>
      <trkpt lat="42.62688" lon="1.67979">
        <ele>2547.15</ele>
        <time>2014-05-10T08:33:52Z</time>
      </trkpt>
      <trkpt lat="42.62686" lon="1.6798">
        <ele>2547.63</ele>
        <time>2014-05-10T08:34:09Z</time>
      </trkpt>
      <trkpt lat="42.62685" lon="1.67978">
        <ele>2548.59</ele>
        <time>2014-05-10T08:34:21Z</time>
      </trkpt>
      <trkpt lat="42.62685" lon="1.67975">
        <ele>2550.51</ele>
        <time>2014-05-10T08:34:32Z</time>
      </trkpt>
      <trkpt lat="42.62683" lon="1.67974">
        <ele>2552.44</ele>
        <time>2014-05-10T08:34:44Z</time>
      </trkpt>
      <trkpt lat="42.62682" lon="1.67973">
        <ele>2553.88</ele>
        <time>2014-05-10T08:34:56Z</time>
      </trkpt>
      <trkpt lat="42.62682" lon="1.67972">
        <ele>2555.32</ele>
        <time>2014-05-10T08:35:08Z</time>
      </trkpt>
      <trkpt lat="42.6268" lon="1.67971">
        <ele>2556.28</ele>
        <time>2014-05-10T08:35:19Z</time>
      </trkpt>
      <trkpt lat="42.62679" lon="1.67969">
        <ele>2558.21</ele>
        <time>2014-05-10T08:35:31Z</time>
      </trkpt>
      <trkpt lat="42.62677" lon="1.67968">
        <ele>2559.65</ele>
        <time>2014-05-10T08:35:42Z</time>
      </trkpt>
      <trkpt lat="42.62676" lon="1.67967">
        <ele>2562.05</ele>
        <time>2014-05-10T08:35:55Z</time>
      </trkpt>
      <trkpt lat="42.62675" lon="1.67967">
        <ele>2562.05</ele>
        <time>2014-05-10T08:36:08Z</time>
      </trkpt>
      <trkpt lat="42.62673" lon="1.67965">
        <ele>2564.45</ele>
        <time>2014-05-10T08:36:22Z</time>
      </trkpt>
      <trkpt lat="42.62671" lon="1.67964">
        <ele>2566.38</ele>
        <time>2014-05-10T08:36:33Z</time>
      </trkpt>
      <trkpt lat="42.6267" lon="1.67963">
        <ele>2567.34</ele>
        <time>2014-05-10T08:36:43Z</time>
      </trkpt>
      <trkpt lat="42.6267" lon="1.67962">
        <ele>2568.3</ele>
        <time>2014-05-10T08:36:55Z</time>
      </trkpt>
      <trkpt lat="42.62668" lon="1.67961">
        <ele>2569.26</ele>
        <time>2014-05-10T08:37:04Z</time>
      </trkpt>
      <trkpt lat="42.62668" lon="1.6796">
        <ele>2571.66</ele>
        <time>2014-05-10T08:37:14Z</time>
      </trkpt>
      <trkpt lat="42.62666" lon="1.67959">
        <ele>2572.63</ele>
        <time>2014-05-10T08:37:24Z</time>
      </trkpt>
      <trkpt lat="42.62665" lon="1.67958">
        <ele>2574.07</ele>
        <time>2014-05-10T08:37:34Z</time>
      </trkpt>
      <trkpt lat="42.62664" lon="1.67957">
        <ele>2574.55</ele>
        <time>2014-05-10T08:37:37Z</time>
      </trkpt>
      <trkpt lat="42.62663" lon="1.67957">
        <ele>2576.47</ele>
        <time>2014-05-10T08:37:50Z</time>
      </trkpt>
      <trkpt lat="42.62661" lon="1.67958">
        <ele>2576.95</ele>
        <time>2014-05-10T08:38:01Z</time>
      </trkpt>
      <trkpt lat="42.62659" lon="1.67958">
        <ele>2577.91</ele>
        <time>2014-05-10T08:38:12Z</time>
      </trkpt>
      <trkpt lat="42.62658" lon="1.67959">
        <ele>2579.84</ele>
        <time>2014-05-10T08:38:23Z</time>
      </trkpt>
      <trkpt lat="42.62656" lon="1.67959">
        <ele>2582.24</ele>
        <time>2014-05-10T08:38:35Z</time>
      </trkpt>
      <trkpt lat="42.62653" lon="1.6796">
        <ele>2584.16</ele>
        <time>2014-05-10T08:38:59Z</time>
      </trkpt>
      <trkpt lat="42.62651" lon="1.67962">
        <ele>2586.56</ele>
        <time>2014-05-10T08:39:11Z</time>
      </trkpt>
      <trkpt lat="42.62649" lon="1.67961">
        <ele>2587.53</ele>
        <time>2014-05-10T08:39:23Z</time>
      </trkpt>
      <trkpt lat="42.62647" lon="1.6796">
        <ele>2585.12</ele>
        <time>2014-05-10T08:39:49Z</time>
      </trkpt>
      <trkpt lat="42.62647" lon="1.6796">
        <ele>2584.16</ele>
        <time>2014-05-10T08:40:11Z</time>
      </trkpt>
      <trkpt lat="42.62648" lon="1.67961">
        <ele>2584.64</ele>
        <time>2014-05-10T08:40:33Z</time>
      </trkpt>
      <trkpt lat="42.62646" lon="1.67961">
        <ele>2584.64</ele>
        <time>2014-05-10T08:40:50Z</time>
      </trkpt>
      <trkpt lat="42.62645" lon="1.67962">
        <ele>2587.04</ele>
        <time>2014-05-10T08:41:00Z</time>
      </trkpt>
      <trkpt lat="42.62644" lon="1.67964">
        <ele>2589.93</ele>
        <time>2014-05-10T08:41:13Z</time>
      </trkpt>
      <trkpt lat="42.62642" lon="1.67965">
        <ele>2592.33</ele>
        <time>2014-05-10T08:41:26Z</time>
      </trkpt>
      <trkpt lat="42.62638" lon="1.67967">
        <ele>2595.22</ele>
        <time>2014-05-10T08:41:43Z</time>
      </trkpt>
      <trkpt lat="42.62637" lon="1.67969">
        <ele>2597.14</ele>
        <time>2014-05-10T08:41:59Z</time>
      </trkpt>
      <trkpt lat="42.62634" lon="1.6797">
        <ele>2597.14</ele>
        <time>2014-05-10T08:42:11Z</time>
      </trkpt>
      <trkpt lat="42.62632" lon="1.67972">
        <ele>2599.54</ele>
        <time>2014-05-10T08:42:24Z</time>
      </trkpt>
      <trkpt lat="42.62629" lon="1.67973">
        <ele>2601.46</ele>
        <time>2014-05-10T08:42:39Z</time>
      </trkpt>
      <trkpt lat="42.62625" lon="1.67974">
        <ele>2603.39</ele>
        <time>2014-05-10T08:42:53Z</time>
      </trkpt>
      <trkpt lat="42.62625" lon="1.67975">
        <ele>2603.87</ele>
        <time>2014-05-10T08:43:06Z</time>
      </trkpt>
      <trkpt lat="42.62622" lon="1.67977">
        <ele>2605.79</ele>
        <time>2014-05-10T08:43:18Z</time>
      </trkpt>
      <trkpt lat="42.6262" lon="1.6798">
        <ele>2608.19</ele>
        <time>2014-05-10T08:43:32Z</time>
      </trkpt>
      <trkpt lat="42.62616" lon="1.67983">
        <ele>2611.08</ele>
        <time>2014-05-10T08:43:44Z</time>
      </trkpt>
      <trkpt lat="42.62613" lon="1.67983">
        <ele>2612.52</ele>
        <time>2014-05-10T08:43:58Z</time>
      </trkpt>
      <trkpt lat="42.6261" lon="1.67984">
        <ele>2614.44</ele>
        <time>2014-05-10T08:44:09Z</time>
      </trkpt>
      <trkpt lat="42.62609" lon="1.67983">
        <ele>2613.96</ele>
        <time>2014-05-10T08:44:20Z</time>
      </trkpt>
      <trkpt lat="42.62613" lon="1.67983">
        <ele>2613.96</ele>
        <time>2014-05-10T08:44:45Z</time>
      </trkpt>
      <trkpt lat="42.62613" lon="1.67985">
        <ele>2612.52</ele>
        <time>2014-05-10T08:45:05Z</time>
      </trkpt>
      <trkpt lat="42.6261" lon="1.67985">
        <ele>2616.37</ele>
        <time>2014-05-10T08:45:29Z</time>
      </trkpt>
      <trkpt lat="42.62606" lon="1.67985">
        <ele>2619.25</ele>
        <time>2014-05-10T08:45:41Z</time>
      </trkpt>
      <trkpt lat="42.62603" lon="1.67984">
        <ele>2623.09</ele>
        <time>2014-05-10T08:45:58Z</time>
      </trkpt>
      <trkpt lat="42.62599" lon="1.67985">
        <ele>2624.54</ele>
        <time>2014-05-10T08:46:07Z</time>
      </trkpt>
      <trkpt lat="42.62597" lon="1.67986">
        <ele>2626.94</ele>
        <time>2014-05-10T08:46:20Z</time>
      </trkpt>
      <trkpt lat="42.62595" lon="1.67987">
        <ele>2627.9</ele>
        <time>2014-05-10T08:46:32Z</time>
      </trkpt>
      <trkpt lat="42.62593" lon="1.67988">
        <ele>2628.86</ele>
        <time>2014-05-10T08:46:43Z</time>
      </trkpt>
      <trkpt lat="42.62591" lon="1.67989">
        <ele>2631.27</ele>
        <time>2014-05-10T08:46:54Z</time>
      </trkpt>
      <trkpt lat="42.62588" lon="1.6799">
        <ele>2632.23</ele>
        <time>2014-05-10T08:47:05Z</time>
      </trkpt>
      <trkpt lat="42.62587" lon="1.67991">
        <ele>2634.15</ele>
        <time>2014-05-10T08:47:21Z</time>
      </trkpt>
      <trkpt lat="42.62585" lon="1.67992">
        <ele>2636.55</ele>
        <time>2014-05-10T08:47:33Z</time>
      </trkpt>
      <trkpt lat="42.62581" lon="1.6799">
        <ele>2638.96</ele>
        <time>2014-05-10T08:47:45Z</time>
      </trkpt>
      <trkpt lat="42.62579" lon="1.6799">
        <ele>2640.4</ele>
        <time>2014-05-10T08:47:57Z</time>
      </trkpt>
      <trkpt lat="42.62577" lon="1.67989">
        <ele>2641.84</ele>
        <time>2014-05-10T08:48:08Z</time>
      </trkpt>
      <trkpt lat="42.62576" lon="1.67989">
        <ele>2642.8</ele>
        <time>2014-05-10T08:48:20Z</time>
      </trkpt>
      <trkpt lat="42.62574" lon="1.6799">
        <ele>2644.72</ele>
        <time>2014-05-10T08:48:36Z</time>
      </trkpt>
      <trkpt lat="42.62572" lon="1.6799">
        <ele>2645.69</ele>
        <time>2014-05-10T08:48:50Z</time>
      </trkpt>
      <trkpt lat="42.6257" lon="1.67989">
        <ele>2648.09</ele>
        <time>2014-05-10T08:49:00Z</time>
      </trkpt>
      <trkpt lat="42.62567" lon="1.6799">
        <ele>2648.57</ele>
        <time>2014-05-10T08:49:13Z</time>
      </trkpt>
      <trkpt lat="42.62565" lon="1.6799">
        <ele>2649.53</ele>
        <time>2014-05-10T08:49:25Z</time>
      </trkpt>
      <trkpt lat="42.62565" lon="1.67991">
        <ele>2650.97</ele>
        <time>2014-05-10T08:49:37Z</time>
      </trkpt>
      <trkpt lat="42.62564" lon="1.67993">
        <ele>2651.93</ele>
        <time>2014-05-10T08:49:50Z</time>
      </trkpt>
      <trkpt lat="42.62561" lon="1.67995">
        <ele>2654.82</ele>
        <time>2014-05-10T08:50:01Z</time>
      </trkpt>
      <trkpt lat="42.62559" lon="1.67997">
        <ele>2657.22</ele>
        <time>2014-05-10T08:50:13Z</time>
      </trkpt>
      <trkpt lat="42.62558" lon="1.67998">
        <ele>2658.66</ele>
        <time>2014-05-10T08:50:24Z</time>
      </trkpt>
      <trkpt lat="42.62556" lon="1.67997">
        <ele>2658.66</ele>
        <time>2014-05-10T08:50:40Z</time>
      </trkpt>
      <trkpt lat="42.62555" lon="1.67998">
        <ele>2662.03</ele>
        <time>2014-05-10T08:50:54Z</time>
      </trkpt>
      <trkpt lat="42.62553" lon="1.67999">
        <ele>2663.95</ele>
        <time>2014-05-10T08:51:05Z</time>
      </trkpt>
      <trkpt lat="42.62549" lon="1.68">
        <ele>2665.87</ele>
        <time>2014-05-10T08:51:18Z</time>
      </trkpt>
      <trkpt lat="42.62547" lon="1.68">
        <ele>2667.31</ele>
        <time>2014-05-10T08:51:30Z</time>
      </trkpt>
      <trkpt lat="42.62544" lon="1.68002">
        <ele>2669.24</ele>
        <time>2014-05-10T08:51:43Z</time>
      </trkpt>
      <trkpt lat="42.62542" lon="1.68003">
        <ele>2671.16</ele>
        <time>2014-05-10T08:51:54Z</time>
      </trkpt>
      <trkpt lat="42.62544" lon="1.68002">
        <ele>2673.08</ele>
        <time>2014-05-10T08:52:07Z</time>
      </trkpt>
      <trkpt lat="42.62545" lon="1.68003">
        <ele>2670.68</ele>
        <time>2014-05-10T08:52:34Z</time>
      </trkpt>
      <trkpt lat="42.62543" lon="1.68005">
        <ele>2674.04</ele>
        <time>2014-05-10T08:52:46Z</time>
      </trkpt>
      <trkpt lat="42.62538" lon="1.68005">
        <ele>2676.45</ele>
        <time>2014-05-10T08:52:59Z</time>
      </trkpt>
      <trkpt lat="42.62533" lon="1.68004">
        <ele>2679.33</ele>
        <time>2014-05-10T08:53:13Z</time>
      </trkpt>
      <trkpt lat="42.62531" lon="1.68002">
        <ele>2680.77</ele>
        <time>2014-05-10T08:53:25Z</time>
      </trkpt>
      <trkpt lat="42.62529" lon="1.68">
        <ele>2682.22</ele>
        <time>2014-05-10T08:53:38Z</time>
      </trkpt>
      <trkpt lat="42.62528" lon="1.67999">
        <ele>2683.66</ele>
        <time>2014-05-10T08:53:49Z</time>
      </trkpt>
      <trkpt lat="42.62527" lon="1.67997">
        <ele>2685.1</ele>
        <time>2014-05-10T08:54:01Z</time>
      </trkpt>
      <trkpt lat="42.62526" lon="1.67996">
        <ele>2686.54</ele>
        <time>2014-05-10T08:54:12Z</time>
      </trkpt>
      <trkpt lat="42.62524" lon="1.67994">
        <ele>2687.5</ele>
        <time>2014-05-10T08:54:23Z</time>
      </trkpt>
      <trkpt lat="42.62522" lon="1.67993">
        <ele>2688.46</ele>
        <time>2014-05-10T08:54:35Z</time>
      </trkpt>
      <trkpt lat="42.62521" lon="1.67992">
        <ele>2689.91</ele>
        <time>2014-05-10T08:54:47Z</time>
      </trkpt>
      <trkpt lat="42.6252" lon="1.67989">
        <ele>2690.87</ele>
        <time>2014-05-10T08:54:59Z</time>
      </trkpt>
      <trkpt lat="42.62519" lon="1.67986">
        <ele>2691.83</ele>
        <time>2014-05-10T08:55:09Z</time>
      </trkpt>
      <trkpt lat="42.62517" lon="1.67985">
        <ele>2695.19</ele>
        <time>2014-05-10T08:55:20Z</time>
      </trkpt>
      <trkpt lat="42.62516" lon="1.67986">
        <ele>2697.12</ele>
        <time>2014-05-10T08:55:31Z</time>
      </trkpt>
      <trkpt lat="42.62515" lon="1.67986">
        <ele>2697.6</ele>
        <time>2014-05-10T08:55:42Z</time>
      </trkpt>
      <trkpt lat="42.62514" lon="1.67987">
        <ele>2699.04</ele>
        <time>2014-05-10T08:55:53Z</time>
      </trkpt>
      <trkpt lat="42.62511" lon="1.67992">
        <ele>2700</ele>
        <time>2014-05-10T08:56:05Z</time>
      </trkpt>
      <trkpt lat="42.6251" lon="1.67996">
        <ele>2700.48</ele>
        <time>2014-05-10T08:56:16Z</time>
      </trkpt>
      <trkpt lat="42.62507" lon="1.67996">
        <ele>2701.44</ele>
        <time>2014-05-10T08:56:28Z</time>
      </trkpt>
      <trkpt lat="42.62507" lon="1.67993">
        <ele>2701.44</ele>
        <time>2014-05-10T08:56:38Z</time>
      </trkpt>
      <trkpt lat="42.62507" lon="1.67995">
        <ele>2702.88</ele>
        <time>2014-05-10T08:56:53Z</time>
      </trkpt>
      <trkpt lat="42.62504" lon="1.67999">
        <ele>2705.29</ele>
        <time>2014-05-10T08:57:06Z</time>
      </trkpt>
      <trkpt lat="42.62502" lon="1.68004">
        <ele>2707.21</ele>
        <time>2014-05-10T08:57:19Z</time>
      </trkpt>
      <trkpt lat="42.625" lon="1.68004">
        <ele>2705.77</ele>
        <time>2014-05-10T08:57:42Z</time>
      </trkpt>
      <trkpt lat="42.625" lon="1.68001">
        <ele>2705.77</ele>
        <time>2014-05-10T08:58:02Z</time>
      </trkpt>
      <trkpt lat="42.625" lon="1.67999">
        <ele>2706.73</ele>
        <time>2014-05-10T08:58:25Z</time>
      </trkpt>
      <trkpt lat="42.625" lon="1.68004">
        <ele>2707.69</ele>
        <time>2014-05-10T08:58:37Z</time>
      </trkpt>
      <trkpt lat="42.62501" lon="1.68005">
        <ele>2707.69</ele>
        <time>2014-05-10T08:58:41Z</time>
      </trkpt>
      <trkpt lat="42.62501" lon="1.68013">
        <ele>2707.69</ele>
        <time>2014-05-10T08:58:54Z</time>
      </trkpt>
      <trkpt lat="42.625" lon="1.68018">
        <ele>2707.69</ele>
        <time>2014-05-10T08:59:06Z</time>
      </trkpt>
      <trkpt lat="42.62501" lon="1.68023">
        <ele>2708.17</ele>
        <time>2014-05-10T08:59:15Z</time>
      </trkpt>
      <trkpt lat="42.62498" lon="1.68029">
        <ele>2710.57</ele>
        <time>2014-05-10T08:59:27Z</time>
      </trkpt>
      <trkpt lat="42.62496" lon="1.68034">
        <ele>2711.06</ele>
        <time>2014-05-10T08:59:39Z</time>
      </trkpt>
      <trkpt lat="42.62493" lon="1.68036">
        <ele>2713.94</ele>
        <time>2014-05-10T08:59:51Z</time>
      </trkpt>
      <trkpt lat="42.62492" lon="1.68039">
        <ele>2715.38</ele>
        <time>2014-05-10T09:00:01Z</time>
      </trkpt>
      <trkpt lat="42.62492" lon="1.68043">
        <ele>2713.94</ele>
        <time>2014-05-10T09:00:11Z</time>
      </trkpt>
      <trkpt lat="42.62492" lon="1.68047">
        <ele>2714.42</ele>
        <time>2014-05-10T09:00:24Z</time>
      </trkpt>
      <trkpt lat="42.62491" lon="1.68054">
        <ele>2716.34</ele>
        <time>2014-05-10T09:00:35Z</time>
      </trkpt>
      <trkpt lat="42.62492" lon="1.68059">
        <ele>2717.3</ele>
        <time>2014-05-10T09:00:45Z</time>
      </trkpt>
      <trkpt lat="42.62491" lon="1.68063">
        <ele>2720.19</ele>
        <time>2014-05-10T09:00:56Z</time>
      </trkpt>
      <trkpt lat="42.6249" lon="1.68064">
        <ele>2720.67</ele>
        <time>2014-05-10T09:01:00Z</time>
      </trkpt>
      <trkpt lat="42.62491" lon="1.68067">
        <ele>2722.11</ele>
        <time>2014-05-10T09:01:14Z</time>
      </trkpt>
      <trkpt lat="42.62491" lon="1.68072">
        <ele>2723.07</ele>
        <time>2014-05-10T09:01:26Z</time>
      </trkpt>
      <trkpt lat="42.62491" lon="1.68073">
        <ele>2724.51</ele>
        <time>2014-05-10T09:01:38Z</time>
      </trkpt>
      <trkpt lat="42.62492" lon="1.68075">
        <ele>2724.99</ele>
        <time>2014-05-10T09:01:49Z</time>
      </trkpt>
      <trkpt lat="42.62489" lon="1.68081">
        <ele>2726.92</ele>
        <time>2014-05-10T09:02:00Z</time>
      </trkpt>
      <trkpt lat="42.62488" lon="1.68082">
        <ele>2728.84</ele>
        <time>2014-05-10T09:02:26Z</time>
      </trkpt>
      <trkpt lat="42.62489" lon="1.68083">
        <ele>2725.48</ele>
        <time>2014-05-10T09:02:54Z</time>
      </trkpt>
      <trkpt lat="42.62489" lon="1.68083">
        <ele>2723.55</ele>
        <time>2014-05-10T09:03:27Z</time>
      </trkpt>
      <trkpt lat="42.62489" lon="1.68084">
        <ele>2720.67</ele>
        <time>2014-05-10T09:04:05Z</time>
      </trkpt>
      <trkpt lat="42.62486" lon="1.68086">
        <ele>2722.59</ele>
        <time>2014-05-10T09:04:11Z</time>
      </trkpt>
      <trkpt lat="42.62487" lon="1.68091">
        <ele>2724.99</ele>
        <time>2014-05-10T09:04:21Z</time>
      </trkpt>
      <trkpt lat="42.62487" lon="1.68094">
        <ele>2725.48</ele>
        <time>2014-05-10T09:04:27Z</time>
      </trkpt>
      <trkpt lat="42.62487" lon="1.68097">
        <ele>2725.48</ele>
        <time>2014-05-10T09:04:29Z</time>
      </trkpt>
      <trkpt lat="42.62488" lon="1.68107">
        <ele>2724.99</ele>
        <time>2014-05-10T09:04:40Z</time>
      </trkpt>
      <trkpt lat="42.62489" lon="1.68112">
        <ele>2724.99</ele>
        <time>2014-05-10T09:04:47Z</time>
      </trkpt>
      <trkpt lat="42.62489" lon="1.68121">
        <ele>2725.48</ele>
        <time>2014-05-10T09:04:58Z</time>
      </trkpt>
      <trkpt lat="42.62489" lon="1.68123">
        <ele>2725.48</ele>
        <time>2014-05-10T09:05:00Z</time>
      </trkpt>
      <trkpt lat="42.6249" lon="1.68136">
        <ele>2725.96</ele>
        <time>2014-05-10T09:05:13Z</time>
      </trkpt>
      <trkpt lat="42.6249" lon="1.6814">
        <ele>2727.4</ele>
        <time>2014-05-10T09:05:28Z</time>
      </trkpt>
      <trkpt lat="42.62488" lon="1.68148">
        <ele>2726.44</ele>
        <time>2014-05-10T09:05:50Z</time>
      </trkpt>
      <trkpt lat="42.62489" lon="1.68154">
        <ele>2731.24</ele>
        <time>2014-05-10T09:06:01Z</time>
      </trkpt>
      <trkpt lat="42.6249" lon="1.68164">
        <ele>2732.68</ele>
        <time>2014-05-10T09:06:12Z</time>
      </trkpt>
      <trkpt lat="42.62492" lon="1.68173">
        <ele>2732.2</ele>
        <time>2014-05-10T09:06:23Z</time>
      </trkpt>
      <trkpt lat="42.62491" lon="1.68182">
        <ele>2731.24</ele>
        <time>2014-05-10T09:06:34Z</time>
      </trkpt>
      <trkpt lat="42.6249" lon="1.68194">
        <ele>2730.28</ele>
        <time>2014-05-10T09:06:47Z</time>
      </trkpt>
      <trkpt lat="42.6249" lon="1.68205">
        <ele>2729.8</ele>
        <time>2014-05-10T09:07:01Z</time>
      </trkpt>
      <trkpt lat="42.6249" lon="1.68206">
        <ele>2730.28</ele>
        <time>2014-05-10T09:07:11Z</time>
      </trkpt>
      <trkpt lat="42.62488" lon="1.68211">
        <ele>2730.28</ele>
        <time>2014-05-10T09:07:17Z</time>
      </trkpt>
      <trkpt lat="42.62485" lon="1.68222">
        <ele>2729.32</ele>
        <time>2014-05-10T09:07:30Z</time>
      </trkpt>
      <trkpt lat="42.62484" lon="1.68229">
        <ele>2729.8</ele>
        <time>2014-05-10T09:07:42Z</time>
      </trkpt>
      <trkpt lat="42.62484" lon="1.68235">
        <ele>2729.8</ele>
        <time>2014-05-10T09:07:52Z</time>
      </trkpt>
      <trkpt lat="42.62486" lon="1.68244">
        <ele>2731.24</ele>
        <time>2014-05-10T09:08:03Z</time>
      </trkpt>
      <trkpt lat="42.62487" lon="1.68252">
        <ele>2732.2</ele>
        <time>2014-05-10T09:08:14Z</time>
      </trkpt>
      <trkpt lat="42.62486" lon="1.68258">
        <ele>2732.68</ele>
        <time>2014-05-10T09:08:25Z</time>
      </trkpt>
      <trkpt lat="42.62487" lon="1.68259">
        <ele>2734.13</ele>
        <time>2014-05-10T09:08:37Z</time>
      </trkpt>
      <trkpt lat="42.62488" lon="1.68259">
        <ele>2734.61</ele>
        <time>2014-05-10T09:08:56Z</time>
      </trkpt>
      <trkpt lat="42.62488" lon="1.68259">
        <ele>2735.09</ele>
        <time>2014-05-10T09:09:27Z</time>
      </trkpt>
      <trkpt lat="42.62489" lon="1.68258">
        <ele>2734.61</ele>
        <time>2014-05-10T09:09:48Z</time>
      </trkpt>
      <trkpt lat="42.62488" lon="1.68256">
        <ele>2733.17</ele>
        <time>2014-05-10T09:10:12Z</time>
      </trkpt>
      <trkpt lat="42.62488" lon="1.68259">
        <ele>2733.17</ele>
        <time>2014-05-10T09:10:22Z</time>
      </trkpt>
      <trkpt lat="42.62486" lon="1.68265">
        <ele>2731.72</ele>
        <time>2014-05-10T09:10:43Z</time>
      </trkpt>
      <trkpt lat="42.62488" lon="1.68263">
        <ele>2733.17</ele>
        <time>2014-05-10T09:10:56Z</time>
      </trkpt>
      <trkpt lat="42.62487" lon="1.68263">
        <ele>2733.17</ele>
        <time>2014-05-10T09:11:18Z</time>
      </trkpt>
      <trkpt lat="42.62488" lon="1.68267">
        <ele>2732.2</ele>
        <time>2014-05-10T09:11:37Z</time>
      </trkpt>
      <trkpt lat="42.62488" lon="1.6827">
        <ele>2730.76</ele>
        <time>2014-05-10T09:11:48Z</time>
      </trkpt>
      <trkpt lat="42.62489" lon="1.68277">
        <ele>2730.76</ele>
        <time>2014-05-10T09:11:58Z</time>
      </trkpt>
      <trkpt lat="42.62491" lon="1.68291">
        <ele>2728.84</ele>
        <time>2014-05-10T09:12:12Z</time>
      </trkpt>
      <trkpt lat="42.62491" lon="1.68292">
        <ele>2729.32</ele>
        <time>2014-05-10T09:12:32Z</time>
      </trkpt>
      <trkpt lat="42.62491" lon="1.6829">
        <ele>2729.8</ele>
        <time>2014-05-10T09:12:52Z</time>
      </trkpt>
      <trkpt lat="42.62491" lon="1.68288">
        <ele>2728.36</ele>
        <time>2014-05-10T09:13:19Z</time>
      </trkpt>
      <trkpt lat="42.62491" lon="1.68288">
        <ele>2728.84</ele>
        <time>2014-05-10T09:13:39Z</time>
      </trkpt>
      <trkpt lat="42.62491" lon="1.68288">
        <ele>2728.36</ele>
        <time>2014-05-10T09:13:58Z</time>
      </trkpt>
      <trkpt lat="42.62491" lon="1.6829">
        <ele>2729.32</ele>
        <time>2014-05-10T09:14:23Z</time>
      </trkpt>
      <trkpt lat="42.62491" lon="1.68292">
        <ele>2728.84</ele>
        <time>2014-05-10T09:14:37Z</time>
      </trkpt>
      <trkpt lat="42.62492" lon="1.68291">
        <ele>2729.32</ele>
        <time>2014-05-10T09:14:54Z</time>
      </trkpt>
      <trkpt lat="42.62491" lon="1.68293">
        <ele>2728.84</ele>
        <time>2014-05-10T09:15:13Z</time>
      </trkpt>
      <trkpt lat="42.62491" lon="1.68293">
        <ele>2728.36</ele>
        <time>2014-05-10T09:15:27Z</time>
      </trkpt>
      <trkpt lat="42.62494" lon="1.68292">
        <ele>2728.36</ele>
        <time>2014-05-10T09:15:56Z</time>
      </trkpt>
      <trkpt lat="42.62493" lon="1.68291">
        <ele>2727.88</ele>
        <time>2014-05-10T09:16:31Z</time>
      </trkpt>
      <trkpt lat="42.62493" lon="1.68291">
        <ele>2726.44</ele>
        <time>2014-05-10T09:16:52Z</time>
      </trkpt>
      <trkpt lat="42.62492" lon="1.6829">
        <ele>2726.44</ele>
        <time>2014-05-10T09:17:09Z</time>
      </trkpt>
      <trkpt lat="42.62491" lon="1.6829">
        <ele>2725.48</ele>
        <time>2014-05-10T09:17:45Z</time>
      </trkpt>
      <trkpt lat="42.62491" lon="1.6829">
        <ele>2725.96</ele>
        <time>2014-05-10T09:18:27Z</time>
      </trkpt>
      <trkpt lat="42.62489" lon="1.6829">
        <ele>2726.44</ele>
        <time>2014-05-10T09:19:01Z</time>
      </trkpt>
      <trkpt lat="42.62488" lon="1.68289">
        <ele>2726.92</ele>
        <time>2014-05-10T09:19:37Z</time>
      </trkpt>
      <trkpt lat="42.62488" lon="1.68292">
        <ele>2725.48</ele>
        <time>2014-05-10T09:20:07Z</time>
      </trkpt>
      <trkpt lat="42.6249" lon="1.68292">
        <ele>2724.99</ele>
        <time>2014-05-10T09:20:45Z</time>
      </trkpt>
      <trkpt lat="42.62491" lon="1.68293">
        <ele>2727.4</ele>
        <time>2014-05-10T09:21:24Z</time>
      </trkpt>
      <trkpt lat="42.62491" lon="1.68294">
        <ele>2726.44</ele>
        <time>2014-05-10T09:21:46Z</time>
      </trkpt>
      <trkpt lat="42.62491" lon="1.68294">
        <ele>2724.99</ele>
        <time>2014-05-10T09:22:20Z</time>
      </trkpt>
      <trkpt lat="42.62493" lon="1.68295">
        <ele>2726.92</ele>
        <time>2014-05-10T09:23:08Z</time>
      </trkpt>
      <trkpt lat="42.62493" lon="1.68295">
        <ele>2727.4</ele>
        <time>2014-05-10T09:23:47Z</time>
      </trkpt>
      <trkpt lat="42.62493" lon="1.68294">
        <ele>2727.4</ele>
        <time>2014-05-10T09:24:23Z</time>
      </trkpt>
      <trkpt lat="42.62493" lon="1.68295">
        <ele>2727.88</ele>
        <time>2014-05-10T09:25:00Z</time>
      </trkpt>
      <trkpt lat="42.62494" lon="1.68294">
        <ele>2728.36</ele>
        <time>2014-05-10T09:25:36Z</time>
      </trkpt>
      <trkpt lat="42.62494" lon="1.68294">
        <ele>2727.88</ele>
        <time>2014-05-10T09:26:14Z</time>
      </trkpt>
      <trkpt lat="42.62494" lon="1.68295">
        <ele>2728.36</ele>
        <time>2014-05-10T09:26:48Z</time>
      </trkpt>
      <trkpt lat="42.62493" lon="1.68294">
        <ele>2728.84</ele>
        <time>2014-05-10T09:27:35Z</time>
      </trkpt>
      <trkpt lat="42.62493" lon="1.68294">
        <ele>2729.32</ele>
        <time>2014-05-10T09:28:20Z</time>
      </trkpt>
      <trkpt lat="42.62492" lon="1.68294">
        <ele>2727.88</ele>
        <time>2014-05-10T09:29:09Z</time>
      </trkpt>
      <trkpt lat="42.62492" lon="1.68293">
        <ele>2726.92</ele>
        <time>2014-05-10T09:29:46Z</time>
      </trkpt>
      <trkpt lat="42.62493" lon="1.68294">
        <ele>2727.88</ele>
        <time>2014-05-10T09:30:37Z</time>
      </trkpt>
      <trkpt lat="42.62493" lon="1.68294">
        <ele>2728.84</ele>
        <time>2014-05-10T09:31:16Z</time>
      </trkpt>
      <trkpt lat="42.62493" lon="1.68294">
        <ele>2728.84</ele>
        <time>2014-05-10T09:31:50Z</time>
      </trkpt>
      <trkpt lat="42.62494" lon="1.68294">
        <ele>2729.32</ele>
        <time>2014-05-10T09:32:28Z</time>
      </trkpt>
      <trkpt lat="42.62494" lon="1.68295">
        <ele>2729.8</ele>
        <time>2014-05-10T09:33:06Z</time>
      </trkpt>
      <trkpt lat="42.62493" lon="1.68294">
        <ele>2729.8</ele>
        <time>2014-05-10T09:33:42Z</time>
      </trkpt>
      <trkpt lat="42.62493" lon="1.68294">
        <ele>2729.8</ele>
        <time>2014-05-10T09:34:14Z</time>
      </trkpt>
      <trkpt lat="42.62494" lon="1.68294">
        <ele>2729.32</ele>
        <time>2014-05-10T09:34:50Z</time>
      </trkpt>
      <trkpt lat="42.62493" lon="1.68294">
        <ele>2729.8</ele>
        <time>2014-05-10T09:35:25Z</time>
      </trkpt>
      <trkpt lat="42.62493" lon="1.68294">
        <ele>2729.8</ele>
        <time>2014-05-10T09:35:50Z</time>
      </trkpt>
      <trkpt lat="42.62493" lon="1.68294">
        <ele>2730.76</ele>
        <time>2014-05-10T09:36:25Z</time>
      </trkpt>
      <trkpt lat="42.62493" lon="1.68294">
        <ele>2730.76</ele>
        <time>2014-05-10T09:37:08Z</time>
      </trkpt>
      <trkpt lat="42.62493" lon="1.68294">
        <ele>2729.8</ele>
        <time>2014-05-10T09:37:44Z</time>
      </trkpt>
      <trkpt lat="42.62494" lon="1.68295">
        <ele>2729.32</ele>
        <time>2014-05-10T09:38:15Z</time>
      </trkpt>
      <trkpt lat="42.62494" lon="1.68296">
        <ele>2728.84</ele>
        <time>2014-05-10T09:38:51Z</time>
      </trkpt>
      <trkpt lat="42.62494" lon="1.68295">
        <ele>2728.36</ele>
        <time>2014-05-10T09:39:22Z</time>
      </trkpt>
      <trkpt lat="42.62494" lon="1.68295">
        <ele>2728.36</ele>
        <time>2014-05-10T09:39:59Z</time>
      </trkpt>
      <trkpt lat="42.62493" lon="1.68295">
        <ele>2730.28</ele>
        <time>2014-05-10T09:40:41Z</time>
      </trkpt>
      <trkpt lat="42.62493" lon="1.68295">
        <ele>2731.72</ele>
        <time>2014-05-10T09:41:18Z</time>
      </trkpt>
      <trkpt lat="42.62491" lon="1.68295">
        <ele>2729.8</ele>
        <time>2014-05-10T09:41:48Z</time>
      </trkpt>
      <trkpt lat="42.62491" lon="1.68294">
        <ele>2728.84</ele>
        <time>2014-05-10T09:42:08Z</time>
      </trkpt>
      <trkpt lat="42.62493" lon="1.68295">
        <ele>2729.8</ele>
        <time>2014-05-10T09:42:40Z</time>
      </trkpt>
      <trkpt lat="42.62491" lon="1.68294">
        <ele>2728.84</ele>
        <time>2014-05-10T09:43:11Z</time>
      </trkpt>
      <trkpt lat="42.62492" lon="1.68295">
        <ele>2730.28</ele>
        <time>2014-05-10T09:43:34Z</time>
      </trkpt>
      <trkpt lat="42.62492" lon="1.68294">
        <ele>2728.84</ele>
        <time>2014-05-10T09:43:56Z</time>
      </trkpt>
      <trkpt lat="42.62491" lon="1.68298">
        <ele>2729.32</ele>
        <time>2014-05-10T09:44:11Z</time>
      </trkpt>
      <trkpt lat="42.62493" lon="1.68307">
        <ele>2725.96</ele>
        <time>2014-05-10T09:44:24Z</time>
      </trkpt>
      <trkpt lat="42.62495" lon="1.68317">
        <ele>2723.07</ele>
        <time>2014-05-10T09:44:39Z</time>
      </trkpt>
      <trkpt lat="42.62495" lon="1.68318">
        <ele>2722.59</ele>
        <time>2014-05-10T09:44:54Z</time>
      </trkpt>
      <trkpt lat="42.62497" lon="1.68315">
        <ele>2721.63</ele>
        <time>2014-05-10T09:45:11Z</time>
      </trkpt>
      <trkpt lat="42.62498" lon="1.68315">
        <ele>2719.23</ele>
        <time>2014-05-10T09:45:22Z</time>
      </trkpt>
      <trkpt lat="42.62499" lon="1.68316">
        <ele>2717.78</ele>
        <time>2014-05-10T09:45:36Z</time>
      </trkpt>
      <trkpt lat="42.625" lon="1.68317">
        <ele>2718.27</ele>
        <time>2014-05-10T09:45:53Z</time>
      </trkpt>
      <trkpt lat="42.62501" lon="1.68319">
        <ele>2717.3</ele>
        <time>2014-05-10T09:46:04Z</time>
      </trkpt>
      <trkpt lat="42.62502" lon="1.68321">
        <ele>2715.86</ele>
        <time>2014-05-10T09:46:16Z</time>
      </trkpt>
      <trkpt lat="42.62503" lon="1.68322">
        <ele>2716.82</ele>
        <time>2014-05-10T09:46:29Z</time>
      </trkpt>
      <trkpt lat="42.62504" lon="1.6832">
        <ele>2713.94</ele>
        <time>2014-05-10T09:46:53Z</time>
      </trkpt>
      <trkpt lat="42.62503" lon="1.6832">
        <ele>2713.94</ele>
        <time>2014-05-10T09:47:29Z</time>
      </trkpt>
      <trkpt lat="42.62505" lon="1.68322">
        <ele>2715.86</ele>
        <time>2014-05-10T09:47:51Z</time>
      </trkpt>
      <trkpt lat="42.62505" lon="1.68324">
        <ele>2716.82</ele>
        <time>2014-05-10T09:48:05Z</time>
      </trkpt>
      <trkpt lat="42.62504" lon="1.68327">
        <ele>2716.34</ele>
        <time>2014-05-10T09:48:16Z</time>
      </trkpt>
      <trkpt lat="42.62504" lon="1.68328">
        <ele>2715.86</ele>
        <time>2014-05-10T09:48:29Z</time>
      </trkpt>
      <trkpt lat="42.62505" lon="1.68332">
        <ele>2716.34</ele>
        <time>2014-05-10T09:48:44Z</time>
      </trkpt>
      <trkpt lat="42.62506" lon="1.68333">
        <ele>2716.34</ele>
        <time>2014-05-10T09:49:02Z</time>
      </trkpt>
      <trkpt lat="42.62507" lon="1.68335">
        <ele>2715.86</ele>
        <time>2014-05-10T09:49:18Z</time>
      </trkpt>
      <trkpt lat="42.62508" lon="1.68337">
        <ele>2714.9</ele>
        <time>2014-05-10T09:49:30Z</time>
      </trkpt>
      <trkpt lat="42.62509" lon="1.68337">
        <ele>2713.94</ele>
        <time>2014-05-10T09:49:41Z</time>
      </trkpt>
      <trkpt lat="42.6251" lon="1.68337">
        <ele>2712.5</ele>
        <time>2014-05-10T09:49:55Z</time>
      </trkpt>
      <trkpt lat="42.62511" lon="1.68335">
        <ele>2711.54</ele>
        <time>2014-05-10T09:50:09Z</time>
      </trkpt>
      <trkpt lat="42.62512" lon="1.68334">
        <ele>2711.06</ele>
        <time>2014-05-10T09:50:22Z</time>
      </trkpt>
      <trkpt lat="42.62512" lon="1.68333">
        <ele>2710.57</ele>
        <time>2014-05-10T09:50:37Z</time>
      </trkpt>
      <trkpt lat="42.62512" lon="1.68332">
        <ele>2709.61</ele>
        <time>2014-05-10T09:50:49Z</time>
      </trkpt>
      <trkpt lat="42.62511" lon="1.6833">
        <ele>2708.17</ele>
        <time>2014-05-10T09:51:00Z</time>
      </trkpt>
      <trkpt lat="42.62511" lon="1.68328">
        <ele>2707.21</ele>
        <time>2014-05-10T09:51:13Z</time>
      </trkpt>
      <trkpt lat="42.62511" lon="1.68327">
        <ele>2706.25</ele>
        <time>2014-05-10T09:51:25Z</time>
      </trkpt>
      <trkpt lat="42.62512" lon="1.68329">
        <ele>2705.29</ele>
        <time>2014-05-10T09:51:44Z</time>
      </trkpt>
      <trkpt lat="42.62513" lon="1.68329">
        <ele>2703.36</ele>
        <time>2014-05-10T09:52:02Z</time>
      </trkpt>
      <trkpt lat="42.62513" lon="1.68328">
        <ele>2702.88</ele>
        <time>2014-05-10T09:52:30Z</time>
      </trkpt>
      <trkpt lat="42.62513" lon="1.68329">
        <ele>2703.85</ele>
        <time>2014-05-10T09:53:02Z</time>
      </trkpt>
      <trkpt lat="42.62514" lon="1.68328">
        <ele>2704.33</ele>
        <time>2014-05-10T09:53:24Z</time>
      </trkpt>
      <trkpt lat="42.62511" lon="1.68327">
        <ele>2702.4</ele>
        <time>2014-05-10T09:53:43Z</time>
      </trkpt>
      <trkpt lat="42.62509" lon="1.68326">
        <ele>2700.96</ele>
        <time>2014-05-10T09:54:07Z</time>
      </trkpt>
      <trkpt lat="42.6251" lon="1.68328">
        <ele>2701.92</ele>
        <time>2014-05-10T09:54:32Z</time>
      </trkpt>
      <trkpt lat="42.6251" lon="1.68328">
        <ele>2701.44</ele>
        <time>2014-05-10T09:54:51Z</time>
      </trkpt>
      <trkpt lat="42.62513" lon="1.68328">
        <ele>2702.88</ele>
        <time>2014-05-10T09:55:18Z</time>
      </trkpt>
      <trkpt lat="42.62512" lon="1.68328">
        <ele>2703.36</ele>
        <time>2014-05-10T09:55:44Z</time>
      </trkpt>
      <trkpt lat="42.62513" lon="1.68328">
        <ele>2704.33</ele>
        <time>2014-05-10T09:56:16Z</time>
      </trkpt>
      <trkpt lat="42.62514" lon="1.68328">
        <ele>2705.29</ele>
        <time>2014-05-10T09:56:43Z</time>
      </trkpt>
      <trkpt lat="42.62513" lon="1.68328">
        <ele>2705.77</ele>
        <time>2014-05-10T09:57:00Z</time>
      </trkpt>
      <trkpt lat="42.62512" lon="1.68326">
        <ele>2705.29</ele>
        <time>2014-05-10T09:57:22Z</time>
      </trkpt>
      <trkpt lat="42.62512" lon="1.68326">
        <ele>2705.29</ele>
        <time>2014-05-10T09:57:53Z</time>
      </trkpt>
      <trkpt lat="42.62512" lon="1.68327">
        <ele>2704.81</ele>
        <time>2014-05-10T09:58:17Z</time>
      </trkpt>
      <trkpt lat="42.62511" lon="1.68327">
        <ele>2703.85</ele>
        <time>2014-05-10T09:58:44Z</time>
      </trkpt>
      <trkpt lat="42.62511" lon="1.68327">
        <ele>2703.36</ele>
        <time>2014-05-10T09:59:12Z</time>
      </trkpt>
      <trkpt lat="42.62513" lon="1.68327">
        <ele>2703.85</ele>
        <time>2014-05-10T09:59:33Z</time>
      </trkpt>
      <trkpt lat="42.62511" lon="1.68328">
        <ele>2702.88</ele>
        <time>2014-05-10T09:59:53Z</time>
      </trkpt>
      <trkpt lat="42.62511" lon="1.68328">
        <ele>2702.4</ele>
        <time>2014-05-10T10:00:26Z</time>
      </trkpt>
      <trkpt lat="42.62512" lon="1.68328">
        <ele>2703.36</ele>
        <time>2014-05-10T10:00:55Z</time>
      </trkpt>
      <trkpt lat="42.62511" lon="1.68328">
        <ele>2702.88</ele>
        <time>2014-05-10T10:01:18Z</time>
      </trkpt>
      <trkpt lat="42.62509" lon="1.68328">
        <ele>2701.92</ele>
        <time>2014-05-10T10:01:54Z</time>
      </trkpt>
      <trkpt lat="42.62507" lon="1.68328">
        <ele>2700.96</ele>
        <time>2014-05-10T10:02:19Z</time>
      </trkpt>
      <trkpt lat="42.62506" lon="1.68328">
        <ele>2700.96</ele>
        <time>2014-05-10T10:02:44Z</time>
      </trkpt>
      <trkpt lat="42.62505" lon="1.68328">
        <ele>2700</ele>
        <time>2014-05-10T10:03:03Z</time>
      </trkpt>
      <trkpt lat="42.62503" lon="1.68328">
        <ele>2699.52</ele>
        <time>2014-05-10T10:03:28Z</time>
      </trkpt>
      <trkpt lat="42.62502" lon="1.68328">
        <ele>2699.52</ele>
        <time>2014-05-10T10:03:55Z</time>
      </trkpt>
      <trkpt lat="42.62502" lon="1.68329">
        <ele>2699.52</ele>
        <time>2014-05-10T10:04:24Z</time>
      </trkpt>
      <trkpt lat="42.62506" lon="1.68328">
        <ele>2701.44</ele>
        <time>2014-05-10T10:04:45Z</time>
      </trkpt>
      <trkpt lat="42.6251" lon="1.68328">
        <ele>2705.29</ele>
        <time>2014-05-10T10:05:04Z</time>
      </trkpt>
      <trkpt lat="42.62514" lon="1.68326">
        <ele>2706.73</ele>
        <time>2014-05-10T10:05:24Z</time>
      </trkpt>
      <trkpt lat="42.62515" lon="1.68325">
        <ele>2707.21</ele>
        <time>2014-05-10T10:05:27Z</time>
      </trkpt>
      <trkpt lat="42.6252" lon="1.6831">
        <ele>2703.36</ele>
        <time>2014-05-10T10:05:40Z</time>
      </trkpt>
      <trkpt lat="42.6252" lon="1.68309">
        <ele>2702.88</ele>
        <time>2014-05-10T10:05:42Z</time>
      </trkpt>
      <trkpt lat="42.62521" lon="1.68312">
        <ele>2699.52</ele>
        <time>2014-05-10T10:05:46Z</time>
      </trkpt>
      <trkpt lat="42.62529" lon="1.68307">
        <ele>2689.91</ele>
        <time>2014-05-10T10:05:54Z</time>
      </trkpt>
      <trkpt lat="42.62529" lon="1.68301">
        <ele>2683.18</ele>
        <time>2014-05-10T10:06:05Z</time>
      </trkpt>
      <trkpt lat="42.6253" lon="1.68299">
        <ele>2682.7</ele>
        <time>2014-05-10T10:06:06Z</time>
      </trkpt>
      <trkpt lat="42.62539" lon="1.6829">
        <ele>2674.04</ele>
        <time>2014-05-10T10:06:14Z</time>
      </trkpt>
      <trkpt lat="42.62544" lon="1.68286">
        <ele>2665.87</ele>
        <time>2014-05-10T10:06:20Z</time>
      </trkpt>
      <trkpt lat="42.62551" lon="1.6829">
        <ele>2661.07</ele>
        <time>2014-05-10T10:06:25Z</time>
      </trkpt>
      <trkpt lat="42.6256" lon="1.68272">
        <ele>2649.05</ele>
        <time>2014-05-10T10:06:36Z</time>
      </trkpt>
      <trkpt lat="42.62559" lon="1.68277">
        <ele>2647.13</ele>
        <time>2014-05-10T10:06:58Z</time>
      </trkpt>
      <trkpt lat="42.62558" lon="1.68279">
        <ele>2648.57</ele>
        <time>2014-05-10T10:07:37Z</time>
      </trkpt>
      <trkpt lat="42.62558" lon="1.68276">
        <ele>2648.09</ele>
        <time>2014-05-10T10:08:11Z</time>
      </trkpt>
      <trkpt lat="42.62559" lon="1.68274">
        <ele>2647.61</ele>
        <time>2014-05-10T10:08:17Z</time>
      </trkpt>
      <trkpt lat="42.62566" lon="1.68285">
        <ele>2642.8</ele>
        <time>2014-05-10T10:08:22Z</time>
      </trkpt>
      <trkpt lat="42.62576" lon="1.68283">
        <ele>2636.07</ele>
        <time>2014-05-10T10:08:28Z</time>
      </trkpt>
      <trkpt lat="42.62579" lon="1.68292">
        <ele>2631.27</ele>
        <time>2014-05-10T10:08:32Z</time>
      </trkpt>
      <trkpt lat="42.6259" lon="1.68291">
        <ele>2623.58</ele>
        <time>2014-05-10T10:08:39Z</time>
      </trkpt>
      <trkpt lat="42.62602" lon="1.68289">
        <ele>2616.85</ele>
        <time>2014-05-10T10:08:44Z</time>
      </trkpt>
      <trkpt lat="42.62608" lon="1.68289">
        <ele>2610.6</ele>
        <time>2014-05-10T10:08:49Z</time>
      </trkpt>
      <trkpt lat="42.62609" lon="1.68283">
        <ele>2605.31</ele>
        <time>2014-05-10T10:08:59Z</time>
      </trkpt>
      <trkpt lat="42.62609" lon="1.68284">
        <ele>2605.31</ele>
        <time>2014-05-10T10:09:14Z</time>
      </trkpt>
      <trkpt lat="42.62613" lon="1.68269">
        <ele>2601.46</ele>
        <time>2014-05-10T10:09:33Z</time>
      </trkpt>
      <trkpt lat="42.62616" lon="1.68261">
        <ele>2599.06</ele>
        <time>2014-05-10T10:09:45Z</time>
      </trkpt>
      <trkpt lat="42.62626" lon="1.68266">
        <ele>2591.37</ele>
        <time>2014-05-10T10:09:52Z</time>
      </trkpt>
      <trkpt lat="42.62627" lon="1.68264">
        <ele>2590.41</ele>
        <time>2014-05-10T10:09:53Z</time>
      </trkpt>
      <trkpt lat="42.62636" lon="1.68266">
        <ele>2582.72</ele>
        <time>2014-05-10T10:10:00Z</time>
      </trkpt>
      <trkpt lat="42.6264" lon="1.68252">
        <ele>2575.03</ele>
        <time>2014-05-10T10:10:07Z</time>
      </trkpt>
      <trkpt lat="42.6264" lon="1.68251">
        <ele>2572.63</ele>
        <time>2014-05-10T10:10:25Z</time>
      </trkpt>
      <trkpt lat="42.62647" lon="1.68226">
        <ele>2570.7</ele>
        <time>2014-05-10T10:10:38Z</time>
      </trkpt>
      <trkpt lat="42.62655" lon="1.68204">
        <ele>2568.3</ele>
        <time>2014-05-10T10:10:50Z</time>
      </trkpt>
      <trkpt lat="42.62654" lon="1.682">
        <ele>2569.26</ele>
        <time>2014-05-10T10:11:02Z</time>
      </trkpt>
      <trkpt lat="42.62653" lon="1.68199">
        <ele>2571.18</ele>
        <time>2014-05-10T10:11:19Z</time>
      </trkpt>
      <trkpt lat="42.62656" lon="1.68169">
        <ele>2567.82</ele>
        <time>2014-05-10T10:11:32Z</time>
      </trkpt>
      <trkpt lat="42.6266" lon="1.6813">
        <ele>2560.61</ele>
        <time>2014-05-10T10:11:46Z</time>
      </trkpt>
      <trkpt lat="42.62662" lon="1.68122">
        <ele>2558.69</ele>
        <time>2014-05-10T10:11:58Z</time>
      </trkpt>
      <trkpt lat="42.62662" lon="1.68122">
        <ele>2560.61</ele>
        <time>2014-05-10T10:12:21Z</time>
      </trkpt>
      <trkpt lat="42.62662" lon="1.68121">
        <ele>2560.61</ele>
        <time>2014-05-10T10:12:25Z</time>
      </trkpt>
      <trkpt lat="42.62666" lon="1.68123">
        <ele>2558.69</ele>
        <time>2014-05-10T10:12:29Z</time>
      </trkpt>
      <trkpt lat="42.62669" lon="1.68121">
        <ele>2554.36</ele>
        <time>2014-05-10T10:12:38Z</time>
      </trkpt>
      <trkpt lat="42.6267" lon="1.68121">
        <ele>2553.4</ele>
        <time>2014-05-10T10:13:01Z</time>
      </trkpt>
      <trkpt lat="42.6267" lon="1.6812">
        <ele>2553.88</ele>
        <time>2014-05-10T10:13:18Z</time>
      </trkpt>
      <trkpt lat="42.62673" lon="1.68114">
        <ele>2550.03</ele>
        <time>2014-05-10T10:13:27Z</time>
      </trkpt>
      <trkpt lat="42.62674" lon="1.68113">
        <ele>2550.03</ele>
        <time>2014-05-10T10:13:45Z</time>
      </trkpt>
      <trkpt lat="42.62676" lon="1.68098">
        <ele>2546.19</ele>
        <time>2014-05-10T10:13:55Z</time>
      </trkpt>
      <trkpt lat="42.62682" lon="1.68095">
        <ele>2541.86</ele>
        <time>2014-05-10T10:14:02Z</time>
      </trkpt>
      <trkpt lat="42.62688" lon="1.68092">
        <ele>2535.13</ele>
        <time>2014-05-10T10:14:08Z</time>
      </trkpt>
      <trkpt lat="42.62689" lon="1.68092">
        <ele>2534.65</ele>
        <time>2014-05-10T10:14:23Z</time>
      </trkpt>
      <trkpt lat="42.62687" lon="1.68092">
        <ele>2532.73</ele>
        <time>2014-05-10T10:14:42Z</time>
      </trkpt>
      <trkpt lat="42.62688" lon="1.68091">
        <ele>2534.65</ele>
        <time>2014-05-10T10:15:04Z</time>
      </trkpt>
      <trkpt lat="42.62688" lon="1.68091">
        <ele>2535.13</ele>
        <time>2014-05-10T10:15:22Z</time>
      </trkpt>
      <trkpt lat="42.62688" lon="1.68091">
        <ele>2534.65</ele>
        <time>2014-05-10T10:15:28Z</time>
      </trkpt>
      <trkpt lat="42.62698" lon="1.68088">
        <ele>2529.85</ele>
        <time>2014-05-10T10:15:34Z</time>
      </trkpt>
      <trkpt lat="42.62696" lon="1.68084">
        <ele>2525.04</ele>
        <time>2014-05-10T10:15:48Z</time>
      </trkpt>
      <trkpt lat="42.62697" lon="1.68084">
        <ele>2523.6</ele>
        <time>2014-05-10T10:16:03Z</time>
      </trkpt>
      <trkpt lat="42.62698" lon="1.68079">
        <ele>2522.16</ele>
        <time>2014-05-10T10:16:06Z</time>
      </trkpt>
      <trkpt lat="42.62706" lon="1.6808">
        <ele>2512.06</ele>
        <time>2014-05-10T10:16:12Z</time>
      </trkpt>
      <trkpt lat="42.62708" lon="1.68078">
        <ele>2510.14</ele>
        <time>2014-05-10T10:16:23Z</time>
      </trkpt>
      <trkpt lat="42.62712" lon="1.68066">
        <ele>2507.74</ele>
        <time>2014-05-10T10:16:35Z</time>
      </trkpt>
      <trkpt lat="42.62713" lon="1.68063">
        <ele>2506.77</ele>
        <time>2014-05-10T10:16:43Z</time>
      </trkpt>
      <trkpt lat="42.62722" lon="1.68057">
        <ele>2500.53</ele>
        <time>2014-05-10T10:16:51Z</time>
      </trkpt>
      <trkpt lat="42.62723" lon="1.68055">
        <ele>2500.53</ele>
        <time>2014-05-10T10:17:07Z</time>
      </trkpt>
      <trkpt lat="42.62723" lon="1.68054">
        <ele>2499.57</ele>
        <time>2014-05-10T10:17:11Z</time>
      </trkpt>
      <trkpt lat="42.62727" lon="1.68051">
        <ele>2496.68</ele>
        <time>2014-05-10T10:17:14Z</time>
      </trkpt>
      <trkpt lat="42.62732" lon="1.68049">
        <ele>2494.28</ele>
        <time>2014-05-10T10:17:23Z</time>
      </trkpt>
      <trkpt lat="42.62733" lon="1.68048">
        <ele>2493.32</ele>
        <time>2014-05-10T10:17:27Z</time>
      </trkpt>
      <trkpt lat="42.62734" lon="1.68046">
        <ele>2492.84</ele>
        <time>2014-05-10T10:17:29Z</time>
      </trkpt>
      <trkpt lat="42.62736" lon="1.68045">
        <ele>2489.47</ele>
        <time>2014-05-10T10:17:34Z</time>
      </trkpt>
      <trkpt lat="42.62738" lon="1.68042">
        <ele>2487.55</ele>
        <time>2014-05-10T10:17:37Z</time>
      </trkpt>
      <trkpt lat="42.62739" lon="1.68035">
        <ele>2484.66</ele>
        <time>2014-05-10T10:17:53Z</time>
      </trkpt>
      <trkpt lat="42.62739" lon="1.68034">
        <ele>2483.22</ele>
        <time>2014-05-10T10:18:01Z</time>
      </trkpt>
      <trkpt lat="42.62746" lon="1.68038">
        <ele>2479.38</ele>
        <time>2014-05-10T10:18:07Z</time>
      </trkpt>
      <trkpt lat="42.6275" lon="1.68033">
        <ele>2476.97</ele>
        <time>2014-05-10T10:18:11Z</time>
      </trkpt>
      <trkpt lat="42.62751" lon="1.68021">
        <ele>2471.69</ele>
        <time>2014-05-10T10:18:22Z</time>
      </trkpt>
      <trkpt lat="42.62751" lon="1.68022">
        <ele>2471.21</ele>
        <time>2014-05-10T10:18:29Z</time>
      </trkpt>
      <trkpt lat="42.62753" lon="1.68013">
        <ele>2468.8</ele>
        <time>2014-05-10T10:18:39Z</time>
      </trkpt>
      <trkpt lat="42.6276" lon="1.68012">
        <ele>2466.4</ele>
        <time>2014-05-10T10:18:44Z</time>
      </trkpt>
      <trkpt lat="42.6276" lon="1.68015">
        <ele>2464</ele>
        <time>2014-05-10T10:18:52Z</time>
      </trkpt>
      <trkpt lat="42.62767" lon="1.68011">
        <ele>2462.55</ele>
        <time>2014-05-10T10:18:56Z</time>
      </trkpt>
      <trkpt lat="42.6277" lon="1.68006">
        <ele>2460.63</ele>
        <time>2014-05-10T10:18:58Z</time>
      </trkpt>
      <trkpt lat="42.62781" lon="1.68009">
        <ele>2453.9</ele>
        <time>2014-05-10T10:19:03Z</time>
      </trkpt>
      <trkpt lat="42.62788" lon="1.68015">
        <ele>2446.69</ele>
        <time>2014-05-10T10:19:08Z</time>
      </trkpt>
      <trkpt lat="42.62794" lon="1.68007">
        <ele>2440.44</ele>
        <time>2014-05-10T10:19:13Z</time>
      </trkpt>
      <trkpt lat="42.62794" lon="1.68009">
        <ele>2437.08</ele>
        <time>2014-05-10T10:19:24Z</time>
      </trkpt>
      <trkpt lat="42.62799" lon="1.68013">
        <ele>2435.64</ele>
        <time>2014-05-10T10:19:27Z</time>
      </trkpt>
      <trkpt lat="42.6281" lon="1.68016">
        <ele>2427.95</ele>
        <time>2014-05-10T10:19:33Z</time>
      </trkpt>
      <trkpt lat="42.62812" lon="1.68013">
        <ele>2422.66</ele>
        <time>2014-05-10T10:19:39Z</time>
      </trkpt>
      <trkpt lat="42.62812" lon="1.68013">
        <ele>2421.7</ele>
        <time>2014-05-10T10:19:46Z</time>
      </trkpt>
      <trkpt lat="42.62823" lon="1.68016">
        <ele>2414.49</ele>
        <time>2014-05-10T10:19:53Z</time>
      </trkpt>
      <trkpt lat="42.62825" lon="1.68019">
        <ele>2411.6</ele>
        <time>2014-05-10T10:19:55Z</time>
      </trkpt>
      <trkpt lat="42.62826" lon="1.68022">
        <ele>2407.28</ele>
        <time>2014-05-10T10:20:02Z</time>
      </trkpt>
      <trkpt lat="42.62829" lon="1.68026">
        <ele>2404.39</ele>
        <time>2014-05-10T10:20:11Z</time>
      </trkpt>
      <trkpt lat="42.62829" lon="1.68028">
        <ele>2404.88</ele>
        <time>2014-05-10T10:20:43Z</time>
      </trkpt>
      <trkpt lat="42.62829" lon="1.68031">
        <ele>2403.91</ele>
        <time>2014-05-10T10:20:59Z</time>
      </trkpt>
      <trkpt lat="42.62828" lon="1.68031">
        <ele>2401.03</ele>
        <time>2014-05-10T10:21:27Z</time>
      </trkpt>
      <trkpt lat="42.62828" lon="1.68031">
        <ele>2399.59</ele>
        <time>2014-05-10T10:21:51Z</time>
      </trkpt>
      <trkpt lat="42.62829" lon="1.68029">
        <ele>2398.63</ele>
        <time>2014-05-10T10:22:14Z</time>
      </trkpt>
      <trkpt lat="42.62826" lon="1.6803">
        <ele>2398.15</ele>
        <time>2014-05-10T10:22:45Z</time>
      </trkpt>
      <trkpt lat="42.62828" lon="1.68029">
        <ele>2398.15</ele>
        <time>2014-05-10T10:22:49Z</time>
      </trkpt>
      <trkpt lat="42.62841" lon="1.68033">
        <ele>2391.42</ele>
        <time>2014-05-10T10:22:56Z</time>
      </trkpt>
      <trkpt lat="42.62847" lon="1.68028">
        <ele>2386.13</ele>
        <time>2014-05-10T10:23:01Z</time>
      </trkpt>
      <trkpt lat="42.62859" lon="1.68024">
        <ele>2378.92</ele>
        <time>2014-05-10T10:23:07Z</time>
      </trkpt>
      <trkpt lat="42.62862" lon="1.68026">
        <ele>2377.48</ele>
        <time>2014-05-10T10:23:08Z</time>
      </trkpt>
      <trkpt lat="42.62878" lon="1.68036">
        <ele>2364.02</ele>
        <time>2014-05-10T10:23:15Z</time>
      </trkpt>
      <trkpt lat="42.62892" lon="1.68036">
        <ele>2354.89</ele>
        <time>2014-05-10T10:23:19Z</time>
      </trkpt>
      <trkpt lat="42.62897" lon="1.68019">
        <ele>2345.75</ele>
        <time>2014-05-10T10:23:24Z</time>
      </trkpt>
      <trkpt lat="42.62896" lon="1.6802">
        <ele>2342.87</ele>
        <time>2014-05-10T10:23:36Z</time>
      </trkpt>
      <trkpt lat="42.62894" lon="1.68022">
        <ele>2342.87</ele>
        <time>2014-05-10T10:24:03Z</time>
      </trkpt>
      <trkpt lat="42.62895" lon="1.68021">
        <ele>2341.43</ele>
        <time>2014-05-10T10:24:18Z</time>
      </trkpt>
      <trkpt lat="42.62895" lon="1.68019">
        <ele>2340.47</ele>
        <time>2014-05-10T10:24:38Z</time>
      </trkpt>
      <trkpt lat="42.62894" lon="1.68021">
        <ele>2339.51</ele>
        <time>2014-05-10T10:25:02Z</time>
      </trkpt>
      <trkpt lat="42.62894" lon="1.6802">
        <ele>2339.99</ele>
        <time>2014-05-10T10:25:20Z</time>
      </trkpt>
      <trkpt lat="42.62897" lon="1.68017">
        <ele>2339.51</ele>
        <time>2014-05-10T10:25:35Z</time>
      </trkpt>
      <trkpt lat="42.62917" lon="1.68014">
        <ele>2328.93</ele>
        <time>2014-05-10T10:25:41Z</time>
      </trkpt>
      <trkpt lat="42.62934" lon="1.6802">
        <ele>2319.32</ele>
        <time>2014-05-10T10:25:45Z</time>
      </trkpt>
      <trkpt lat="42.62938" lon="1.68023">
        <ele>2316.91</ele>
        <time>2014-05-10T10:25:46Z</time>
      </trkpt>
      <trkpt lat="42.6297" lon="1.68029">
        <ele>2298.17</ele>
        <time>2014-05-10T10:25:53Z</time>
      </trkpt>
      <trkpt lat="42.62992" lon="1.68049">
        <ele>2280.38</ele>
        <time>2014-05-10T10:26:00Z</time>
      </trkpt>
      <trkpt lat="42.62993" lon="1.68066">
        <ele>2269.81</ele>
        <time>2014-05-10T10:26:09Z</time>
      </trkpt>
      <trkpt lat="42.62993" lon="1.68066">
        <ele>2272.69</ele>
        <time>2014-05-10T10:26:30Z</time>
      </trkpt>
      <trkpt lat="42.62995" lon="1.68068">
        <ele>2275.1</ele>
        <time>2014-05-10T10:26:53Z</time>
      </trkpt>
      <trkpt lat="42.62995" lon="1.68069">
        <ele>2275.58</ele>
        <time>2014-05-10T10:27:12Z</time>
      </trkpt>
      <trkpt lat="42.62996" lon="1.68067">
        <ele>2277.02</ele>
        <time>2014-05-10T10:27:42Z</time>
      </trkpt>
      <trkpt lat="42.62995" lon="1.68067">
        <ele>2279.42</ele>
        <time>2014-05-10T10:28:05Z</time>
      </trkpt>
      <trkpt lat="42.62993" lon="1.68066">
        <ele>2279.42</ele>
        <time>2014-05-10T10:28:36Z</time>
      </trkpt>
      <trkpt lat="42.63002" lon="1.68102">
        <ele>2277.02</ele>
        <time>2014-05-10T10:28:44Z</time>
      </trkpt>
      <trkpt lat="42.63013" lon="1.68177">
        <ele>2265.96</ele>
        <time>2014-05-10T10:28:56Z</time>
      </trkpt>
      <trkpt lat="42.63018" lon="1.68221">
        <ele>2259.72</ele>
        <time>2014-05-10T10:29:03Z</time>
      </trkpt>
      <trkpt lat="42.63031" lon="1.68235">
        <ele>2253.47</ele>
        <time>2014-05-10T10:29:09Z</time>
      </trkpt>
      <trkpt lat="42.63053" lon="1.68241">
        <ele>2243.37</ele>
        <time>2014-05-10T10:29:14Z</time>
      </trkpt>
      <trkpt lat="42.63079" lon="1.68257">
        <ele>2229.92</ele>
        <time>2014-05-10T10:29:19Z</time>
      </trkpt>
      <trkpt lat="42.63085" lon="1.6827">
        <ele>2224.15</ele>
        <time>2014-05-10T10:29:21Z</time>
      </trkpt>
      <trkpt lat="42.63088" lon="1.68302">
        <ele>2215.98</ele>
        <time>2014-05-10T10:29:25Z</time>
      </trkpt>
      <trkpt lat="42.63087" lon="1.68316">
        <ele>2212.13</ele>
        <time>2014-05-10T10:29:27Z</time>
      </trkpt>
      <trkpt lat="42.63097" lon="1.68312">
        <ele>2203.96</ele>
        <time>2014-05-10T10:29:33Z</time>
      </trkpt>
      <trkpt lat="42.63097" lon="1.68312">
        <ele>2202.04</ele>
        <time>2014-05-10T10:29:48Z</time>
      </trkpt>
      <trkpt lat="42.63099" lon="1.68316">
        <ele>2200.59</ele>
        <time>2014-05-10T10:30:09Z</time>
      </trkpt>
      <trkpt lat="42.63098" lon="1.68314">
        <ele>2199.63</ele>
        <time>2014-05-10T10:30:28Z</time>
      </trkpt>
      <trkpt lat="42.63096" lon="1.68317">
        <ele>2198.19</ele>
        <time>2014-05-10T10:30:49Z</time>
      </trkpt>
      <trkpt lat="42.63097" lon="1.68316">
        <ele>2198.19</ele>
        <time>2014-05-10T10:30:51Z</time>
      </trkpt>
      <trkpt lat="42.63107" lon="1.68332">
        <ele>2194.83</ele>
        <time>2014-05-10T10:30:57Z</time>
      </trkpt>
      <trkpt lat="42.6311" lon="1.68335">
        <ele>2193.39</ele>
        <time>2014-05-10T10:30:58Z</time>
      </trkpt>
      <trkpt lat="42.63129" lon="1.68337">
        <ele>2183.77</ele>
        <time>2014-05-10T10:31:04Z</time>
      </trkpt>
      <trkpt lat="42.63132" lon="1.68338">
        <ele>2182.33</ele>
        <time>2014-05-10T10:31:05Z</time>
      </trkpt>
      <trkpt lat="42.63152" lon="1.68349">
        <ele>2177.04</ele>
        <time>2014-05-10T10:31:13Z</time>
      </trkpt>
      <trkpt lat="42.63167" lon="1.68344">
        <ele>2176.08</ele>
        <time>2014-05-10T10:31:18Z</time>
      </trkpt>
      <trkpt lat="42.63178" lon="1.68324">
        <ele>2168.39</ele>
        <time>2014-05-10T10:31:28Z</time>
      </trkpt>
      <trkpt lat="42.63178" lon="1.68324">
        <ele>2167.91</ele>
        <time>2014-05-10T10:31:29Z</time>
      </trkpt>
      <trkpt lat="42.632" lon="1.68317">
        <ele>2160.22</ele>
        <time>2014-05-10T10:31:35Z</time>
      </trkpt>
      <trkpt lat="42.63241" lon="1.68324">
        <ele>2151.57</ele>
        <time>2014-05-10T10:31:40Z</time>
      </trkpt>
      <trkpt lat="42.63246" lon="1.6833">
        <ele>2149.16</ele>
        <time>2014-05-10T10:31:41Z</time>
      </trkpt>
      <trkpt lat="42.63274" lon="1.68346">
        <ele>2136.67</ele>
        <time>2014-05-10T10:31:45Z</time>
      </trkpt>
      <trkpt lat="42.63303" lon="1.68356">
        <ele>2115.52</ele>
        <time>2014-05-10T10:31:50Z</time>
      </trkpt>
      <trkpt lat="42.63302" lon="1.68357">
        <ele>2091.49</ele>
        <time>2014-05-10T10:32:00Z</time>
      </trkpt>
      <trkpt lat="42.633" lon="1.68359">
        <ele>2078.51</ele>
        <time>2014-05-10T10:32:25Z</time>
      </trkpt>
      <trkpt lat="42.633" lon="1.68357">
        <ele>2074.18</ele>
        <time>2014-05-10T10:32:53Z</time>
      </trkpt>
      <trkpt lat="42.63302" lon="1.68356">
        <ele>2069.38</ele>
        <time>2014-05-10T10:33:19Z</time>
      </trkpt>
      <trkpt lat="42.633" lon="1.68358">
        <ele>2068.41</ele>
        <time>2014-05-10T10:33:38Z</time>
      </trkpt>
      <trkpt lat="42.63298" lon="1.68359">
        <ele>2068.89</ele>
        <time>2014-05-10T10:34:04Z</time>
      </trkpt>
      <trkpt lat="42.63298" lon="1.6836">
        <ele>2068.89</ele>
        <time>2014-05-10T10:34:25Z</time>
      </trkpt>
      <trkpt lat="42.63299" lon="1.68362">
        <ele>2067.45</ele>
        <time>2014-05-10T10:34:47Z</time>
      </trkpt>
      <trkpt lat="42.63298" lon="1.68361">
        <ele>2066.97</ele>
        <time>2014-05-10T10:34:55Z</time>
      </trkpt>
      <trkpt lat="42.63306" lon="1.68365">
        <ele>2066.01</ele>
        <time>2014-05-10T10:35:00Z</time>
      </trkpt>
      <trkpt lat="42.63314" lon="1.68373">
        <ele>2064.57</ele>
        <time>2014-05-10T10:35:02Z</time>
      </trkpt>
      <trkpt lat="42.63346" lon="1.68415">
        <ele>2057.36</ele>
        <time>2014-05-10T10:35:11Z</time>
      </trkpt>
      <trkpt lat="42.63359" lon="1.68433">
        <ele>2053.99</ele>
        <time>2014-05-10T10:35:14Z</time>
      </trkpt>
      <trkpt lat="42.63378" lon="1.68451">
        <ele>2045.34</ele>
        <time>2014-05-10T10:35:21Z</time>
      </trkpt>
      <trkpt lat="42.63397" lon="1.68447">
        <ele>2037.65</ele>
        <time>2014-05-10T10:35:26Z</time>
      </trkpt>
      <trkpt lat="42.63402" lon="1.68461">
        <ele>2033.33</ele>
        <time>2014-05-10T10:35:29Z</time>
      </trkpt>
      <trkpt lat="42.63405" lon="1.68489">
        <ele>2024.67</ele>
        <time>2014-05-10T10:35:36Z</time>
      </trkpt>
      <trkpt lat="42.63425" lon="1.68498">
        <ele>2015.54</ele>
        <time>2014-05-10T10:35:43Z</time>
      </trkpt>
      <trkpt lat="42.63444" lon="1.68527">
        <ele>2005.45</ele>
        <time>2014-05-10T10:35:48Z</time>
      </trkpt>
      <trkpt lat="42.63451" lon="1.68549">
        <ele>1999.68</ele>
        <time>2014-05-10T10:35:51Z</time>
      </trkpt>
      <trkpt lat="42.63457" lon="1.68579">
        <ele>1992.95</ele>
        <time>2014-05-10T10:35:55Z</time>
      </trkpt>
      <trkpt lat="42.63472" lon="1.68686">
        <ele>1976.61</ele>
        <time>2014-05-10T10:36:07Z</time>
      </trkpt>
      <trkpt lat="42.63493" lon="1.68803">
        <ele>1957.86</ele>
        <time>2014-05-10T10:36:19Z</time>
      </trkpt>
      <trkpt lat="42.63499" lon="1.68831">
        <ele>1952.57</ele>
        <time>2014-05-10T10:36:22Z</time>
      </trkpt>
      <trkpt lat="42.63519" lon="1.68864">
        <ele>1944.88</ele>
        <time>2014-05-10T10:36:26Z</time>
      </trkpt>
      <trkpt lat="42.63573" lon="1.68877">
        <ele>1929.98</ele>
        <time>2014-05-10T10:36:33Z</time>
      </trkpt>
      <trkpt lat="42.63587" lon="1.68886">
        <ele>1925.18</ele>
        <time>2014-05-10T10:36:35Z</time>
      </trkpt>
      <trkpt lat="42.63609" lon="1.68896">
        <ele>1917.97</ele>
        <time>2014-05-10T10:36:38Z</time>
      </trkpt>
      <trkpt lat="42.63646" lon="1.68929">
        <ele>1903.55</ele>
        <time>2014-05-10T10:36:44Z</time>
      </trkpt>
      <trkpt lat="42.6367" lon="1.68968">
        <ele>1893.93</ele>
        <time>2014-05-10T10:36:49Z</time>
      </trkpt>
      <trkpt lat="42.63711" lon="1.69026">
        <ele>1879.51</ele>
        <time>2014-05-10T10:37:00Z</time>
      </trkpt>
      <trkpt lat="42.63726" lon="1.69072">
        <ele>1872.79</ele>
        <time>2014-05-10T10:37:11Z</time>
      </trkpt>
      <trkpt lat="42.63728" lon="1.69118">
        <ele>1872.79</ele>
        <time>2014-05-10T10:37:21Z</time>
      </trkpt>
      <trkpt lat="42.6373" lon="1.69137">
        <ele>1872.79</ele>
        <time>2014-05-10T10:37:25Z</time>
      </trkpt>
      <trkpt lat="42.63728" lon="1.69168">
        <ele>1872.3</ele>
        <time>2014-05-10T10:37:32Z</time>
      </trkpt>
      <trkpt lat="42.63726" lon="1.69194">
        <ele>1871.34</ele>
        <time>2014-05-10T10:37:38Z</time>
      </trkpt>
      <trkpt lat="42.63721" lon="1.69242">
        <ele>1868.94</ele>
        <time>2014-05-10T10:37:48Z</time>
      </trkpt>
      <trkpt lat="42.63724" lon="1.69256">
        <ele>1867.98</ele>
        <time>2014-05-10T10:37:52Z</time>
      </trkpt>
      <trkpt lat="42.63751" lon="1.69268">
        <ele>1865.58</ele>
        <time>2014-05-10T10:38:01Z</time>
      </trkpt>
      <trkpt lat="42.63764" lon="1.69262">
        <ele>1864.61</ele>
        <time>2014-05-10T10:38:05Z</time>
      </trkpt>
      <trkpt lat="42.63782" lon="1.69268">
        <ele>1862.69</ele>
        <time>2014-05-10T10:38:12Z</time>
      </trkpt>
      <trkpt lat="42.63788" lon="1.69263">
        <ele>1862.69</ele>
        <time>2014-05-10T10:38:23Z</time>
      </trkpt>
      <trkpt lat="42.63787" lon="1.69262">
        <ele>1862.69</ele>
        <time>2014-05-10T10:38:36Z</time>
      </trkpt>
      <trkpt lat="42.63784" lon="1.69264">
        <ele>1857.89</ele>
        <time>2014-05-10T10:38:54Z</time>
      </trkpt>
      <trkpt lat="42.63784" lon="1.69267">
        <ele>1856.92</ele>
        <time>2014-05-10T10:39:29Z</time>
      </trkpt>
      <trkpt lat="42.6379" lon="1.69257">
        <ele>1856.92</ele>
        <time>2014-05-10T10:39:48Z</time>
      </trkpt>
      <trkpt lat="42.63787" lon="1.6926">
        <ele>1855.48</ele>
        <time>2014-05-10T10:40:08Z</time>
      </trkpt>
      <trkpt lat="42.63787" lon="1.69257">
        <ele>1854.52</ele>
        <time>2014-05-10T10:40:27Z</time>
      </trkpt>
      <trkpt lat="42.63781" lon="1.69261">
        <ele>1851.16</ele>
        <time>2014-05-10T10:40:43Z</time>
      </trkpt>
      <trkpt lat="42.63776" lon="1.69262">
        <ele>1849.23</ele>
        <time>2014-05-10T10:41:17Z</time>
      </trkpt>
      <trkpt lat="42.6377" lon="1.69265">
        <ele>1848.27</ele>
        <time>2014-05-10T10:41:53Z</time>
      </trkpt>
      <trkpt lat="42.63786" lon="1.69262">
        <ele>1851.16</ele>
        <time>2014-05-10T10:42:18Z</time>
      </trkpt>
      <trkpt lat="42.63788" lon="1.6926">
        <ele>1851.64</ele>
        <time>2014-05-10T10:42:42Z</time>
      </trkpt>
      <trkpt lat="42.63787" lon="1.69262">
        <ele>1853.08</ele>
        <time>2014-05-10T10:43:15Z</time>
      </trkpt>
      <trkpt lat="42.63787" lon="1.69262">
        <ele>1856.92</ele>
        <time>2014-05-10T10:43:51Z</time>
      </trkpt>
      <trkpt lat="42.63787" lon="1.69259">
        <ele>1857.4</ele>
        <time>2014-05-10T10:44:29Z</time>
      </trkpt>
      <trkpt lat="42.63788" lon="1.69261">
        <ele>1855.48</ele>
        <time>2014-05-10T10:44:49Z</time>
      </trkpt>
      <trkpt lat="42.63786" lon="1.69262">
        <ele>1853.56</ele>
        <time>2014-05-10T10:45:08Z</time>
      </trkpt>
      <trkpt lat="42.63785" lon="1.69261">
        <ele>1853.56</ele>
        <time>2014-05-10T10:45:31Z</time>
      </trkpt>
      <trkpt lat="42.63788" lon="1.6926">
        <ele>1856.44</ele>
        <time>2014-05-10T10:46:06Z</time>
      </trkpt>
      <trkpt lat="42.63788" lon="1.69259">
        <ele>1856.44</ele>
        <time>2014-05-10T10:46:28Z</time>
      </trkpt>
      <trkpt lat="42.63787" lon="1.69259">
        <ele>1857.4</ele>
        <time>2014-05-10T10:46:44Z</time>
      </trkpt>
      <trkpt lat="42.63787" lon="1.69262">
        <ele>1856.44</ele>
        <time>2014-05-10T10:47:06Z</time>
      </trkpt>
      <trkpt lat="42.63789" lon="1.69256">
        <ele>1855</ele>
        <time>2014-05-10T10:47:28Z</time>
      </trkpt>
      <trkpt lat="42.63796" lon="1.69255">
        <ele>1856.92</ele>
        <time>2014-05-10T10:47:57Z</time>
      </trkpt>
      <trkpt lat="42.63797" lon="1.69254">
        <ele>1855</ele>
        <time>2014-05-10T10:48:25Z</time>
      </trkpt>
      <trkpt lat="42.63797" lon="1.69254">
        <ele>1854.52</ele>
        <time>2014-05-10T10:49:01Z</time>
      </trkpt>
      <trkpt lat="42.63797" lon="1.69254">
        <ele>1854.04</ele>
        <time>2014-05-10T10:49:33Z</time>
      </trkpt>
      <trkpt lat="42.63798" lon="1.69253">
        <ele>1855.96</ele>
        <time>2014-05-10T10:50:08Z</time>
      </trkpt>
      <trkpt lat="42.63792" lon="1.69258">
        <ele>1855.48</ele>
        <time>2014-05-10T10:50:38Z</time>
      </trkpt>
      <trkpt lat="42.63789" lon="1.69263">
        <ele>1855</ele>
        <time>2014-05-10T10:50:48Z</time>
      </trkpt>
      <trkpt lat="42.63791" lon="1.69262">
        <ele>1855</ele>
        <time>2014-05-10T10:51:00Z</time>
      </trkpt>
      <trkpt lat="42.63791" lon="1.69262">
        <ele>1854.04</ele>
        <time>2014-05-10T10:51:04Z</time>
      </trkpt>
      <trkpt lat="42.6379" lon="1.69249">
        <ele>1855.48</ele>
        <time>2014-05-10T10:51:12Z</time>
      </trkpt>
      <trkpt lat="42.6379" lon="1.69245">
        <ele>1855</ele>
        <time>2014-05-10T10:51:14Z</time>
      </trkpt>
      <trkpt lat="42.63791" lon="1.69242">
        <ele>1855.48</ele>
        <time>2014-05-10T10:51:17Z</time>
      </trkpt>
      <trkpt lat="42.63798" lon="1.69231">
        <ele>1853.08</ele>
        <time>2014-05-10T10:51:29Z</time>
      </trkpt>
      <trkpt lat="42.63797" lon="1.69236">
        <ele>1851.16</ele>
        <time>2014-05-10T10:51:41Z</time>
      </trkpt>
      <trkpt lat="42.63797" lon="1.69236">
        <ele>1851.64</ele>
        <time>2014-05-10T10:51:59Z</time>
      </trkpt>
      <trkpt lat="42.63797" lon="1.69235">
        <ele>1850.68</ele>
        <time>2014-05-10T10:52:07Z</time>
      </trkpt>
      <trkpt lat="42.63802" lon="1.69233">
        <ele>1849.23</ele>
        <time>2014-05-10T10:52:19Z</time>
      </trkpt>
      <trkpt lat="42.63803" lon="1.69232">
        <ele>1851.16</ele>
        <time>2014-05-10T10:52:33Z</time>
      </trkpt>
      <trkpt lat="42.63807" lon="1.69231">
        <ele>1850.19</ele>
        <time>2014-05-10T10:52:43Z</time>
      </trkpt>
      <trkpt lat="42.63814" lon="1.69228">
        <ele>1850.19</ele>
        <time>2014-05-10T10:52:57Z</time>
      </trkpt>
      <trkpt lat="42.63814" lon="1.69228">
        <ele>1849.71</ele>
        <time>2014-05-10T10:52:58Z</time>
      </trkpt>
      <trkpt lat="42.63817" lon="1.69226">
        <ele>1848.75</ele>
        <time>2014-05-10T10:53:01Z</time>
      </trkpt>
      <trkpt lat="42.63823" lon="1.69224">
        <ele>1848.27</ele>
        <time>2014-05-10T10:53:08Z</time>
      </trkpt>
      <trkpt lat="42.63826" lon="1.69226">
        <ele>1848.27</ele>
        <time>2014-05-10T10:53:11Z</time>
      </trkpt>
      <trkpt lat="42.63838" lon="1.69225">
        <ele>1849.23</ele>
        <time>2014-05-10T10:53:23Z</time>
      </trkpt>
      <trkpt lat="42.63856" lon="1.69234">
        <ele>1847.79</ele>
        <time>2014-05-10T10:53:37Z</time>
      </trkpt>
      <trkpt lat="42.63867" lon="1.69245">
        <ele>1848.75</ele>
        <time>2014-05-10T10:53:48Z</time>
      </trkpt>
      <trkpt lat="42.63871" lon="1.69249">
        <ele>1848.75</ele>
        <time>2014-05-10T10:53:52Z</time>
      </trkpt>
      <trkpt lat="42.63874" lon="1.6925">
        <ele>1849.23</ele>
        <time>2014-05-10T10:53:55Z</time>
      </trkpt>
      <trkpt lat="42.63876" lon="1.69253">
        <ele>1849.71</ele>
        <time>2014-05-10T10:53:58Z</time>
      </trkpt>
      <trkpt lat="42.63884" lon="1.6926">
        <ele>1846.83</ele>
        <time>2014-05-10T10:54:10Z</time>
      </trkpt>
      <trkpt lat="42.63884" lon="1.6926">
        <ele>1845.87</ele>
        <time>2014-05-10T10:54:26Z</time>
      </trkpt>
      <trkpt lat="42.63885" lon="1.69259">
        <ele>1846.35</ele>
        <time>2014-05-10T10:54:39Z</time>
      </trkpt>
      <trkpt lat="42.63884" lon="1.6926">
        <ele>1845.87</ele>
        <time>2014-05-10T10:55:00Z</time>
      </trkpt>
      <trkpt lat="42.63882" lon="1.6926">
        <ele>1848.75</ele>
        <time>2014-05-10T10:55:22Z</time>
      </trkpt>
      <trkpt lat="42.63882" lon="1.69261">
        <ele>1846.83</ele>
        <time>2014-05-10T10:55:36Z</time>
      </trkpt>
      <trkpt lat="42.63882" lon="1.69263">
        <ele>1842.02</ele>
        <time>2014-05-10T10:56:03Z</time>
      </trkpt>
      <trkpt lat="42.63883" lon="1.69266">
        <ele>1842.5</ele>
        <time>2014-05-10T10:56:26Z</time>
      </trkpt>
      <trkpt lat="42.63885" lon="1.6927">
        <ele>1842.5</ele>
        <time>2014-05-10T10:56:31Z</time>
      </trkpt>
      <trkpt lat="42.63892" lon="1.69281">
        <ele>1842.5</ele>
        <time>2014-05-10T10:56:43Z</time>
      </trkpt>
      <trkpt lat="42.63893" lon="1.69282">
        <ele>1842.5</ele>
        <time>2014-05-10T10:56:44Z</time>
      </trkpt>
      <trkpt lat="42.63896" lon="1.69288">
        <ele>1842.02</ele>
        <time>2014-05-10T10:56:49Z</time>
      </trkpt>
      <trkpt lat="42.63899" lon="1.69296">
        <ele>1841.06</ele>
        <time>2014-05-10T10:56:55Z</time>
      </trkpt>
      <trkpt lat="42.639" lon="1.69298">
        <ele>1840.1</ele>
        <time>2014-05-10T10:56:57Z</time>
      </trkpt>
      <trkpt lat="42.63902" lon="1.69303">
        <ele>1839.62</ele>
        <time>2014-05-10T10:57:01Z</time>
      </trkpt>
      <trkpt lat="42.63906" lon="1.69309">
        <ele>1840.1</ele>
        <time>2014-05-10T10:57:08Z</time>
      </trkpt>
      <trkpt lat="42.63907" lon="1.69314">
        <ele>1839.62</ele>
        <time>2014-05-10T10:57:11Z</time>
      </trkpt>
      <trkpt lat="42.6391" lon="1.69323">
        <ele>1838.66</ele>
        <time>2014-05-10T10:57:22Z</time>
      </trkpt>
      <trkpt lat="42.63911" lon="1.69325">
        <ele>1839.14</ele>
        <time>2014-05-10T10:57:23Z</time>
      </trkpt>
      <trkpt lat="42.63912" lon="1.6933">
        <ele>1838.66</ele>
        <time>2014-05-10T10:57:27Z</time>
      </trkpt>
      <trkpt lat="42.63914" lon="1.69333">
        <ele>1838.66</ele>
        <time>2014-05-10T10:57:30Z</time>
      </trkpt>
      <trkpt lat="42.63915" lon="1.69347">
        <ele>1836.26</ele>
        <time>2014-05-10T10:57:40Z</time>
      </trkpt>
      <trkpt lat="42.63917" lon="1.69362">
        <ele>1834.33</ele>
        <time>2014-05-10T10:57:52Z</time>
      </trkpt>
      <trkpt lat="42.63918" lon="1.69365">
        <ele>1835.29</ele>
        <time>2014-05-10T10:57:55Z</time>
      </trkpt>
      <trkpt lat="42.63921" lon="1.69369">
        <ele>1835.29</ele>
        <time>2014-05-10T10:57:59Z</time>
      </trkpt>
      <trkpt lat="42.63925" lon="1.69378">
        <ele>1836.26</ele>
        <time>2014-05-10T10:58:08Z</time>
      </trkpt>
      <trkpt lat="42.63926" lon="1.69381">
        <ele>1836.74</ele>
        <time>2014-05-10T10:58:10Z</time>
      </trkpt>
      <trkpt lat="42.6393" lon="1.69388">
        <ele>1836.74</ele>
        <time>2014-05-10T10:58:17Z</time>
      </trkpt>
      <trkpt lat="42.63934" lon="1.69397">
        <ele>1836.74</ele>
        <time>2014-05-10T10:58:26Z</time>
      </trkpt>
      <trkpt lat="42.63933" lon="1.6941">
        <ele>1834.81</ele>
        <time>2014-05-10T10:58:35Z</time>
      </trkpt>
      <trkpt lat="42.6394" lon="1.69424">
        <ele>1832.89</ele>
        <time>2014-05-10T10:58:48Z</time>
      </trkpt>
      <trkpt lat="42.63943" lon="1.69438">
        <ele>1828.56</ele>
        <time>2014-05-10T10:58:59Z</time>
      </trkpt>
      <trkpt lat="42.63945" lon="1.6944">
        <ele>1828.56</ele>
        <time>2014-05-10T10:59:01Z</time>
      </trkpt>
      <trkpt lat="42.63945" lon="1.69443">
        <ele>1828.08</ele>
        <time>2014-05-10T10:59:03Z</time>
      </trkpt>
      <trkpt lat="42.63949" lon="1.69449">
        <ele>1827.12</ele>
        <time>2014-05-10T10:59:08Z</time>
      </trkpt>
      <trkpt lat="42.63951" lon="1.69451">
        <ele>1826.64</ele>
        <time>2014-05-10T10:59:10Z</time>
      </trkpt>
      <trkpt lat="42.63952" lon="1.69453">
        <ele>1826.64</ele>
        <time>2014-05-10T10:59:12Z</time>
      </trkpt>
      <trkpt lat="42.63956" lon="1.69463">
        <ele>1825.68</ele>
        <time>2014-05-10T10:59:20Z</time>
      </trkpt>
      <trkpt lat="42.63958" lon="1.69465">
        <ele>1825.2</ele>
        <time>2014-05-10T10:59:23Z</time>
      </trkpt>
      <trkpt lat="42.63963" lon="1.69474">
        <ele>1824.72</ele>
        <time>2014-05-10T10:59:32Z</time>
      </trkpt>
      <trkpt lat="42.63966" lon="1.69477">
        <ele>1824.72</ele>
        <time>2014-05-10T10:59:36Z</time>
      </trkpt>
      <trkpt lat="42.63976" lon="1.69485">
        <ele>1826.16</ele>
        <time>2014-05-10T10:59:48Z</time>
      </trkpt>
      <trkpt lat="42.63977" lon="1.69488">
        <ele>1826.16</ele>
        <time>2014-05-10T10:59:51Z</time>
      </trkpt>
      <trkpt lat="42.63986" lon="1.69499">
        <ele>1823.28</ele>
        <time>2014-05-10T11:00:04Z</time>
      </trkpt>
      <trkpt lat="42.6399" lon="1.695">
        <ele>1822.8</ele>
        <time>2014-05-10T11:00:09Z</time>
      </trkpt>
      <trkpt lat="42.63995" lon="1.69506">
        <ele>1822.8</ele>
        <time>2014-05-10T11:00:19Z</time>
      </trkpt>
      <trkpt lat="42.63999" lon="1.69511">
        <ele>1820.87</ele>
        <time>2014-05-10T11:00:35Z</time>
      </trkpt>
      <trkpt lat="42.63999" lon="1.69523">
        <ele>1819.91</ele>
        <time>2014-05-10T11:00:46Z</time>
      </trkpt>
      <trkpt lat="42.64001" lon="1.69524">
        <ele>1818.47</ele>
        <time>2014-05-10T11:00:49Z</time>
      </trkpt>
      <trkpt lat="42.64003" lon="1.69532">
        <ele>1816.55</ele>
        <time>2014-05-10T11:00:56Z</time>
      </trkpt>
      <trkpt lat="42.64007" lon="1.69542">
        <ele>1813.18</ele>
        <time>2014-05-10T11:01:08Z</time>
      </trkpt>
      <trkpt lat="42.64008" lon="1.69542">
        <ele>1813.18</ele>
        <time>2014-05-10T11:01:10Z</time>
      </trkpt>
      <trkpt lat="42.64008" lon="1.69546">
        <ele>1813.18</ele>
        <time>2014-05-10T11:01:13Z</time>
      </trkpt>
      <trkpt lat="42.64011" lon="1.69556">
        <ele>1814.63</ele>
        <time>2014-05-10T11:01:25Z</time>
      </trkpt>
      <trkpt lat="42.64011" lon="1.69565">
        <ele>1815.11</ele>
        <time>2014-05-10T11:01:36Z</time>
      </trkpt>
      <trkpt lat="42.64011" lon="1.69575">
        <ele>1813.66</ele>
        <time>2014-05-10T11:01:47Z</time>
      </trkpt>
      <trkpt lat="42.64012" lon="1.69577">
        <ele>1811.74</ele>
        <time>2014-05-10T11:01:51Z</time>
      </trkpt>
      <trkpt lat="42.64013" lon="1.69579">
        <ele>1810.78</ele>
        <time>2014-05-10T11:01:53Z</time>
      </trkpt>
      <trkpt lat="42.64019" lon="1.69588">
        <ele>1808.86</ele>
        <time>2014-05-10T11:02:00Z</time>
      </trkpt>
      <trkpt lat="42.64022" lon="1.69592">
        <ele>1808.86</ele>
        <time>2014-05-10T11:02:07Z</time>
      </trkpt>
      <trkpt lat="42.64024" lon="1.69597">
        <ele>1807.42</ele>
        <time>2014-05-10T11:02:16Z</time>
      </trkpt>
      <trkpt lat="42.64027" lon="1.69601">
        <ele>1806.94</ele>
        <time>2014-05-10T11:02:20Z</time>
      </trkpt>
      <trkpt lat="42.64035" lon="1.6961">
        <ele>1806.94</ele>
        <time>2014-05-10T11:02:31Z</time>
      </trkpt>
      <trkpt lat="42.64035" lon="1.69611">
        <ele>1806.45</ele>
        <time>2014-05-10T11:02:33Z</time>
      </trkpt>
      <trkpt lat="42.64035" lon="1.69617">
        <ele>1805.49</ele>
        <time>2014-05-10T11:02:37Z</time>
      </trkpt>
      <trkpt lat="42.64041" lon="1.69628">
        <ele>1805.49</ele>
        <time>2014-05-10T11:02:48Z</time>
      </trkpt>
      <trkpt lat="42.64041" lon="1.69636">
        <ele>1803.57</ele>
        <time>2014-05-10T11:02:56Z</time>
      </trkpt>
      <trkpt lat="42.64043" lon="1.69638">
        <ele>1803.09</ele>
        <time>2014-05-10T11:03:09Z</time>
      </trkpt>
      <trkpt lat="42.64045" lon="1.69643">
        <ele>1803.09</ele>
        <time>2014-05-10T11:03:13Z</time>
      </trkpt>
      <trkpt lat="42.64047" lon="1.69649">
        <ele>1802.61</ele>
        <time>2014-05-10T11:03:17Z</time>
      </trkpt>
      <trkpt lat="42.64051" lon="1.69656">
        <ele>1801.17</ele>
        <time>2014-05-10T11:03:22Z</time>
      </trkpt>
      <trkpt lat="42.64052" lon="1.69661">
        <ele>1799.73</ele>
        <time>2014-05-10T11:03:26Z</time>
      </trkpt>
      <trkpt lat="42.64053" lon="1.69668">
        <ele>1798.28</ele>
        <time>2014-05-10T11:03:34Z</time>
      </trkpt>
      <trkpt lat="42.64054" lon="1.69673">
        <ele>1796.84</ele>
        <time>2014-05-10T11:03:46Z</time>
      </trkpt>
      <trkpt lat="42.64059" lon="1.69683">
        <ele>1796.84</ele>
        <time>2014-05-10T11:04:02Z</time>
      </trkpt>
      <trkpt lat="42.64063" lon="1.69693">
        <ele>1795.4</ele>
        <time>2014-05-10T11:04:10Z</time>
      </trkpt>
      <trkpt lat="42.64067" lon="1.69705">
        <ele>1793.48</ele>
        <time>2014-05-10T11:04:21Z</time>
      </trkpt>
      <trkpt lat="42.6407" lon="1.69714">
        <ele>1792.03</ele>
        <time>2014-05-10T11:04:30Z</time>
      </trkpt>
      <trkpt lat="42.64075" lon="1.6972">
        <ele>1790.11</ele>
        <time>2014-05-10T11:04:39Z</time>
      </trkpt>
      <trkpt lat="42.64079" lon="1.69727">
        <ele>1788.19</ele>
        <time>2014-05-10T11:04:51Z</time>
      </trkpt>
      <trkpt lat="42.64084" lon="1.69736">
        <ele>1787.23</ele>
        <time>2014-05-10T11:05:00Z</time>
      </trkpt>
      <trkpt lat="42.64088" lon="1.69743">
        <ele>1784.82</ele>
        <time>2014-05-10T11:05:08Z</time>
      </trkpt>
      <trkpt lat="42.64089" lon="1.69751">
        <ele>1781.94</ele>
        <time>2014-05-10T11:05:22Z</time>
      </trkpt>
      <trkpt lat="42.64088" lon="1.69751">
        <ele>1782.42</ele>
        <time>2014-05-10T11:05:50Z</time>
      </trkpt>
      <trkpt lat="42.6409" lon="1.69752">
        <ele>1780.5</ele>
        <time>2014-05-10T11:06:16Z</time>
      </trkpt>
      <trkpt lat="42.64091" lon="1.69757">
        <ele>1780.98</ele>
        <time>2014-05-10T11:06:27Z</time>
      </trkpt>
      <trkpt lat="42.64091" lon="1.69759">
        <ele>1780.5</ele>
        <time>2014-05-10T11:06:41Z</time>
      </trkpt>
      <trkpt lat="42.64094" lon="1.69765">
        <ele>1780.5</ele>
        <time>2014-05-10T11:06:49Z</time>
      </trkpt>
      <trkpt lat="42.64098" lon="1.69777">
        <ele>1778.58</ele>
        <time>2014-05-10T11:07:01Z</time>
      </trkpt>
      <trkpt lat="42.641" lon="1.69778">
        <ele>1777.61</ele>
        <time>2014-05-10T11:07:03Z</time>
      </trkpt>
      <trkpt lat="42.64104" lon="1.69782">
        <ele>1777.61</ele>
        <time>2014-05-10T11:07:10Z</time>
      </trkpt>
      <trkpt lat="42.64114" lon="1.69791">
        <ele>1775.69</ele>
        <time>2014-05-10T11:07:23Z</time>
      </trkpt>
      <trkpt lat="42.64118" lon="1.69795">
        <ele>1774.25</ele>
        <time>2014-05-10T11:07:28Z</time>
      </trkpt>
      <trkpt lat="42.6412" lon="1.69798">
        <ele>1772.81</ele>
        <time>2014-05-10T11:07:31Z</time>
      </trkpt>
      <trkpt lat="42.64127" lon="1.69804">
        <ele>1771.37</ele>
        <time>2014-05-10T11:07:39Z</time>
      </trkpt>
      <trkpt lat="42.6414" lon="1.69812">
        <ele>1764.64</ele>
        <time>2014-05-10T11:07:52Z</time>
      </trkpt>
      <trkpt lat="42.64147" lon="1.69817">
        <ele>1763.68</ele>
        <time>2014-05-10T11:07:59Z</time>
      </trkpt>
      <trkpt lat="42.64152" lon="1.69819">
        <ele>1761.27</ele>
        <time>2014-05-10T11:08:09Z</time>
      </trkpt>
      <trkpt lat="42.64158" lon="1.69829">
        <ele>1761.75</ele>
        <time>2014-05-10T11:08:21Z</time>
      </trkpt>
      <trkpt lat="42.64163" lon="1.69836">
        <ele>1761.27</ele>
        <time>2014-05-10T11:08:31Z</time>
      </trkpt>
      <trkpt lat="42.64169" lon="1.6984">
        <ele>1759.35</ele>
        <time>2014-05-10T11:08:39Z</time>
      </trkpt>
      <trkpt lat="42.64172" lon="1.69844">
        <ele>1759.83</ele>
        <time>2014-05-10T11:08:44Z</time>
      </trkpt>
      <trkpt lat="42.64174" lon="1.69846">
        <ele>1760.79</ele>
        <time>2014-05-10T11:08:47Z</time>
      </trkpt>
      <trkpt lat="42.64181" lon="1.69852">
        <ele>1758.87</ele>
        <time>2014-05-10T11:08:58Z</time>
      </trkpt>
      <trkpt lat="42.64187" lon="1.6986">
        <ele>1756.47</ele>
        <time>2014-05-10T11:09:08Z</time>
      </trkpt>
      <trkpt lat="42.64189" lon="1.69864">
        <ele>1755.99</ele>
        <time>2014-05-10T11:09:13Z</time>
      </trkpt>
      <trkpt lat="42.642" lon="1.69873">
        <ele>1753.1</ele>
        <time>2014-05-10T11:09:25Z</time>
      </trkpt>
      <trkpt lat="42.64209" lon="1.69883">
        <ele>1752.14</ele>
        <time>2014-05-10T11:09:38Z</time>
      </trkpt>
      <trkpt lat="42.64214" lon="1.69891">
        <ele>1751.18</ele>
        <time>2014-05-10T11:09:49Z</time>
      </trkpt>
      <trkpt lat="42.64224" lon="1.69893">
        <ele>1748.29</ele>
        <time>2014-05-10T11:09:57Z</time>
      </trkpt>
      <trkpt lat="42.64232" lon="1.699">
        <ele>1745.41</ele>
        <time>2014-05-10T11:10:10Z</time>
      </trkpt>
      <trkpt lat="42.64234" lon="1.69903">
        <ele>1744.93</ele>
        <time>2014-05-10T11:10:13Z</time>
      </trkpt>
      <trkpt lat="42.64237" lon="1.69907">
        <ele>1743.01</ele>
        <time>2014-05-10T11:10:18Z</time>
      </trkpt>
      <trkpt lat="42.64243" lon="1.69909">
        <ele>1740.12</ele>
        <time>2014-05-10T11:10:23Z</time>
      </trkpt>
      <trkpt lat="42.64254" lon="1.69915">
        <ele>1738.2</ele>
        <time>2014-05-10T11:10:36Z</time>
      </trkpt>
      <trkpt lat="42.64257" lon="1.69916">
        <ele>1737.24</ele>
        <time>2014-05-10T11:10:40Z</time>
      </trkpt>
      <trkpt lat="42.64264" lon="1.69918">
        <ele>1735.32</ele>
        <time>2014-05-10T11:10:47Z</time>
      </trkpt>
      <trkpt lat="42.64268" lon="1.69922">
        <ele>1735.32</ele>
        <time>2014-05-10T11:10:54Z</time>
      </trkpt>
      <trkpt lat="42.64271" lon="1.69925">
        <ele>1733.88</ele>
        <time>2014-05-10T11:10:58Z</time>
      </trkpt>
      <trkpt lat="42.64283" lon="1.69928">
        <ele>1731.95</ele>
        <time>2014-05-10T11:11:11Z</time>
      </trkpt>
      <trkpt lat="42.64289" lon="1.69931">
        <ele>1730.03</ele>
        <time>2014-05-10T11:11:19Z</time>
      </trkpt>
      <trkpt lat="42.64292" lon="1.69933">
        <ele>1729.55</ele>
        <time>2014-05-10T11:11:22Z</time>
      </trkpt>
      <trkpt lat="42.64301" lon="1.69938">
        <ele>1730.03</ele>
        <time>2014-05-10T11:11:32Z</time>
      </trkpt>
      <trkpt lat="42.64306" lon="1.69942">
        <ele>1730.03</ele>
        <time>2014-05-10T11:11:37Z</time>
      </trkpt>
      <trkpt lat="42.64308" lon="1.69943">
        <ele>1730.03</ele>
        <time>2014-05-10T11:11:39Z</time>
      </trkpt>
      <trkpt lat="42.64313" lon="1.69947">
        <ele>1730.51</ele>
        <time>2014-05-10T11:11:44Z</time>
      </trkpt>
      <trkpt lat="42.64329" lon="1.69955">
        <ele>1729.55</ele>
        <time>2014-05-10T11:11:58Z</time>
      </trkpt>
      <trkpt lat="42.64331" lon="1.69955">
        <ele>1729.55</ele>
        <time>2014-05-10T11:12:00Z</time>
      </trkpt>
      <trkpt lat="42.64334" lon="1.69958">
        <ele>1729.55</ele>
        <time>2014-05-10T11:12:04Z</time>
      </trkpt>
      <trkpt lat="42.64339" lon="1.6996">
        <ele>1729.07</ele>
        <time>2014-05-10T11:12:08Z</time>
      </trkpt>
      <trkpt lat="42.64341" lon="1.69962">
        <ele>1729.07</ele>
        <time>2014-05-10T11:12:10Z</time>
      </trkpt>
      <trkpt lat="42.64347" lon="1.69963">
        <ele>1729.07</ele>
        <time>2014-05-10T11:12:15Z</time>
      </trkpt>
      <trkpt lat="42.64349" lon="1.69966">
        <ele>1729.07</ele>
        <time>2014-05-10T11:12:18Z</time>
      </trkpt>
      <trkpt lat="42.64353" lon="1.69967">
        <ele>1728.11</ele>
        <time>2014-05-10T11:12:22Z</time>
      </trkpt>
      <trkpt lat="42.64356" lon="1.69967">
        <ele>1727.63</ele>
        <time>2014-05-10T11:12:24Z</time>
      </trkpt>
      <trkpt lat="42.64364" lon="1.69968">
        <ele>1724.74</ele>
        <time>2014-05-10T11:12:32Z</time>
      </trkpt>
      <trkpt lat="42.64372" lon="1.6997">
        <ele>1723.3</ele>
        <time>2014-05-10T11:12:41Z</time>
      </trkpt>
      <trkpt lat="42.64377" lon="1.6997">
        <ele>1723.3</ele>
        <time>2014-05-10T11:12:46Z</time>
      </trkpt>
      <trkpt lat="42.64384" lon="1.6997">
        <ele>1723.3</ele>
        <time>2014-05-10T11:12:54Z</time>
      </trkpt>
      <trkpt lat="42.64394" lon="1.6998">
        <ele>1723.78</ele>
        <time>2014-05-10T11:13:06Z</time>
      </trkpt>
      <trkpt lat="42.64405" lon="1.6999">
        <ele>1723.3</ele>
        <time>2014-05-10T11:13:21Z</time>
      </trkpt>
      <trkpt lat="42.64409" lon="1.69994">
        <ele>1721.38</ele>
        <time>2014-05-10T11:13:26Z</time>
      </trkpt>
      <trkpt lat="42.64412" lon="1.69997">
        <ele>1719.46</ele>
        <time>2014-05-10T11:13:30Z</time>
      </trkpt>
      <trkpt lat="42.64425" lon="1.70006">
        <ele>1718.01</ele>
        <time>2014-05-10T11:13:44Z</time>
      </trkpt>
      <trkpt lat="42.64432" lon="1.70012">
        <ele>1718.49</ele>
        <time>2014-05-10T11:13:52Z</time>
      </trkpt>
      <trkpt lat="42.64435" lon="1.70016">
        <ele>1718.97</ele>
        <time>2014-05-10T11:13:56Z</time>
      </trkpt>
      <trkpt lat="42.64438" lon="1.70019">
        <ele>1718.49</ele>
        <time>2014-05-10T11:14:00Z</time>
      </trkpt>
      <trkpt lat="42.64442" lon="1.70023">
        <ele>1719.46</ele>
        <time>2014-05-10T11:14:05Z</time>
      </trkpt>
      <trkpt lat="42.64447" lon="1.70026">
        <ele>1719.46</ele>
        <time>2014-05-10T11:14:10Z</time>
      </trkpt>
      <trkpt lat="42.64449" lon="1.70026">
        <ele>1719.46</ele>
        <time>2014-05-10T11:14:12Z</time>
      </trkpt>
      <trkpt lat="42.64455" lon="1.70025">
        <ele>1718.49</ele>
        <time>2014-05-10T11:14:18Z</time>
      </trkpt>
      <trkpt lat="42.6446" lon="1.70029">
        <ele>1717.53</ele>
        <time>2014-05-10T11:14:23Z</time>
      </trkpt>
      <trkpt lat="42.64466" lon="1.70037">
        <ele>1716.57</ele>
        <time>2014-05-10T11:14:32Z</time>
      </trkpt>
      <trkpt lat="42.64471" lon="1.70033">
        <ele>1715.13</ele>
        <time>2014-05-10T11:14:38Z</time>
      </trkpt>
      <trkpt lat="42.64482" lon="1.70032">
        <ele>1713.21</ele>
        <time>2014-05-10T11:14:48Z</time>
      </trkpt>
      <trkpt lat="42.64486" lon="1.70035">
        <ele>1712.73</ele>
        <time>2014-05-10T11:14:52Z</time>
      </trkpt>
      <trkpt lat="42.64489" lon="1.70036">
        <ele>1712.25</ele>
        <time>2014-05-10T11:14:55Z</time>
      </trkpt>
      <trkpt lat="42.64494" lon="1.70036">
        <ele>1710.8</ele>
        <time>2014-05-10T11:15:00Z</time>
      </trkpt>
      <trkpt lat="42.64499" lon="1.70036">
        <ele>1709.84</ele>
        <time>2014-05-10T11:15:04Z</time>
      </trkpt>
      <trkpt lat="42.64511" lon="1.70034">
        <ele>1708.88</ele>
        <time>2014-05-10T11:15:15Z</time>
      </trkpt>
      <trkpt lat="42.64524" lon="1.70044">
        <ele>1707.44</ele>
        <time>2014-05-10T11:15:29Z</time>
      </trkpt>
      <trkpt lat="42.64528" lon="1.70047">
        <ele>1707.44</ele>
        <time>2014-05-10T11:15:33Z</time>
      </trkpt>
      <trkpt lat="42.64533" lon="1.70048">
        <ele>1707.44</ele>
        <time>2014-05-10T11:15:38Z</time>
      </trkpt>
      <trkpt lat="42.64535" lon="1.70047">
        <ele>1706.96</ele>
        <time>2014-05-10T11:15:40Z</time>
      </trkpt>
      <trkpt lat="42.64541" lon="1.70047">
        <ele>1706</ele>
        <time>2014-05-10T11:15:45Z</time>
      </trkpt>
      <trkpt lat="42.6455" lon="1.70048">
        <ele>1705.52</ele>
        <time>2014-05-10T11:15:53Z</time>
      </trkpt>
      <trkpt lat="42.64554" lon="1.70048">
        <ele>1705.04</ele>
        <time>2014-05-10T11:15:57Z</time>
      </trkpt>
      <trkpt lat="42.64565" lon="1.70048">
        <ele>1704.07</ele>
        <time>2014-05-10T11:16:06Z</time>
      </trkpt>
      <trkpt lat="42.64575" lon="1.70042">
        <ele>1702.63</ele>
        <time>2014-05-10T11:16:15Z</time>
      </trkpt>
      <trkpt lat="42.64589" lon="1.70043">
        <ele>1705.04</ele>
        <time>2014-05-10T11:16:29Z</time>
      </trkpt>
      <trkpt lat="42.64591" lon="1.70044">
        <ele>1704.55</ele>
        <time>2014-05-10T11:16:31Z</time>
      </trkpt>
      <trkpt lat="42.64597" lon="1.70047">
        <ele>1705.52</ele>
        <time>2014-05-10T11:16:43Z</time>
      </trkpt>
      <trkpt lat="42.64598" lon="1.70049">
        <ele>1705.52</ele>
        <time>2014-05-10T11:16:48Z</time>
      </trkpt>
      <trkpt lat="42.64602" lon="1.7005">
        <ele>1705.04</ele>
        <time>2014-05-10T11:16:57Z</time>
      </trkpt>
      <trkpt lat="42.64602" lon="1.70051">
        <ele>1707.44</ele>
        <time>2014-05-10T11:17:11Z</time>
      </trkpt>
      <trkpt lat="42.64603" lon="1.70053">
        <ele>1707.44</ele>
        <time>2014-05-10T11:17:14Z</time>
      </trkpt>
      <trkpt lat="42.64605" lon="1.70044">
        <ele>1709.36</ele>
        <time>2014-05-10T11:17:25Z</time>
      </trkpt>
      <trkpt lat="42.64605" lon="1.70046">
        <ele>1710.8</ele>
        <time>2014-05-10T11:17:34Z</time>
      </trkpt>
      <trkpt lat="42.64606" lon="1.70048">
        <ele>1711.28</ele>
        <time>2014-05-10T11:17:36Z</time>
      </trkpt>
      <trkpt lat="42.6462" lon="1.70041">
        <ele>1710.32</ele>
        <time>2014-05-10T11:17:50Z</time>
      </trkpt>
      <trkpt lat="42.64621" lon="1.70038">
        <ele>1709.36</ele>
        <time>2014-05-10T11:17:53Z</time>
      </trkpt>
      <trkpt lat="42.64625" lon="1.70035">
        <ele>1708.4</ele>
        <time>2014-05-10T11:17:59Z</time>
      </trkpt>
      <trkpt lat="42.64628" lon="1.70036">
        <ele>1707.92</ele>
        <time>2014-05-10T11:18:02Z</time>
      </trkpt>
      <trkpt lat="42.64633" lon="1.70044">
        <ele>1711.28</ele>
        <time>2014-05-10T11:18:15Z</time>
      </trkpt>
      <trkpt lat="42.64633" lon="1.70044">
        <ele>1711.28</ele>
        <time>2014-05-10T11:18:30Z</time>
      </trkpt>
      <trkpt lat="42.64636" lon="1.70046">
        <ele>1704.07</ele>
        <time>2014-05-10T11:18:51Z</time>
      </trkpt>
      <trkpt lat="42.64635" lon="1.70042">
        <ele>1705.52</ele>
        <time>2014-05-10T11:19:06Z</time>
      </trkpt>
      <trkpt lat="42.64639" lon="1.70047">
        <ele>1706.48</ele>
        <time>2014-05-10T11:19:15Z</time>
      </trkpt>
      <trkpt lat="42.64641" lon="1.70046">
        <ele>1706.48</ele>
        <time>2014-05-10T11:19:17Z</time>
      </trkpt>
      <trkpt lat="42.64646" lon="1.70047">
        <ele>1706.48</ele>
        <time>2014-05-10T11:19:21Z</time>
      </trkpt>
      <trkpt lat="42.64657" lon="1.70058">
        <ele>1706</ele>
        <time>2014-05-10T11:19:35Z</time>
      </trkpt>
      <trkpt lat="42.64673" lon="1.70054">
        <ele>1701.67</ele>
        <time>2014-05-10T11:19:50Z</time>
      </trkpt>
      <trkpt lat="42.64683" lon="1.70057">
        <ele>1701.19</ele>
        <time>2014-05-10T11:20:02Z</time>
      </trkpt>
      <trkpt lat="42.64687" lon="1.70064">
        <ele>1702.63</ele>
        <time>2014-05-10T11:20:09Z</time>
      </trkpt>
      <trkpt lat="42.64692" lon="1.70062">
        <ele>1703.59</ele>
        <time>2014-05-10T11:20:14Z</time>
      </trkpt>
      <trkpt lat="42.647" lon="1.70048">
        <ele>1704.55</ele>
        <time>2014-05-10T11:20:29Z</time>
      </trkpt>
      <trkpt lat="42.64703" lon="1.70047">
        <ele>1704.55</ele>
        <time>2014-05-10T11:20:34Z</time>
      </trkpt>
      <trkpt lat="42.64713" lon="1.70048">
        <ele>1703.11</ele>
        <time>2014-05-10T11:20:46Z</time>
      </trkpt>
      <trkpt lat="42.64725" lon="1.70047">
        <ele>1702.15</ele>
        <time>2014-05-10T11:20:59Z</time>
      </trkpt>
      <trkpt lat="42.64735" lon="1.7005">
        <ele>1701.67</ele>
        <time>2014-05-10T11:21:10Z</time>
      </trkpt>
      <trkpt lat="42.64737" lon="1.70054">
        <ele>1702.15</ele>
        <time>2014-05-10T11:21:13Z</time>
      </trkpt>
      <trkpt lat="42.64738" lon="1.70055">
        <ele>1702.15</ele>
        <time>2014-05-10T11:21:15Z</time>
      </trkpt>
      <trkpt lat="42.64743" lon="1.70057">
        <ele>1703.11</ele>
        <time>2014-05-10T11:21:26Z</time>
      </trkpt>
      <trkpt lat="42.64744" lon="1.7006">
        <ele>1704.55</ele>
        <time>2014-05-10T11:21:40Z</time>
      </trkpt>
      <trkpt lat="42.64749" lon="1.70062">
        <ele>1704.55</ele>
        <time>2014-05-10T11:21:45Z</time>
      </trkpt>
      <trkpt lat="42.64753" lon="1.70063">
        <ele>1704.55</ele>
        <time>2014-05-10T11:21:49Z</time>
      </trkpt>
      <trkpt lat="42.64756" lon="1.70062">
        <ele>1705.04</ele>
        <time>2014-05-10T11:21:53Z</time>
      </trkpt>
      <trkpt lat="42.64765" lon="1.7006">
        <ele>1704.07</ele>
        <time>2014-05-10T11:22:00Z</time>
      </trkpt>
      <trkpt lat="42.64768" lon="1.70059">
        <ele>1702.63</ele>
        <time>2014-05-10T11:22:03Z</time>
      </trkpt>
      <trkpt lat="42.64772" lon="1.70059">
        <ele>1701.67</ele>
        <time>2014-05-10T11:22:07Z</time>
      </trkpt>
      <trkpt lat="42.64776" lon="1.70056">
        <ele>1701.19</ele>
        <time>2014-05-10T11:22:12Z</time>
      </trkpt>
      <trkpt lat="42.64787" lon="1.70061">
        <ele>1700.23</ele>
        <time>2014-05-10T11:22:27Z</time>
      </trkpt>
      <trkpt lat="42.64789" lon="1.7006">
        <ele>1699.75</ele>
        <time>2014-05-10T11:22:30Z</time>
      </trkpt>
      <trkpt lat="42.64789" lon="1.70062">
        <ele>1700.71</ele>
        <time>2014-05-10T11:22:33Z</time>
      </trkpt>
      <trkpt lat="42.64792" lon="1.70067">
        <ele>1700.23</ele>
        <time>2014-05-10T11:22:40Z</time>
      </trkpt>
      <trkpt lat="42.64797" lon="1.70069">
        <ele>1699.27</ele>
        <time>2014-05-10T11:22:46Z</time>
      </trkpt>
      <trkpt lat="42.64798" lon="1.70068">
        <ele>1699.27</ele>
        <time>2014-05-10T11:22:48Z</time>
      </trkpt>
      <trkpt lat="42.64805" lon="1.70068">
        <ele>1699.27</ele>
        <time>2014-05-10T11:22:56Z</time>
      </trkpt>
      <trkpt lat="42.64813" lon="1.70068">
        <ele>1700.71</ele>
        <time>2014-05-10T11:23:06Z</time>
      </trkpt>
      <trkpt lat="42.64818" lon="1.70073">
        <ele>1702.15</ele>
        <time>2014-05-10T11:23:17Z</time>
      </trkpt>
      <trkpt lat="42.64819" lon="1.70073">
        <ele>1701.19</ele>
        <time>2014-05-10T11:23:21Z</time>
      </trkpt>
      <trkpt lat="42.64824" lon="1.70079">
        <ele>1702.15</ele>
        <time>2014-05-10T11:23:31Z</time>
      </trkpt>
      <trkpt lat="42.64826" lon="1.70082">
        <ele>1703.59</ele>
        <time>2014-05-10T11:23:39Z</time>
      </trkpt>
      <trkpt lat="42.64828" lon="1.70082">
        <ele>1703.11</ele>
        <time>2014-05-10T11:23:41Z</time>
      </trkpt>
      <trkpt lat="42.64833" lon="1.7009">
        <ele>1702.15</ele>
        <time>2014-05-10T11:23:52Z</time>
      </trkpt>
      <trkpt lat="42.64837" lon="1.70093">
        <ele>1700.71</ele>
        <time>2014-05-10T11:24:02Z</time>
      </trkpt>
      <trkpt lat="42.64846" lon="1.701">
        <ele>1701.19</ele>
        <time>2014-05-10T11:24:14Z</time>
      </trkpt>
      <trkpt lat="42.64852" lon="1.70105">
        <ele>1701.67</ele>
        <time>2014-05-10T11:24:25Z</time>
      </trkpt>
      <trkpt lat="42.64856" lon="1.70113">
        <ele>1701.67</ele>
        <time>2014-05-10T11:24:35Z</time>
      </trkpt>
      <trkpt lat="42.64856" lon="1.70117">
        <ele>1701.67</ele>
        <time>2014-05-10T11:24:38Z</time>
      </trkpt>
      <trkpt lat="42.64857" lon="1.70124">
        <ele>1701.67</ele>
        <time>2014-05-10T11:24:43Z</time>
      </trkpt>
      <trkpt lat="42.64858" lon="1.70133">
        <ele>1701.67</ele>
        <time>2014-05-10T11:24:50Z</time>
      </trkpt>
      <trkpt lat="42.64858" lon="1.70138">
        <ele>1701.67</ele>
        <time>2014-05-10T11:24:54Z</time>
      </trkpt>
      <trkpt lat="42.64859" lon="1.70142">
        <ele>1701.67</ele>
        <time>2014-05-10T11:24:57Z</time>
      </trkpt>
      <trkpt lat="42.64863" lon="1.70163">
        <ele>1699.27</ele>
        <time>2014-05-10T11:25:11Z</time>
      </trkpt>
      <trkpt lat="42.64866" lon="1.70181">
        <ele>1698.79</ele>
        <time>2014-05-10T11:25:25Z</time>
      </trkpt>
      <trkpt lat="42.64867" lon="1.70195">
        <ele>1699.27</ele>
        <time>2014-05-10T11:25:37Z</time>
      </trkpt>
      <trkpt lat="42.64873" lon="1.70215">
        <ele>1698.31</ele>
        <time>2014-05-10T11:25:51Z</time>
      </trkpt>
      <trkpt lat="42.64886" lon="1.70233">
        <ele>1696.86</ele>
        <time>2014-05-10T11:26:08Z</time>
      </trkpt>
      <trkpt lat="42.64899" lon="1.70244">
        <ele>1696.38</ele>
        <time>2014-05-10T11:26:23Z</time>
      </trkpt>
      <trkpt lat="42.64902" lon="1.70247">
        <ele>1695.42</ele>
        <time>2014-05-10T11:26:27Z</time>
      </trkpt>
      <trkpt lat="42.64915" lon="1.70265">
        <ele>1693.98</ele>
        <time>2014-05-10T11:26:44Z</time>
      </trkpt>
      <trkpt lat="42.64926" lon="1.70278">
        <ele>1694.46</ele>
        <time>2014-05-10T11:26:59Z</time>
      </trkpt>
      <trkpt lat="42.6493" lon="1.70286">
        <ele>1693.02</ele>
        <time>2014-05-10T11:27:07Z</time>
      </trkpt>
      <trkpt lat="42.64935" lon="1.70286">
        <ele>1691.1</ele>
        <time>2014-05-10T11:27:19Z</time>
      </trkpt>
      <trkpt lat="42.6494" lon="1.70286">
        <ele>1689.65</ele>
        <time>2014-05-10T11:27:30Z</time>
      </trkpt>
      <trkpt lat="42.64942" lon="1.70287">
        <ele>1689.17</ele>
        <time>2014-05-10T11:27:32Z</time>
      </trkpt>
      <trkpt lat="42.64955" lon="1.70298">
        <ele>1688.21</ele>
        <time>2014-05-10T11:27:46Z</time>
      </trkpt>
      <trkpt lat="42.64959" lon="1.70301">
        <ele>1690.62</ele>
        <time>2014-05-10T11:27:53Z</time>
      </trkpt>
      <trkpt lat="42.64955" lon="1.70313">
        <ele>1692.54</ele>
        <time>2014-05-10T11:28:02Z</time>
      </trkpt>
      <trkpt lat="42.64957" lon="1.70319">
        <ele>1692.54</ele>
        <time>2014-05-10T11:28:06Z</time>
      </trkpt>
      <trkpt lat="42.64962" lon="1.70327">
        <ele>1692.06</ele>
        <time>2014-05-10T11:28:13Z</time>
      </trkpt>
      <trkpt lat="42.64963" lon="1.70333">
        <ele>1693.02</ele>
        <time>2014-05-10T11:28:16Z</time>
      </trkpt>
      <trkpt lat="42.64965" lon="1.70335">
        <ele>1693.02</ele>
        <time>2014-05-10T11:28:19Z</time>
      </trkpt>
      <trkpt lat="42.64967" lon="1.70339">
        <ele>1692.54</ele>
        <time>2014-05-10T11:28:24Z</time>
      </trkpt>
      <trkpt lat="42.64969" lon="1.70347">
        <ele>1694.94</ele>
        <time>2014-05-10T11:28:36Z</time>
      </trkpt>
      <trkpt lat="42.64967" lon="1.70348">
        <ele>1695.9</ele>
        <time>2014-05-10T11:28:49Z</time>
      </trkpt>
      <trkpt lat="42.64962" lon="1.70348">
        <ele>1696.86</ele>
        <time>2014-05-10T11:29:05Z</time>
      </trkpt>
      <trkpt lat="42.64959" lon="1.70347">
        <ele>1698.31</ele>
        <time>2014-05-10T11:29:31Z</time>
      </trkpt>
      <trkpt lat="42.64962" lon="1.70347">
        <ele>1700.23</ele>
        <time>2014-05-10T11:29:51Z</time>
      </trkpt>
    </trkseg>
  </trk>
</gpx>